[[{"header":{"parameterUnit":"m.s-1","parameterCategory":1,"la1":30.6,"la2":29.2853,"lo1":-89.7004,"lo2":-87.6739,"dy":0.0162,"dx":0.0183,"nx":112,"ny":82,"refTime":"2024-09-17T12:00:00:Z","depth":0,"parameterNumber":2,"parameterNumberName":"U-component_of_WINDS"},"data":[0.0,0.0,0.0,0.0,0.0,0.0,0.0,0.0,0.0,0.0,0.0,0.0,0.0,0.0,0.0,0.0,0.0,0.0,0.0,0.0,0.0,0.0,0.0,0.0,0.0,0.0,0.0,0.0,0.0,0.0,0.0,0.0,0.0,0.0,0.0,0.0,0.0,0.0,0.0,0.0,0.0,0.0,0.0,0.0,0.0,0.0,0.0,0.0,0.0,0.0,0.0,0.0,0.0,0.0,0.0,0.0,0.0,0.0,0.0,0.0,0.0,0.0,0.0,0.0,0.0,0.0,0.0,0.0,0.0,0.0,0.0,0.0,0.0,0.0,0.0,0.0,0.0,0.0,0.0,0.0,0.0,0.0,0.0,0.0,0.0,0.0,0.0,0.0,0.0,0.0,0.7452,0.7848,0.8315,0.8648,0.8757,0.9212,0.9126,0.8236,0.0,0.0,0.0,0.0,0.0,0.0,0.0,0.0,0.0,0.0,0.0,0.0,0.0,0.0,0.0,0.0,0.0,0.0,0.0,0.0,0.0,0.0,0.0,0.0,0.0,0.0,0.0,0.0,0.0,0.0,0.0,0.0,0.0,0.0,0.0,0.0,0.0,0.0,0.0,0.0,0.0,0.0,0.0,0.0,0.0,0.0,0.0,0.0,0.0,0.0,0.0,0.0,0.0,0.0,0.0,0.0,0.0,0.0,0.0,0.0,0.0,0.0,0.0,0.0,0.0,0.0,0.0,0.0,0.0,0.0,0.0,0.0,0.0,0.0,0.0,0.0,0.0,0.0,0.0,0.0,0.0,0.0,0.0,0.0,0.0,0.0,0.0,0.0,0.0,0.0,0.0,0.0,0.0,0.0,0.0,0.0,0.0,0.0,0.0,0.0,0.0,0.0,0.0,0.0,0.7566,0.8234,0.8485,0.8717,0.9012,0.9321,0.8847,0.7312,0.0,0.0,0.0,0.0,0.0,0.0,0.0,0.0,0.0,0.0,0.0,0.0,0.0,0.0,0.0,0.0,0.0,0.0,0.0,0.0,0.0,0.0,0.0,0.0,0.0,0.0,0.0,0.0,0.0,0.0,0.0,0.0,0.0,0.0,0.0,0.0,0.0,0.0,0.0,0.0,0.0,0.0,0.0,0.0,0.0,0.0,0.0,0.0,0.0,0.0,0.0,0.0,0.0,0.0,0.0,0.0,0.0,0.0,0.0,0.0,0.0,0.0,0.0,0.0,0.0,0.0,0.0,0.0,0.0,0.0,0.0,0.0,0.0,0.0,0.0,0.0,0.0,0.0,0.0,0.0,0.0,0.0,0.0,0.0,0.0,0.0,0.0,0.0,0.0,0.0,0.0,0.0,0.0,0.0,0.0,0.0,0.0,0.0,0.0,0.0,0.0,0.0,0.0,0.7812,0.7871,0.8349,0.8744,0.9042,0.9192,0.952,0.9191,0.7947,0.7501,0.0,0.0,0.0,0.0,0.0,0.0,0.0,0.0,0.0,0.0,0.0,0.0,0.0,0.0,0.0,0.0,0.0,0.0,0.0,0.0,0.0,0.0,0.0,0.0,0.0,0.0,0.0,0.0,0.0,0.0,0.0,0.0,0.0,0.0,0.0,0.0,0.0,0.0,0.0,0.0,0.0,0.0,0.0,0.0,0.0,0.0,0.0,0.0,0.0,0.0,0.0,0.0,0.0,0.0,0.0,0.0,0.0,0.0,0.0,0.0,0.0,0.0,0.0,0.0,0.0,0.0,0.0,0.0,0.0,0.0,0.0,0.0,0.0,0.0,0.0,0.0,0.0,0.0,0.0,0.0,0.0,0.0,0.0,0.0,0.0,0.0,0.0,0.0,0.0,0.0,0.0,0.0,0.0,0.0,0.0,0.0,0.0,0.0,0.0,0.0,0.0,0.0,0.8005,0.8321,0.8538,0.9052,0.9376,0.9393,0.9515,0.9195,0.8258,0.7348,0.0,0.0,0.0,0.0,0.0,0.0,0.0,0.0,0.0,0.0,0.0,0.0,0.0,0.0,0.0,0.0,0.0,0.0,0.0,0.0,0.0,0.0,0.0,0.0,0.0,0.0,0.0,0.0,0.0,0.0,0.0,0.0,0.0,0.0,0.0,0.0,0.0,0.0,0.0,0.0,0.0,0.0,0.0,0.0,0.0,0.0,0.0,0.0,0.0,0.0,0.0,0.0,0.0,0.0,0.0,0.0,0.0,0.0,0.0,0.0,0.0,0.0,0.0,0.0,0.0,0.0,0.0,0.0,0.0,0.0,0.0,0.0,0.0,0.0,0.0,0.0,0.0,0.0,0.0,0.0,0.0,0.0,0.0,0.0,0.0,0.0,0.0,0.0,0.0,0.0,0.0,0.0,0.0,0.0,0.0,0.0,0.0,0.0,0.0,0.0,0.0,0.0,0.8119,0.8964,0.9038,0.9368,0.9603,0.9666,0.9069,0.8212,0.7091,0.6259,0.0,0.0,0.0,0.0,0.0,0.0,0.0,0.0,0.0,0.0,0.0,0.0,0.0,0.0,0.0,0.0,0.0,0.0,0.0,0.0,0.0,0.0,0.0,0.0,0.0,0.0,0.0,0.0,0.0,0.0,0.0,0.0,0.0,0.0,0.0,0.0,0.0,0.0,0.0,0.0,0.0,0.0,0.0,0.0,0.0,0.0,0.0,0.0,0.0,0.0,0.0,0.0,0.0,0.0,0.0,0.0,0.0,0.0,0.0,0.0,0.0,0.0,0.0,0.0,0.0,0.0,0.0,0.0,0.0,0.0,0.0,0.0,0.0,0.0,0.0,0.0,0.0,0.0,0.0,0.0,0.0,0.0,0.0,0.0,0.0,0.0,0.0,0.0,0.0,0.0,0.0,0.0,0.0,0.0,0.0,0.0,0.0,0.0,0.0,0.0,0.0,0.0,0.7585,0.8282,0.0,0.925,0.9547,0.9744,0.9587,0.877,0.7126,0.0,0.0,0.0,0.0,0.0,0.0,0.0,0.0,0.0,0.0,0.0,0.0,0.0,0.0,0.0,0.0,0.0,0.0,0.0,0.0,0.0,0.0,0.0,0.0,0.0,0.0,0.0,0.0,0.0,0.0,0.0,0.0,0.0,0.0,0.0,0.0,0.0,0.0,0.0,0.0,0.0,0.0,0.0,0.0,0.0,0.0,0.0,0.0,0.0,0.0,0.0,0.0,0.0,0.0,0.0,0.0,0.0,0.0,0.0,0.0,0.0,0.0,0.0,0.0,0.0,0.0,0.0,0.0,0.0,0.0,0.0,0.0,0.0,0.0,0.0,0.0,0.0,0.0,0.0,0.0,0.0,0.0,0.0,0.0,0.0,0.0,0.0,0.0,0.0,0.0,0.0,0.0,0.0,0.0,0.0,0.0,0.0,0.0,0.0,0.0,0.0,0.0,0.6809,0.7457,0.8108,0.0,0.9223,0.9571,0.9842,0.9674,0.884,0.7174,0.0,0.0,0.0,0.0,0.0,0.0,0.0,0.0,0.0,0.0,0.0,0.0,0.0,0.0,0.0,0.0,0.0,0.0,0.0,0.0,0.0,0.0,0.0,0.0,0.0,0.0,0.0,0.0,0.0,0.0,0.0,0.0,0.0,0.0,0.0,0.0,0.0,0.0,0.0,0.0,0.0,0.0,0.0,0.0,0.0,0.0,0.0,0.0,0.0,0.0,0.0,0.0,0.0,0.0,0.0,0.0,0.0,0.0,0.0,0.0,0.0,0.0,0.0,0.0,0.0,0.0,0.0,0.0,0.0,0.0,0.0,0.0,0.0,0.0,0.0,0.0,0.0,0.0,0.0,0.0,0.0,0.0,0.0,0.0,0.0,0.0,0.0,0.0,0.0,0.0,0.0,0.0,0.0,0.0,0.0,0.0,0.0,0.0,0.0,0.0,0.0,0.0,0.6811,0.7897,0.8696,0.8967,0.9349,0.97,0.9972,0.9155,0.8155,0.0,0.0,0.0,0.0,0.0,0.0,0.0,0.0,0.0,0.0,0.0,0.0,0.0,0.0,0.0,0.0,0.0,0.0,0.0,0.0,0.0,0.0,0.0,0.0,0.0,0.0,0.0,0.0,0.0,0.0,0.0,0.0,0.0,0.0,0.0,0.0,0.0,0.0,0.0,0.0,0.0,0.0,0.0,0.0,0.0,0.0,0.0,0.0,0.0,0.0,0.0,0.0,0.0,0.0,0.0,0.0,0.0,0.0,0.0,0.0,0.0,0.0,0.0,0.0,0.0,0.0,0.0,0.0,0.0,0.0,0.0,0.0,0.0,0.0,0.0,0.0,0.0,0.0,0.0,0.0,0.0,0.0,0.0,0.0,0.0,0.0,0.0,0.0,0.0,0.0,0.0,0.0,0.0,0.0,0.0,0.0,0.0,0.0,0.0,0.0,0.0,0.0,0.0,0.6977,0.7652,0.8159,0.8473,0.895,0.9396,0.976,0.9705,0.898,0.7383,0.0,0.0,0.0,0.0,0.0,0.0,0.0,0.0,0.0,0.0,0.0,0.0,0.0,0.0,0.0,0.0,0.0,0.0,0.0,0.0,0.0,0.0,0.0,0.0,0.0,0.0,0.0,0.0,0.0,0.0,0.0,0.0,0.0,0.0,0.0,0.0,0.0,0.0,0.0,0.0,0.0,0.0,0.0,0.0,0.0,0.0,0.0,0.0,0.0,0.0,0.0,0.0,0.0,0.0,0.0,0.0,0.0,0.0,0.0,0.0,0.0,0.0,0.0,0.0,0.0,0.0,0.0,0.0,0.0,0.0,0.0,0.0,0.0,0.0,0.0,0.0,0.0,0.0,0.0,0.0,0.0,0.0,0.0,0.0,0.0,0.0,0.0,0.0,0.0,0.0,0.0,0.0,0.0,0.0,0.0,0.0,0.0,0.0,0.0,0.0,0.0,0.0,0.6702,0.7323,0.7809,0.8154,0.8661,0.9143,0.955,0.982,0.9366,0.7932,0.0,0.0,0.0,0.0,0.0,0.0,0.0,0.0,0.0,0.0,0.0,0.0,0.0,0.0,0.0,0.0,0.0,0.0,0.0,0.0,0.0,0.0,0.0,0.0,0.0,0.0,0.0,0.0,0.0,0.0,0.0,0.0,0.0,0.0,0.0,0.0,0.0,0.0,0.0,0.0,0.0,0.0,0.0,0.0,0.0,0.0,0.0,0.0,0.0,0.0,0.0,0.0,0.0,0.0,0.0,0.0,0.0,0.0,0.0,0.0,0.0,0.0,0.0,0.0,0.0,0.0,0.0,0.0,0.0,0.0,0.0,0.0,0.0,0.0,0.0,0.0,0.0,0.0,0.0,0.0,0.0,0.0,0.0,0.0,0.0,0.0,0.0,0.0,0.0,0.0,0.0,0.0,0.0,0.0,0.0,0.0,0.0,0.0,0.0,0.0,0.0,0.0,0.6269,0.7013,0.7577,0.7925,0.8432,0.8916,0.9339,0.9613,0.9414,0.858,0.0,0.0,0.0,0.0,0.0,0.0,0.0,0.0,0.0,0.0,0.0,0.0,0.0,0.0,0.0,0.0,0.0,0.0,0.0,0.0,0.0,0.0,0.0,0.0,0.0,0.0,0.0,0.0,0.0,0.0,0.0,0.0,0.0,0.0,0.0,0.0,0.0,0.0,0.0,0.0,0.0,0.0,0.0,0.0,0.0,0.0,0.0,0.0,0.0,0.0,0.0,0.0,0.0,0.0,0.0,0.0,0.0,0.0,0.0,0.0,0.8901,0.0,0.0,0.0,0.0,0.0,0.0,0.0,0.0,0.0,0.0,0.0,0.0,0.0,0.0,0.0,0.0,0.0,0.0,0.0,0.0,0.0,0.0,0.0,0.0,0.0,0.0,0.0,0.0,0.0,0.0,0.0,0.0,0.0,0.0,0.0,0.0,0.0,0.0,0.0,0.0,0.0,0.7005,0.7085,0.7173,0.757,0.8088,0.8616,0.9126,0.9413,0.9325,0.877,0.8651,0.0,0.0,0.0,0.0,0.0,0.0,0.0,0.0,0.0,0.0,0.0,0.0,0.0,0.0,0.0,0.0,0.0,0.0,0.0,0.0,0.0,0.0,0.0,0.0,0.0,0.0,0.0,0.0,0.0,0.0,0.0,0.0,0.0,0.0,0.0,0.0,0.0,0.0,0.0,0.0,0.0,0.0,0.0,0.0,0.0,0.0,0.0,0.0,0.0,0.0,0.0,0.0,0.0,0.0,0.0,0.0,0.0,0.0,0.0,0.0,1.0097,0.0,0.0,0.0,0.0,0.0,0.0,0.0,0.0,0.0,0.0,0.0,0.0,0.0,0.0,0.0,0.0,0.0,0.0,0.0,0.0,0.0,0.0,0.0,0.0,0.0,0.0,0.0,0.0,0.0,0.0,0.0,0.0,0.0,0.0,0.0,0.0,0.0,0.0,0.0,0.0,0.6885,0.6861,0.6921,0.7311,0.778,0.83,0.8905,0.9228,0.9392,0.9375,0.9107,0.0,0.0,0.0,0.0,0.0,0.0,0.0,0.0,0.0,0.0,0.0,0.0,0.0,0.0,0.0,0.0,0.0,0.0,0.0,0.0,0.0,0.0,0.0,0.0,0.0,0.0,0.0,0.0,0.0,0.0,0.0,0.0,0.0,0.0,0.0,0.0,0.0,0.0,0.0,0.0,0.0,0.0,0.0,0.0,0.0,0.0,0.0,0.0,0.0,0.0,0.0,0.0,0.0,1.2151,1.2469,1.5097,1.205,1.211,1.4488,1.205,1.1002,1.0983,0.0,0.0,0.0,0.0,0.0,0.0,0.0,0.0,0.0,0.0,0.0,0.0,0.0,0.0,0.0,0.0,0.0,0.0,0.0,0.0,0.0,0.0,0.0,0.0,0.0,1.0013,0.9634,0.0,0.0,0.0,0.0,0.0,0.0,0.0,0.0,0.0,0.0,0.0,0.0,0.6844,0.6827,0.695,0.7471,0.7902,0.8369,0.8891,0.9276,0.9618,0.9927,0.948,0.9139,0.0,0.0,0.0,0.0,0.0,0.0,0.0,0.0,0.0,0.0,0.0,0.0,0.0,0.0,0.0,0.0,0.0,0.0,0.0,0.0,0.0,0.0,0.0,0.0,0.0,0.0,0.0,0.0,0.0,0.0,0.0,0.0,0.5979,0.9076,0.0,0.0,0.0,0.0,0.0,0.0,0.0,0.0,0.0,0.0,0.0,0.0,0.0,1.1081,1.3848,1.3875,1.4279,1.5098,1.471,1.4757,1.518,1.4704,1.4709,1.5088,1.4701,0.0,1.4459,1.1373,0.0,0.0,0.0,0.0,0.0,0.0,0.0,0.0,0.0,0.0,0.0,0.0,0.0,0.0,0.0,0.0,0.0,0.0,0.0,0.0,0.0,0.0,1.3711,1.3063,1.2867,1.2556,0.0,0.9572,0.7823,0.754,0.7623,0.0,0.0,0.0,0.0,0.0,0.0,0.0,0.818,0.7721,0.77,0.8733,0.926,0.9534,0.9493,0.9965,1.0118,0.9757,0.9932,0.9701,0.894,0.8677,0.0,0.0,0.0,0.0,0.0,0.0,0.0,0.0,0.0,0.0,0.0,0.0,0.0,0.0,0.0,0.0,0.0,0.0,0.0,0.0,0.0,0.0,0.0,0.0,0.0,0.0,0.0,0.0,0.0,0.6713,0.8442,0.9919,1.01,0.9526,0.0,0.0,0.0,0.0,0.0,0.0,0.0,0.0,0.0,1.2352,1.2398,1.3077,1.4488,1.4757,1.4996,1.5218,1.7151,1.8071,1.8071,1.8071,1.7856,1.7535,1.79,1.8103,1.7891,1.4477,1.3031,1.2781,0.0,0.0,0.0,0.0,1.1221,1.2968,1.2971,1.3816,0.0,1.4591,0.0,0.0,0.0,0.0,0.0,0.0,0.0,0.0,0.0,0.0,0.0,1.5003,1.4758,1.4507,1.3572,1.2231,1.078,0.0,0.9085,0.8935,0.8271,0.0,0.0,0.0,0.0,0.7693,0.8844,0.8648,0.8582,0.9047,0.9556,0.9997,1.0355,1.0391,1.0419,1.0479,1.0308,1.0028,0.9647,0.9159,0.859,0.0,0.0,0.0,0.0,0.0,0.0,0.0,0.0,0.0,0.0,0.0,0.0,0.0,0.0,0.0,0.0,0.0,0.0,0.0,0.0,0.0,0.0,0.0,0.0,0.0,0.0,0.0,0.0,0.8105,1.0254,1.0121,1.0127,1.0138,0.0,0.0,0.0,0.0,0.0,0.0,1.0937,1.0929,1.2031,1.4414,1.4313,1.4589,1.5334,1.5955,1.6336,1.6535,1.9081,2.0216,2.0041,2.0041,1.9767,1.9335,1.9823,2.0135,2.0113,1.7716,1.667,1.6248,1.2909,1.2064,1.2709,1.2709,1.4315,1.6497,1.6497,1.6497,1.6424,1.5902,0.0,1.7515,1.4564,0.0,0.0,0.0,0.0,1.4539,1.4539,1.59,1.7052,1.6032,1.5799,1.5573,1.4722,1.4246,1.3256,0.0,1.0478,1.0158,0.8939,0.0,0.0,0.0,0.0,0.8533,0.9387,0.932,0.9268,0.9543,0.9971,1.0496,1.1079,1.1012,1.0948,1.0977,1.0656,1.0385,1.0178,0.9565,0.9192,0.9113,0.0,0.0,0.0,0.0,0.0,0.0,0.0,0.0,0.0,0.0,0.0,0.0,0.0,0.0,0.0,0.0,0.0,0.0,0.0,0.0,0.0,0.0,0.0,0.0,0.0,0.0,0.0,0.0,0.0,1.0121,1.0211,0.0,0.0,0.0,0.0,1.011,1.2699,1.4263,1.4261,1.4258,1.4323,1.4488,1.3818,1.4798,1.7615,1.859,1.9404,2.0052,2.0225,1.9971,1.9341,1.9341,1.9326,1.9305,1.9335,1.9707,2.0304,2.0328,2.0332,1.998,1.6504,1.7047,1.9792,1.9792,1.9908,2.0042,2.0042,2.0042,1.9931,1.9271,1.7096,1.4698,1.4507,1.5814,0.0,0.0,1.75,1.7591,1.7591,1.6738,1.5877,1.5835,1.5799,1.5536,1.4599,1.4378,1.3847,0.0,1.1723,1.1391,1.0369,0.0,1.0256,1.0453,0.9873,0.9581,0.9996,0.9499,0.9536,1.0698,1.1052,1.1308,1.1462,1.2039,1.189,1.0694,1.1011,1.0901,1.014,1.0117,1.0068,0.9944,0.9054,0.0,0.0,0.0,0.0,0.0,0.0,0.0,0.0,0.0,0.0,0.0,0.0,0.0,0.0,0.0,0.0,0.0,0.0,0.0,0.0,0.0,0.0,0.0,0.0,0.0,0.0,0.0,0.0,1.2799,1.1641,0.0,1.3209,1.1386,1.1012,1.3219,1.4073,1.4497,1.4497,1.6463,1.7297,1.6637,1.6373,1.6745,1.7794,1.817,1.877,1.9667,1.9667,1.9536,1.9305,1.9305,1.9305,1.9305,1.9305,1.9434,1.966,1.9729,2.0027,2.0279,1.9037,1.9275,2.0302,2.0302,2.0031,1.9667,1.9667,1.9667,1.9628,1.9385,1.8519,1.7592,1.7592,1.7702,1.7811,1.7811,1.7811,1.7811,1.7811,1.6825,1.5799,1.5799,1.5799,1.5716,1.5379,1.5283,1.5004,1.3929,1.3383,1.2745,1.1696,1.152,1.1439,1.1211,1.0962,1.0911,1.1287,1.0988,1.0855,1.1074,1.1374,1.163,1.1816,1.2116,1.1999,1.1291,1.1079,1.069,1.0058,1.002,1.0028,1.0058,0.9162,0.8206,0.0,0.0,0.0,0.0,0.0,0.0,0.0,0.0,0.0,0.0,0.0,0.0,0.0,0.0,0.0,0.0,0.0,0.0,0.0,0.0,0.0,0.0,0.0,0.0,0.0,0.0,1.0865,1.2064,1.1961,1.2249,1.3363,1.2334,1.2969,1.6334,1.6304,1.6123,1.6123,1.7824,1.8494,1.7825,1.7352,1.7126,1.7126,1.7581,1.812,1.8789,1.9146,1.9305,1.9305,1.9305,1.9305,1.9305,1.9305,1.9305,1.9305,1.9305,1.9553,1.9991,2.0216,2.0302,2.0269,2.005,1.9682,1.9249,1.892,1.9013,1.9305,1.9305,2.0042,2.0865,2.0432,1.9848,1.9333,1.9333,1.89,1.8446,1.8446,1.7788,1.6831,1.5624,1.558,1.5791,1.5754,1.5776,1.5664,1.5156,1.4565,1.3794,1.2711,1.2527,1.2385,1.1905,1.1737,1.1748,1.1967,1.179,1.162,1.1477,1.1502,1.1709,1.2157,1.2293,1.2247,1.191,1.146,1.0962,1.0429,1.0061,0.9927,1.0062,0.9074,0.8238,0.756,0.0,0.0,0.0,0.0,0.0,0.0,0.0,0.0,0.0,0.0,0.0,0.0,0.0,0.0,0.0,0.0,0.0,0.0,0.0,0.0,0.0,0.0,0.0,0.5347,0.6699,0.7729,0.7725,1.1039,1.2523,1.0483,1.2864,1.5857,1.902,1.9249,1.9249,1.9249,1.8327,1.7789,1.7735,1.6493,1.5827,1.5848,1.7101,1.7735,1.7758,1.8771,1.9249,1.9249,1.9209,1.92,1.9191,1.9225,1.9274,1.9305,1.9305,1.9289,1.9316,1.9992,2.0285,2.0232,1.9576,1.9393,1.9317,1.8287,1.8586,1.938,1.938,2.1558,2.3915,2.2659,2.231,2.2282,2.2245,2.0999,1.9682,1.9682,1.9646,1.8735,1.5368,1.5221,1.5792,1.5672,1.5732,1.577,1.5629,1.5166,1.4476,1.3387,1.3225,1.3049,1.2601,1.2239,0.0,1.2043,1.1767,1.1708,1.1959,1.1501,1.1553,1.2474,1.2609,1.2598,1.2425,1.2118,1.1698,1.114,1.0241,0.9823,0.9963,0.8863,0.8032,0.7507,0.0,0.0,0.0,0.0,0.0,0.0,0.0,0.0,0.0,0.0,0.0,0.0,0.0,0.0,0.0,0.0,0.0,0.0,0.0,0.0,0.0,0.0,0.8273,0.6418,0.7187,0.8064,0.8457,1.0333,1.2281,1.405,1.4978,1.621,1.8075,1.8214,1.8214,1.8214,1.7962,1.7352,1.6386,1.5975,1.6258,1.7248,1.6644,1.6359,1.6359,1.7611,1.8214,1.8173,1.7204,1.6748,1.6831,1.7786,1.8626,1.9305,1.9305,1.8868,1.8298,1.9213,1.996,2.0503,2.0316,2.1349,2.2693,2.1468,2.125,2.1468,2.1468,2.2089,2.2756,2.2405,2.231,2.2049,2.0772,2.0085,1.9682,1.9682,1.8535,1.7154,1.6176,1.6116,1.6376,1.6642,1.6334,1.6007,1.597,1.5224,1.4389,1.3823,1.3702,1.3545,1.3077,1.292,0.0,1.2855,1.2177,1.1705,1.1783,1.1161,1.0852,1.1062,1.145,1.1313,1.0445,1.0459,1.0125,0.9346,0.9018,0.8964,0.919,0.8374,0.7858,0.0,0.0,0.0,0.0,0.0,0.0,0.0,0.0,0.0,0.0,0.0,0.0,0.0,0.0,0.0,0.0,0.0,0.0,0.0,0.0,0.0,0.0,0.9579,0.9368,0.8239,0.8123,0.8021,0.7743,0.8726,1.0511,1.322,1.35,1.3804,1.4585,1.4666,1.5001,1.5823,1.5858,1.6361,1.7402,1.8139,1.8105,1.7264,1.6477,1.6076,1.6111,1.6865,1.7722,1.8491,1.5813,1.4593,0.0,1.5407,1.6657,1.8192,1.9093,1.9134,0.0,0.0,0.0,0.0,0.0,2.1109,2.2208,2.1456,2.1197,2.1197,2.1197,2.1197,2.1197,2.1197,2.1197,2.0999,1.9987,1.9682,1.9682,1.9682,1.8772,1.7626,1.6716,1.6488,1.6637,1.7151,1.692,1.656,1.6426,1.54,0.0,1.4061,1.3932,1.3742,1.326,1.3198,1.3198,1.3198,1.2707,1.2261,1.205,1.1446,1.1012,1.0901,1.079,0.0,0.0,0.0,0.9235,0.8507,0.8682,0.0,0.0,0.0,0.0,0.0,0.0,0.0,0.0,0.827,0.7954,0.0,0.0,0.0,0.0,0.0,0.0,0.0,0.0,0.0,0.0,0.0,0.0,0.0,0.0,0.0,0.0,0.9566,0.9419,1.0176,0.9206,0.7858,0.6367,0.6874,0.804,0.9764,0.9693,0.9561,0.9561,0.9561,1.0296,1.2011,0.0,0.0,0.0,0.0,1.9844,1.6145,1.6107,1.6107,1.6107,1.6107,1.7101,1.8783,1.4416,1.2421,1.2421,1.2084,1.3365,1.5804,1.7683,1.8636,1.8856,1.8258,1.8688,1.9682,1.9682,1.9682,1.9682,1.9682,0.0,0.0,1.9682,1.9522,1.9325,1.9325,1.9325,1.9325,1.9325,1.9325,1.9281,1.8999,1.8948,1.8433,1.6544,1.6287,1.6645,1.7248,1.7347,1.7177,1.6824,1.564,1.4591,1.4151,1.3949,1.3675,1.326,1.3198,1.3198,1.3198,1.3094,1.2873,1.2467,0.0,0.0,1.1188,1.0413,0.9976,1.0111,0.9327,0.8657,0.8214,0.879,0.913,0.9165,0.929,0.9504,0.9853,0.9953,1.0008,0.9935,0.8842,0.8273,0.0,0.0,0.0,0.0,0.0,0.0,0.0,0.0,0.0,0.0,0.0,0.0,0.0,0.0,0.0,1.1439,1.0652,1.0093,1.0298,0.9575,0.8318,0.6435,0.6724,0.722,0.7623,0.5962,0.4897,0.4897,0.4897,0.505,0.5437,0.7214,0.9012,1.085,1.5273,1.634,1.361,1.3615,1.3615,1.3615,0.0,0.0,1.412,1.0986,0.9569,0.9462,0.713,0.7688,1.0312,1.0731,1.2195,1.4558,1.7983,1.9489,1.9682,1.9682,1.9682,1.9682,1.9682,1.9682,1.9682,1.9682,1.8535,1.7111,1.7111,1.7111,0.0,1.7111,1.7111,1.6653,1.471,1.4218,1.4095,1.3689,1.5062,1.6538,1.6597,1.6967,1.7156,1.6646,1.5614,1.4627,1.4188,1.3654,1.3295,1.3198,1.3198,1.3198,1.3198,1.2538,1.2029,1.1962,1.1132,1.0365,0.9847,0.9617,0.902,0.7908,0.7516,0.741,0.7569,0.8207,0.8683,0.8956,0.898,0.9159,0.9493,0.9511,0.9797,1.0279,0.9526,0.891,0.0,0.0,0.0,0.0,0.0,0.0,0.0,0.0,0.0,0.0,0.0,0.9845,0.9845,0.0,1.2511,1.2511,1.1257,1.0283,1.0283,0.9514,0.8367,0.6778,0.6844,0.655,0.5392,0.3197,0.1789,0.1789,0.1783,0.181,0.181,0.2885,0.4455,0.6563,0.917,0.9907,0.8716,1.0132,1.0128,0.8719,0.8719,0.8719,0.8667,0.7247,0.6632,0.6578,0.5115,0.5332,0.6632,0.6632,0.7455,0.8944,1.1212,1.3817,1.6289,1.6289,1.705,1.8099,1.8099,1.8099,1.8099,1.8099,1.7388,1.6515,1.6515,1.6515,1.6515,1.6515,1.5611,1.4427,1.32,1.1859,1.0842,1.0842,1.226,1.3916,1.49,1.5373,1.5705,1.5934,1.536,1.4639,1.4088,1.3492,1.3048,1.2876,1.2832,1.2756,1.2544,1.2102,1.1695,1.1431,1.0948,1.0319,0.9525,0.8527,0.7609,0.6813,0.6546,0.6647,0.7094,0.7616,0.8086,0.8432,0.8622,0.8921,0.9357,0.9715,1.0076,1.0399,0.9856,0.956,0.0,0.0,0.0,0.0,0.0,0.0,0.0,0.0,1.2844,1.1982,1.1945,1.2067,1.2067,1.2375,1.2756,1.3123,1.1207,0.9667,0.9667,0.9275,0.868,0.7762,0.7254,0.5939,0.3168,0.0715,-0.0727,-0.0843,-0.0316,-0.0,-0.0,-0.0,0.1118,0.3566,0.3623,0.3623,0.3623,0.595,0.595,0.3623,0.4237,0.4517,0.4462,0.3901,0.3623,0.3623,0.3623,0.3623,0.3623,0.3623,0.3964,0.4475,0.4475,0.7281,1.1258,1.129,1.2839,1.5066,1.5632,1.5794,1.5794,1.5794,1.5794,1.5794,1.5794,1.5794,1.5688,1.5161,1.3617,1.195,1.1395,0.9614,0.804,0.8412,0.9467,1.0814,1.2591,1.3336,1.3903,1.4609,1.4435,1.3998,1.3406,1.2792,1.2438,1.2574,1.2529,1.2355,1.1951,1.1762,1.1431,1.089,1.0743,1.0283,0.9279,0.744,0.6318,0.6205,0.5937,0.609,0.6721,0.7135,0.758,0.808,0.8362,0.8749,0.9252,0.9838,1.0078,0.9945,0.9627,0.97,1.1878,1.2639,1.2721,1.208,1.1403,1.0419,0.0,0.0,1.1932,1.1819,1.2464,1.3042,1.3042,1.1703,1.1207,1.2937,0.9901,0.7388,0.7388,0.8977,1.0065,0.9933,0.8192,0.526,0.0849,-0.1787,-0.3416,-0.3943,-0.1495,-0.0,-0.0,-0.0,0.0168,0.0504,0.0504,0.0504,0.0504,0.0837,0.0837,0.056,0.3233,0.4517,0.4406,0.173,0.0504,0.0504,0.0504,0.0504,0.0504,0.0504,0.2076,0.4524,0.4524,0.4903,0.5434,0.5439,0.7236,0.999,1.2477,1.3291,1.3291,1.3291,1.3291,1.3291,1.3291,1.3291,1.2783,1.0348,0.9454,0.8666,0.6122,0.5214,0.5378,0.7063,0.8105,0.8973,0.9892,1.1393,1.2474,1.2134,1.1972,1.1743,1.1219,1.0647,1.0869,1.2655,1.2642,1.2407,1.2329,1.1616,1.089,1.0335,0.9928,0.9235,0.8156,0.6669,0.5801,0.5785,0.534,0.5529,0.6486,0.6923,0.7539,0.8441,0.847,0.8662,0.9042,0.9125,0.8868,0.8347,0.8369,0.8426,1.2265,1.2415,1.1862,0.0,1.0451,0.9671,1.0734,1.1822,1.2275,1.1158,1.1228,1.1499,1.1499,0.9812,0.8626,0.0,0.8115,0.655,0.5219,0.8074,0.8829,0.4783,0.2254,0.0044,-0.1918,-0.3305,-0.4247,-0.4498,-0.3343,-0.2621,-0.2621,-0.2621,-0.2621,-0.2621,-0.2621,-0.1786,-0.0,-0.0,-0.0,-0.0,0.1285,0.1897,0.1842,0.056,-0.095,-0.2621,-0.2621,-0.2621,-0.2621,-0.2621,-0.0837,0.1854,0.1854,0.1854,0.1909,0.19,0.3772,0.646,0.7638,0.7992,0.8312,0.9993,0.9393,0.7992,0.7992,0.7992,0.779,0.6617,0.628,0.6034,0.4831,0.4477,0.4721,0.5462,0.6579,0.7474,0.7801,0.8497,0.9427,1.0872,1.1724,1.166,0.9891,0.9369,0.9478,1.0387,1.0879,1.1074,1.0742,1.0234,0.9609,0.8863,0.8026,0.7338,0.6897,0.5669,0.5027,0.523,0.4719,0.4788,0.5606,0.5777,0.6164,0.6796,0.7067,0.7158,0.7037,0.7204,0.7402,0.7568,0.7508,0.7498,1.1559,1.1449,0.0,1.055,0.9858,0.9771,1.1834,1.276,1.2644,1.0687,0.9829,0.9381,0.9381,0.808,0.6807,0.6164,0.6079,0.5242,0.2937,0.5412,0.5346,-0.0315,-0.2549,-0.3583,-0.3593,-0.417,-0.4517,-0.4517,-0.4517,-0.4517,-0.4517,-0.4517,-0.4517,-0.4517,-0.4517,-0.3456,-0.1285,-0.1229,-0.0839,-0.0,-0.0,-0.0,-0.0056,-0.0839,-0.2453,-0.4517,-0.4517,-0.4517,-0.4517,-0.4517,-0.3233,-0.1229,-0.1229,-0.1229,-0.1229,-0.1229,0.0668,0.3233,0.3233,0.3233,0.3727,0.6676,0.6199,0.4517,0.4517,0.3903,0.3233,0.3233,0.3251,0.327,0.3267,0.3242,0.3387,0.3779,0.4664,0.5374,0.5389,0.537,0.5981,0.8019,0.9495,0.981,0.7832,0.7153,0.6913,0.6903,0.8247,0.9243,0.912,0.8689,0.8224,0.7731,0.6727,0.6076,0.5891,0.5123,0.4746,0.4981,0.4295,0.4094,0.4609,0.4604,0.4912,0.5494,0.5847,0.5677,0.5027,0.5588,0.6166,0.6682,0.6241,0.5853,0.9465,0.0,1.0424,0.925,1.001,1.0827,1.0166,1.1645,1.2644,1.0687,0.861,0.7101,0.7101,0.7063,0.6292,0.4056,0.3711,0.2878,0.0437,0.0223,-0.0635,-0.3191,-0.3534,-0.3593,0.0,-0.4136,-0.4517,-0.4517,-0.4517,-0.4517,-0.4517,-0.4517,-0.4517,-0.4517,-0.4517,-0.4462,-0.4349,-0.4349,-0.2899,-0.0,-0.0,-0.0,-0.0112,-0.301,-0.4406,-0.4517,-0.4517,-0.4517,-0.4517,-0.4517,-0.446,-0.4349,-0.4349,-0.4349,-0.4349,-0.4349,-0.2452,0.0112,0.0112,0.0112,0.0615,0.3677,0.4572,0.4517,0.4517,0.2453,0.0112,0.0112,0.0112,0.0112,0.0112,0.0112,0.0502,0.1952,0.2286,0.2341,0.234,0.2326,0.2367,0.2423,0.3646,0.4606,0.4549,0.3368,0.2422,0.2422,0.4848,0.7014,0.7919,0.7224,0.6817,0.7257,0.6652,0.5943,0.537,0.5271,0.5267,0.5303,0.4218,0.3622,0.3637,0.3637,0.4168,0.5287,0.5331,0.4733,0.3554,0.4739,0.5317,0.5345,0.4148,0.3002,0.984,0.0,0.9055,0.9616,1.0114,1.0377,1.0201,0.9613,0.89,0.8232,0.7509,0.655,0.5005,0.599,0.6249,0.397,0.2247,0.0902,0.0111,-0.0,-0.0906,-0.3312,-0.3939,0.0,0.0,0.0,0.0,-0.4517,-0.6253,-0.6794,-0.549,-0.5435,-0.5167,-0.4517,-0.4517,-0.4517,-0.4517,-0.4517,-0.4015,-0.2955,-0.095,-0.1062,-0.301,-0.4015,-0.4517,-0.4517,-0.4517,-0.4517,-0.4517,-0.4517,-0.4517,-0.4517,-0.4517,-0.4517,-0.4517,-0.4517,-0.3847,-0.2676,-0.0671,-0.0,0.0168,0.1173,0.1508,0.1508,0.1508,0.0783,-0.0,-0.0,-0.0,-0.0,-0.0,-0.0,0.0112,0.0615,0.0727,0.0727,0.0727,0.0726,0.0724,0.0724,0.1115,0.1506,0.1506,0.1897,0.2852,0.4836,0.5977,0.6689,0.7019,0.6802,0.6524,0.6326,0.4513,0.3194,0.2997,0.2996,0.2979,0.2979,0.2632,0.2412,0.2406,0.2406,0.2584,0.2984,0.3764,0.3581,0.2355,0.1956,0.1779,0.1781,0.1189,0.028,0.8834,0.8156,0.7292,0.8696,0.8557,0.7828,0.6829,0.6205,0.5779,0.5779,0.5779,0.5348,0.3884,0.479,0.5034,0.2677,0.1025,-0.0371,-0.1442,-0.162,-0.2164,-0.3722,-0.4245,-0.4517,0.0,0.0,0.0,-0.5226,-0.6794,-0.7388,-0.6468,-0.6029,-0.5487,-0.4895,-0.4625,-0.4517,-0.4517,-0.4517,-0.4517,-0.4462,-0.2509,-0.2621,-0.4517,-0.4517,-0.4517,-0.4517,-0.4517,-0.4517,-0.4517,-0.4517,-0.4517,-0.4517,-0.4517,-0.4517,-0.4517,-0.4517,-0.4517,-0.407,-0.1062,-0.0,-0.0,-0.0,-0.0,-0.0,-0.0,-0.0,-0.0,-0.0,-0.0785,-0.1345,-0.028,-0.0,-0.0,-0.0,-0.0,-0.0,-0.0,-0.0,-0.0,-0.0,-0.0,-0.0,-0.0,0.0785,0.1683,0.2522,0.2608,0.3229,0.4801,0.5032,0.512,0.5288,0.3791,0.2312,0.1232,0.1141,0.1165,0.1163,0.1136,0.1167,0.1169,0.1152,0.1144,0.1144,0.1927,0.1914,0.1162,-0.0691,-0.1626,-0.1601,-0.1666,-0.2149,0.6482,0.5747,0.5136,0.6364,0.5453,0.3531,0.0671,0.1761,0.3401,0.3401,0.3421,0.3401,0.3401,0.0,0.2647,0.0354,-0.0135,-0.1242,-0.4107,-0.4517,-0.4517,0.0,0.0,0.0,0.0,0.0,0.0,-0.6423,0.0,-0.6357,-0.7295,-0.6197,-0.554,-0.554,-0.4895,-0.4517,-0.4517,-0.4517,-0.4517,-0.4517,-0.4517,-0.4517,-0.4517,-0.4517,-0.4517,-0.4517,-0.4517,-0.4517,-0.4517,-0.4517,-0.4517,-0.4517,-0.4517,-0.4517,-0.4517,-0.4517,-0.4517,-0.407,-0.1062,-0.0,-0.0,-0.0,-0.0,-0.0,-0.0,-0.0,-0.0,-0.0,-0.2188,-0.3829,-0.0953,-0.0112,-0.0,-0.0,-0.0,-0.0,-0.0,-0.0,-0.0,-0.0,-0.0,-0.0,-0.0,-0.0112,-0.1177,-0.4056,-0.4514,-0.2914,0.1393,0.2063,0.2627,0.411,0.4272,0.3104,0.0267,-0.0,-0.0,-0.0,-0.0,-0.005,-0.0202,-0.0244,-0.0192,-0.0096,-0.0096,-0.0094,-0.0136,-0.2988,-0.4407,-0.45,-0.4152,-0.4191,0.5596,0.3545,0.1402,0.1724,0.149,0.0948,0.0165,0.0496,0.0896,0.0896,0.0927,0.0909,0.0909,0.0909,0.0,0.0109,-0.1873,0.0,-0.4385,-0.4517,0.0,-0.4517,0.0,-0.4517,-0.4517,-0.4517,0.0,0.0,-0.6527,-0.6966,-0.6807,-0.6475,-0.6312,-0.6312,-0.5117,-0.4517,-0.4517,-0.4517,-0.4517,-0.4517,-0.4517,-0.4517,-0.4517,-0.4517,-0.4517,-0.4517,-0.4517,-0.4517,-0.4517,-0.4517,-0.4517,-0.4517,-0.4517,-0.4517,-0.4517,-0.4517,-0.4517,-0.407,-0.1062,-0.0,-0.0,-0.0,-0.0,-0.0,-0.0,-0.0,-0.0,-0.0,-0.2188,-0.4345,-0.3552,-0.1681,-0.0,-0.0,-0.0,-0.0,-0.0,-0.0,-0.0,-0.0,-0.0,-0.0,-0.0,-0.1851,-0.36,-0.4399,-0.4507,-0.3644,-0.1392,-0.0111,0.0726,0.1118,0.1167,0.083,0.0055,-0.0,-0.0,-0.0,-0.0,-0.1009,-0.325,-0.3372,-0.2796,-0.1639,-0.1639,-0.163,-0.1664,-0.2399,-0.3318,-0.4297,-0.4344,-0.4327,0.3167,0.1523,-0.0,-0.0,-0.0,-0.0,-0.0,-0.0,-0.0,-0.0,-0.0,-0.0,-0.0,-0.0,0.0,0.0,0.0,0.0,-0.4517,-0.4517,-0.4517,0.0,-0.4517,0.0,-0.4517,-0.4517,-0.4679,0.0,-0.5982,-0.6581,-0.6588,-0.6312,-0.6093,-0.6093,-0.5062,-0.4625,-0.495,-0.4625,-0.4517,-0.4517,-0.4517,-0.4517,-0.4517,-0.4517,-0.4517,-0.4572,0.0,-0.6362,-0.6362,-0.6362,-0.5658,-0.4517,-0.4517,-0.4517,-0.4517,-0.4517,-0.4473,-0.4095,-0.1064,-0.0,-0.0,-0.0,-0.0,-0.0,-0.0,-0.0,-0.0,-0.0,-0.1232,-0.2805,-0.4177,-0.326,-0.1623,-0.0336,-0.0,-0.0,-0.0,-0.0,-0.0,-0.0,-0.0,-0.0448,-0.1738,-0.3373,-0.4511,-0.4501,-0.4494,-0.4201,-0.3346,-0.2512,-0.1731,-0.106,-0.0391,-0.0,-0.0,-0.0,-0.0,-0.0,-0.1229,-0.2118,-0.2494,-0.3773,-0.4105,-0.3208,-0.3204,-0.323,-0.3232,-0.3226,-0.3616,-0.4346,-0.4441,-0.4454,0.0543,-0.0,-0.0,-0.0,-0.0,-0.0,-0.0,-0.0,-0.0,-0.0,0.0,-0.0,-0.0,-0.0,-0.0086,-0.0299,0.0,-0.4428,-0.4506,-0.4517,-0.4517,-0.4517,-0.4517,-0.4517,-0.4517,-0.4517,-0.4517,-0.4517,-0.5058,-0.5708,-0.6421,-0.5871,-0.5485,-0.5485,-0.5003,-0.5003,-0.554,-0.506,-0.4682,-0.4517,-0.4899,-0.506,-0.506,-0.506,-0.506,-0.5224,-0.7717,0.0,-0.8755,-0.8371,-0.674,-0.4517,-0.4517,-0.4517,-0.4517,-0.4517,-0.4262,-0.3554,-0.0897,-0.0,-0.0,-0.0,-0.0,-0.0,-0.0,-0.0,-0.0,-0.0,-0.0,-0.0615,-0.3201,-0.4227,-0.3715,-0.0729,-0.0,-0.0,-0.0,-0.0,-0.0,-0.0,-0.0,-0.0841,-0.343,-0.4228,-0.4507,-0.4484,-0.448,-0.4475,-0.4519,-0.448,-0.3981,-0.2623,-0.1339,-0.0503,-0.0335,-0.028,-0.028,-0.028,-0.2581,-0.2919,-0.0672,-0.2721,-0.4083,-0.4478,-0.452,-0.4503,-0.4479,-0.4523,-0.452,-0.4501,-0.4515,-0.4517,0.0778,-0.0,-0.0,-0.0,-0.0,-0.0,-0.0,-0.0,0.0,0.0,-0.0,-0.0,-0.0,-0.0,-0.0484,-0.2008,0.0,0.0,0.0,0.0,-0.4517,0.0,0.0,0.0,0.0,0.0,0.0,0.0,0.0,-0.495,-0.5653,-0.5597,-0.5485,-0.5485,-0.5984,-0.6093,-0.5812,-0.6093,-0.5664,-0.4517,-0.6904,-0.8043,-0.8043,-0.8043,-0.8043,-0.8096,-0.859,0.0,-0.859,-0.6253,-0.4952,-0.4517,-0.4517,-0.4517,-0.4517,-0.4517,-0.2902,-0.0729,-0.0168,-0.0,-0.0,-0.0,-0.0,-0.0,-0.0,-0.0,-0.0,-0.0,-0.0,-0.0112,-0.0672,-0.2638,-0.3715,-0.0729,-0.0,-0.0,-0.0,-0.0,-0.0,-0.0,-0.0,-0.0168,-0.0673,-0.2865,-0.4509,-0.4496,-0.4485,-0.4475,-0.4519,-0.4473,-0.4425,-0.4139,-0.3865,-0.319,-0.1953,-0.1841,-0.1841,-0.1841,-0.1173,-0.1677,-0.3646,-0.1833,-0.1936,-0.4445,-0.45,-0.4482,-0.4502,-0.4496,-0.4506,-0.4482,-0.4505,-0.4517,0.0388,-0.0,-0.0,-0.0,-0.0,-0.0,-0.0,0.0,0.0,0.0,-0.0,-0.0,-0.0,-0.0,0.0,0.0,0.0,0.0,0.0,0.0,0.0,0.0,0.0,0.0,0.0,0.0,0.0,0.0,0.0,-0.4625,-0.4948,-0.5326,-0.5485,-0.5485,-0.6581,-0.7017,-0.6686,-0.7393,-0.7396,-0.674,-0.8153,-0.8808,-0.8808,-0.8808,-0.8808,-0.8808,-0.8808,0.0,-0.647,-0.506,-0.4517,-0.4517,-0.4517,-0.4517,-0.4517,-0.4517,-0.3568,-0.212,-0.056,-0.0,-0.0,-0.0,-0.0,-0.0,-0.0,-0.0,-0.0,-0.0,-0.1122,-0.2359,-0.2346,-0.2237,-0.1794,-0.0336,-0.0,-0.0448,-0.202,-0.2356,-0.213,-0.1286,-0.1118,-0.1396,-0.2179,-0.353,-0.4492,-0.448,-0.4473,-0.4524,-0.4517,-0.4522,-0.4525,-0.4525,-0.448,-0.4201,-0.3463,-0.3411,-0.3413,-0.3413,-0.2739,-0.2292,-0.2179,-0.1785,-0.2117,-0.3294,-0.4076,-0.4522,-0.4517,-0.4517,-0.4517,-0.4517,-0.4517,-0.4517,-0.0,-0.0,-0.0,-0.0,-0.0,-0.0,-0.0,0.1093,0.0,0.0,-0.0,-0.0,-0.0,0.0,-0.0,0.0,-0.0,0.0,0.0,0.0,0.0,0.0,0.0,0.0,0.0,0.0,0.0,0.0,0.0,0.0,-0.4517,-0.5109,-0.5597,-0.5706,-0.7012,-0.7723,-0.7726,-0.8431,-0.8808,-0.8808,-0.8808,-0.8808,-0.8808,-0.8808,-0.848,-0.788,-0.788,0.0,0.0,-0.4517,-0.4517,-0.4517,-0.4517,-0.4517,-0.4517,-0.4517,-0.4517,-0.4182,-0.1786,-0.056,-0.0,-0.0,-0.0,-0.0,-0.0,-0.0448,-0.0951,-0.0952,-0.2695,-0.4509,-0.4525,-0.2734,-0.0896,-0.056,-0.0448,-0.1119,-0.3483,-0.4281,-0.4161,-0.2906,-0.2681,-0.3072,-0.4312,-0.4482,-0.4479,-0.4522,-0.452,-0.452,-0.4517,-0.4517,-0.4517,-0.4517,-0.4525,-0.4475,-0.4475,-0.4484,-0.449,-0.449,-0.4492,-0.3357,-0.0725,-0.2061,-0.2787,-0.2679,-0.3906,-0.4519,-0.4517,-0.4517,-0.4517,-0.4517,-0.4517,-0.4517,-0.0,-0.0,-0.0,-0.0,-0.0,-0.0,-0.0,0.0,0.0209,0.0045,-0.0,-0.0,-0.0,-0.0,-0.0,-0.0,0.0,-0.0,0.0,0.0,0.0,0.0,0.0,0.0,0.0,0.0,0.0,0.0,0.0,0.0,-0.4517,-0.5109,-0.5814,-0.6477,-0.7289,-0.7996,-0.8646,-0.8752,-0.8808,-0.8808,-0.8808,-0.8808,-0.8808,-0.8808,-0.7393,-0.4899,-0.4899,0.0,0.0,-0.4517,-0.4517,-0.4517,-0.4517,-0.4517,-0.4517,-0.4517,-0.4517,-0.4462,-0.4182,-0.2287,-0.0,-0.0,-0.0,-0.0,-0.0,-0.1898,-0.4073,-0.4092,-0.4312,-0.4522,-0.4519,-0.4309,-0.3756,-0.2345,-0.2008,-0.2065,-0.2344,-0.3528,-0.4442,-0.4324,-0.4268,-0.4325,-0.4494,-0.4496,-0.4492,-0.4479,-0.4477,-0.4473,-0.4519,-0.4517,-0.4517,-0.4517,-0.4519,-0.4519,-0.4519,-0.4519,-0.452,-0.452,-0.4475,-0.3967,-0.2783,-0.2452,-0.2902,-0.4252,-0.4421,-0.4472,-0.4517,-0.4517,-0.4517,-0.4517,-0.4517,-0.4517,-0.0,-0.0,-0.0,-0.0,-0.0,-0.0,-0.0,0.0,-0.0,-0.0,-0.0,-0.0,-0.0,-0.0,-0.0,-0.0,0.0,0.0,-0.0,0.0,0.0,0.0,0.0,0.0,0.0,0.0,0.0,0.0,0.0,0.0,-0.4517,-0.5109,-0.5817,-0.6586,-0.7289,-0.8046,-0.8808,-0.8808,-0.8808,-0.8808,-0.8808,-0.8321,-0.7453,-0.6581,-0.5603,-0.4517,-0.4517,0.0,0.0,-0.4517,-0.4517,-0.4517,-0.4517,-0.4517,-0.4517,-0.4517,-0.4517,-0.4517,-0.4517,-0.3735,-0.2399,-0.0616,-0.0,-0.0336,-0.2176,-0.3566,-0.4519,-0.4472,-0.4524,-0.4517,-0.4517,-0.4524,-0.4364,-0.3751,-0.3584,-0.3583,-0.3577,-0.4086,-0.4484,-0.4477,-0.4475,-0.4475,-0.4475,-0.4475,-0.4473,-0.4524,-0.4524,-0.4522,-0.4517,-0.4517,-0.4517,-0.4517,-0.4517,-0.4517,-0.4517,-0.4517,-0.4517,-0.4517,-0.4472,-0.4307,-0.391,-0.3687,-0.3858,-0.4479,-0.4472,-0.4522,-0.4517,-0.4517,-0.4517,-0.4517,-0.4517,-0.4517,-0.0,-0.0,-0.0,-0.0,-0.0,-0.0,0.0,-0.0,-0.0,-0.0,-0.0,-0.0,-0.0,-0.0,-0.0,-0.0,0.0,-0.0,-0.0,0.0,0.0,0.0,0.0,0.0,0.0,0.0,0.0,0.0,0.0,0.0,0.0,-0.4952,-0.5655,-0.6588,-0.7128,-0.783,-0.8808,-0.8808,-0.8808,-0.8808,-0.8808,-0.8103,-0.6804,-0.5496,-0.4787,-0.4517,-0.4517,0.0,0.0,-0.4517,-0.4517,-0.4517,-0.4517,-0.4517,-0.4517,-0.4517,-0.4517,-0.4349,-0.3456,-0.3177,-0.2843,-0.0671,-0.0616,-0.1681,-0.3426,-0.4198,-0.4472,-0.4524,-0.452,-0.4517,-0.4517,-0.4517,-0.452,-0.4482,-0.4485,-0.4484,-0.4475,-0.4473,-0.4472,-0.4519,-0.4517,-0.4517,-0.4517,-0.4517,-0.4517,-0.4517,-0.4517,-0.4517,-0.4517,-0.4517,-0.4517,-0.4517,-0.4517,-0.4517,-0.4517,-0.4517,-0.4517,-0.4517,-0.4524,-0.4473,-0.4473,-0.4473,-0.4473,-0.4473,-0.452,-0.4517,-0.4517,-0.4517,-0.4517,-0.4517,-0.4517,-0.4517,-0.0,-0.0,-0.0,-0.0,-0.0,-0.0,-0.0,-0.0,-0.0,-0.0,-0.0,-0.0,-0.0,-0.0,-0.0,-0.0,-0.0,0.0,-0.0,0.0,0.0,0.0,0.0,0.0,0.0,0.0,0.0,0.0,0.0,0.0,0.0,-0.4524,-0.5171,-0.6534,-0.6588,-0.7289,-0.8804,-0.8808,-0.8808,-0.8808,-0.8808,-0.8321,-0.7348,-0.6357,-0.5382,0.0,0.0,0.0,0.0,-0.4517,-0.4517,-0.4517,-0.4517,-0.4517,-0.4517,-0.4517,-0.4517,-0.407,-0.1062,-0.0056,-0.0056,-0.0,-0.2008,-0.4235,-0.3074,-0.3537,-0.4494,-0.4482,-0.4525,-0.4517,-0.4517,-0.4517,-0.4517,-0.4517,-0.4517,-0.4517,-0.4517,-0.4517,-0.4517,-0.4517,-0.4517,-0.4517,-0.4517,-0.4517,-0.4517,-0.4517,-0.4517,-0.4517,-0.4517,-0.4517,-0.4517,-0.4517,-0.4517,-0.4517,-0.4517,-0.4517,-0.4517,-0.4517,-0.4517,-0.4517,-0.4517,-0.4517,-0.4517,-0.4517,-0.4517,-0.4517,-0.4517,-0.4517,-0.4517,-0.4517,-0.4517,-0.4517,-0.0,-0.0,-0.0,-0.0,-0.0,-0.0,-0.0,0.0626,0.0987,0.018,-0.0,-0.0,-0.0,-0.0,-0.0,-0.0,-0.0,0.0,0.0,0.0,0.0,0.0,0.0,0.0,0.0,0.0,0.0,0.0,0.0,0.0,0.0,-0.5166,-0.5601,-0.6588,-0.6588,-0.7292,-0.8804,-0.8808,-0.8808,-0.8808,-0.8265,-0.7616,-0.6804,-0.598,-0.5218,0.0,0.0,0.0,0.0,-0.4517,-0.4517,-0.4517,-0.4517,-0.4517,-0.4517,-0.4517,-0.4472,-0.4089,-0.1064,-0.1347,-0.3095,-0.3085,-0.3704,-0.448,-0.4211,-0.4391,-0.467,-0.4635,-0.4546,-0.4517,-0.4517,-0.4517,-0.4517,-0.4517,-0.4517,-0.4517,-0.4517,-0.4517,-0.4517,-0.4517,-0.4517,-0.4517,-0.4517,-0.4517,-0.4517,-0.4517,-0.4517,-0.4517,-0.4517,-0.4517,-0.4517,-0.4517,-0.4517,-0.4517,-0.4517,-0.4517,-0.4517,-0.4517,-0.4517,-0.4517,-0.4517,-0.4517,-0.4517,-0.4517,-0.4517,-0.4517,-0.4517,-0.4517,-0.4517,-0.4517,-0.4517,-0.4517,-0.0,-0.0,-0.0,-0.0,-0.0,-0.0,-0.0,0.0593,0.1032,0.0742,0.0315,-0.0,-0.0,-0.0,0.0216,0.0918,0.1007,0.0787,0.0,0.0,0.0,0.0,0.0,0.0,0.0,0.0,0.0,0.0,0.0,0.0,0.0,-0.576,-0.6253,-0.6966,-0.702,-0.7613,-0.8804,-0.8808,-0.8646,-0.8371,-0.794,-0.7179,-0.6147,-0.5706,-0.5271,0.0,0.0,0.0,0.0,-0.4895,-0.4734,-0.4517,-0.4517,-0.4517,-0.4517,-0.4517,-0.4475,-0.4157,-0.1679,-0.2413,-0.4516,-0.4502,-0.4599,-0.48,-0.528,-0.5162,-0.4804,-0.4716,-0.4623,-0.4591,-0.4534,-0.4517,-0.4517,-0.4517,-0.4517,-0.4517,-0.4517,-0.4517,-0.4517,-0.4517,-0.4517,-0.4517,-0.4517,-0.4517,-0.4517,-0.4517,-0.4517,-0.4517,-0.4517,-0.4517,-0.4517,-0.4517,-0.4517,-0.4517,-0.4517,-0.4517,-0.4517,-0.4517,-0.4517,-0.4519,-0.4524,-0.4519,-0.4519,-0.4524,-0.4519,-0.4517,-0.4517,-0.4517,-0.4625,-0.4895,-0.4624,-0.4625,0.0,-0.0,-0.0,-0.0,-0.0,0.0022,0.0112,0.0135,0.0,0.1447,0.0833,0.0113,0.0182,0.0135,0.0634,0.2329,0.2681,0.0,0.0,0.0,0.0,0.0,0.0,0.0,0.0,0.0,0.0,0.0,0.0,0.0,0.0,-0.631,-0.702,-0.778,-0.7777,-0.8103,-0.8808,-0.8808,-0.8427,-0.7723,-0.7667,-0.6902,-0.5485,-0.5431,-0.5431,0.0,0.0,0.0,0.0,-0.5433,-0.5056,-0.4517,-0.4517,-0.4517,-0.4517,-0.4517,-0.4475,-0.4268,-0.2799,-0.3193,-0.4383,-0.4561,-0.4881,-0.5325,-0.6243,-0.5777,-0.4961,-0.4923,-0.4873,-0.4774,-0.4612,-0.4584,-0.4536,-0.452,-0.4527,-0.4532,-0.4519,-0.4517,-0.4517,-0.4517,-0.4517,-0.4517,-0.4517,-0.4517,-0.4517,-0.4517,-0.4517,-0.4517,-0.4517,-0.4517,-0.4517,-0.4517,-0.4517,-0.4517,-0.4517,-0.4517,-0.4517,-0.4517,-0.4517,-0.4522,-0.4477,-0.4522,-0.4522,-0.4588,-0.4632,-0.4625,-0.4625,-0.4625,-0.495,-0.5542,-0.4952,-0.5003,-0.0,0.0,-0.0,-0.0,-0.0,0.0247,0.0,0.1381,0.1205,0.0561,0.0,0.1149,0.1927,0.1471,0.1141,0.1561,0.2622,0.3069,0.0,0.0,0.0,0.0,0.0,0.0,0.0,0.0,0.0,0.0,0.0,0.0,0.0,-0.7343,-0.7777,-0.8537,-0.8537,-0.8646,-0.8808,-0.8808,-0.8427,-0.767,-0.713,-0.6362,-0.5487,-0.4948,-0.5003,0.0,0.0,0.0,-0.5485,-0.495,-0.4625,-0.4517,-0.4517,-0.4517,-0.4517,-0.4517,-0.4525,-0.4314,-0.3181,-0.279,-0.3084,-0.5286,-0.6058,-0.6241,-0.7118,-0.6784,-0.6158,-0.6566,-0.6382,-0.6021,-0.5661,-0.5131,-0.4711,-0.4555,-0.4551,-0.4604,-0.4543,-0.4517,-0.4517,-0.4517,-0.4517,-0.4517,-0.4517,-0.4517,-0.4517,-0.4517,-0.4517,-0.4517,-0.4517,-0.4517,-0.4517,-0.4517,-0.4517,-0.4517,-0.4517,-0.4517,-0.4517,-0.4517,-0.4517,-0.4519,-0.452,-0.4519,-0.4736,-0.5277,-0.5823,-0.6098,-0.6098,-0.6098,-0.6204,-0.6312,-0.6206,-0.6204,0.0826,0.0425,-0.0,-0.0,-0.0,0.0313,0.1514,0.0,0.0,0.0,0.0,0.136,0.2294,0.2178,0.195,0.1949,0.2628,0.0,0.0,0.0,0.0,0.0,0.0,0.0,0.0,0.0,0.0,0.0,0.0,0.0,0.0,-0.7506,-0.8049,-0.8755,-0.8808,-0.8808,-0.8808,-0.8808,-0.8427,-0.767,-0.7289,-0.6691,-0.5982,-0.5605,-0.5821,0.0,0.0,0.0,-0.5928,-0.5275,-0.4787,-0.4517,-0.4517,-0.4517,-0.4517,-0.4517,-0.4524,-0.4421,-0.3853,-0.3885,-0.4417,-0.5946,-0.6515,-0.6793,-0.786,-0.7716,-0.7098,-0.7099,-0.6933,-0.652,-0.5516,-0.5076,-0.4932,-0.4822,-0.4714,-0.4668,-0.4585,-0.4567,-0.4517,-0.4517,-0.4575,-0.4545,-0.4531,-0.4577,-0.4543,-0.4529,-0.4517,-0.4517,-0.4517,-0.4517,-0.4517,-0.4517,-0.4517,-0.4517,-0.4517,-0.4517,-0.4517,-0.4517,-0.4517,-0.4684,-0.5128,-0.5009,-0.5275,-0.5982,-0.6423,-0.6748,-0.7128,-0.6748,-0.675,-0.7074,-0.675,-0.6804,0.1804,0.1048,0.0295,0.0381,0.0349,0.0537,0.156,0.0,0.0,0.0,0.0,0.0,0.0,0.0,0.0,0.0,0.0,0.0,0.0,0.0,0.0,0.0,0.0,0.0,0.0,0.0,0.0,0.0,0.0,0.0,0.0,-0.7182,-0.7883,-0.859,-0.8646,-0.8699,-0.8808,-0.8808,-0.8427,-0.7723,-0.7723,-0.7292,-0.6588,-0.6588,-0.702,-0.7667,0.0,0.0,-0.6532,-0.571,-0.5003,-0.4517,-0.4517,-0.4517,-0.4517,-0.4517,-0.4524,-0.4532,-0.4641,-0.5418,-0.6432,-0.6664,-0.6876,-0.733,-0.8642,-0.874,-0.823,-0.7586,-0.7489,-0.7282,-0.5605,-0.5135,-0.5171,-0.5171,-0.4947,-0.4775,-0.4716,-0.4575,-0.4532,-0.458,-0.4619,-0.4657,-0.455,-0.4621,-0.4646,-0.4572,-0.4553,-0.4553,-0.4553,-0.4572,-0.4589,-0.4589,-0.4589,-0.4643,-0.4752,-0.473,-0.4772,-0.4882,-0.4748,-0.5067,-0.5959,-0.588,-0.6143,-0.675,-0.6858,-0.7235,-0.7883,-0.7238,-0.7235,-0.7833,-0.7235,-0.7292,0.1804,0.167,0.1643,0.2172,0.1888,0.1582,0.1759,0.0,0.0,0.0,0.0,0.0,0.0,0.0,0.0,0.0,0.0,0.0,0.0,0.0,0.0,0.0,0.0,0.0,0.0,0.0,0.0,0.0,0.0,0.0,-0.6588,-0.6696,-0.7128,-0.783,-0.7883,-0.8156,-0.8808,-0.8808,-0.8427,-0.7723,-0.7723,-0.7292,-0.6588,-0.6588,-0.702,-0.7613,0.0,-0.6034,-0.6477,-0.5171,-0.457,-0.4517,-0.4517,-0.4517,-0.4517,-0.4517,-0.4519,-0.4574,-0.5167,-0.5617,-0.6156,-0.7742,-0.8374,-0.8704,-0.9945,-1.0298,-1.0158,-1.003,-1.0058,-0.9794,-0.8471,-0.673,-0.5382,-0.5382,-0.5351,-0.5229,-0.4884,-0.4656,-0.454,-0.4797,-0.4763,-0.4724,-0.4831,-0.476,-0.4682,-0.4658,-0.4655,-0.4655,-0.4655,-0.4769,-0.4848,-0.4848,-0.4848,-0.5142,-0.5901,-0.5702,-0.5899,-0.6638,-0.5854,-0.571,-0.6482,-0.7071,-0.7396,-0.7506,-0.8156,-0.8537,-0.8646,-0.8537,-0.8537,-0.8646,-0.8537,-0.8537,0.1804,0.2045,0.2362,0.2644,0.2256,0.1847,0.1991,0.0,0.0,0.0,0.0,0.0,0.0,0.0,0.0,0.0,0.0,0.0,0.0,0.0,0.0,0.0,0.0,0.0,0.0,0.0,0.0,0.0,0.0,0.0,-0.598,-0.5982,-0.6524,-0.767,-0.7723,-0.8046,-0.8808,-0.8808,-0.8646,-0.8318,-0.8318,-0.8103,-0.778,-0.778,-0.7996,-0.8209,0.0,-0.6635,-0.6534,-0.5494,-0.484,-0.4517,-0.4517,-0.4517,-0.4517,-0.4517,-0.4734,-0.5075,-0.5086,-0.5916,-0.7069,-0.8052,-0.9016,-0.9862,-1.0451,-0.9256,-0.8156,-1.0101,-1.0624,-1.0497,-0.9897,-0.8965,-0.7767,-0.5818,-0.5428,-0.5377,-0.5188,-0.4887,-0.4735,-0.4818,-0.4865,-0.488,-0.484,-0.4865,-0.4855,-0.4746,-0.473,-0.475,-0.4806,-0.4875,-0.4919,-0.4919,-0.5334,-0.5747,-0.6162,-0.6497,-0.6759,-0.6809,-0.6745,-0.6848,-0.7182,-0.7883,-0.8318,-0.8318,-0.8646,-0.8808,-0.8808,-0.8965,-0.9041,-0.9045,-0.9205,-0.9282,0.1804,0.2144,0.2501,0.2501,0.2176,0.1986,0.2331,0.0,0.0,0.0,0.0,0.0,0.0,0.0,0.0,0.0,0.0,0.0,0.0,0.0,0.0,0.0,0.0,0.0,0.0,0.0,0.0,0.0,0.0,0.0,-0.5706,-0.576,-0.6359,-0.767,-0.7723,-0.8046,-0.8808,-0.8808,-0.8808,-0.8808,-0.8808,-0.8808,-0.8808,-0.8808,-0.8699,-0.848,-0.7777,-0.702,-0.6312,-0.5546,-0.4948,-0.4519,-0.468,-0.4844,-0.5009,-0.5009,-0.5332,-0.5736,-0.5486,-0.6463,-0.7892,-0.8385,-0.9364,-1.0443,-1.0584,-0.8737,-0.699,-0.8868,-0.9387,-0.9387,-0.9387,-0.9387,-0.874,-0.6015,-0.5428,-0.5428,-0.5428,-0.5182,-0.4999,-0.498,-0.5032,-0.5001,-0.4979,-0.5092,-0.5142,-0.4987,-0.4903,-0.4835,-0.4938,-0.4994,-0.5083,-0.5326,-0.5932,-0.6389,-0.6632,-0.7654,-0.7977,-0.7378,-0.7848,-0.8178,-0.8178,-0.8731,-0.9011,-0.9011,-0.9011,-0.9011,-0.9011,-0.9235,-0.9342,-0.9349,-0.9576,-0.9683,0.1804,0.1835,0.187,0.187,0.2028,0.0,0.2891,0.2399,0.0,0.0,0.0,0.0,0.0,0.0,0.0,0.0,0.0,0.0,0.0,0.0,0.0,0.0,0.0,0.0,0.0,0.0,0.0,0.0,0.0,0.0,-0.6477,-0.6532,-0.6858,-0.767,-0.7723,-0.8046,-0.8808,-0.8808,-0.8808,-0.8808,-0.8808,-0.8808,-0.8808,-0.8808,-0.8427,-0.7723,-0.702,-0.6256,-0.5542,-0.4842,-0.4517,-0.457,-0.5164,-0.5819,-0.6426,-0.6426,-0.648,-0.6591,-0.7047,-0.7331,-0.7681,-0.9109,-0.9665,-0.985,-1.046,-1.0428,-0.9582,-0.6599,-0.5754,-0.5754,-0.5754,-0.5754,-0.5688,-0.5493,-0.5428,-0.5428,-0.5428,-0.5411,-0.5394,-0.5385,-0.5108,-0.5013,-0.5339,-0.5396,-0.5401,-0.5387,-0.5084,-0.4943,-0.5038,-0.5279,-0.5652,-0.6488,-0.6614,-0.7033,-0.7958,-0.9466,-1.0118,-0.9537,-0.9504,-0.9562,-0.9562,-0.9619,-0.9623,-0.9623,-0.9623,-0.9623,-0.9623,-0.9643,-0.9649,-0.9653,-0.9673,-0.9683,0.1804,0.1804,0.1804,0.1804,0.0,0.0,0.0,0.0,0.0,0.0,0.0,0.0,0.0,0.0,0.0,0.0,0.0,0.0,0.0,0.0,0.0,0.0,0.0,0.0,0.0,0.0,0.0,0.0,0.0,0.0,0.0,-0.6588,-0.6912,-0.767,-0.7723,-0.8046,-0.8808,-0.8808,-0.8808,-0.8808,-0.8808,-0.8808,-0.8804,-0.8318,-0.794,-0.767,-0.6912,-0.6202,-0.5542,-0.5712,-0.555,-0.522,-0.5928,-0.6367,-0.6588,-0.6588,-0.6912,-0.7289,-0.7348,-0.778,-0.8413,-0.9375,-0.9933,-1.0271,-1.0557,-0.9064,-0.7118,-0.5752,-0.699,-0.8153,-0.5949,-0.5428,-0.5428,-0.5428,-0.5428,-0.5428,-0.5428,-0.5428,-0.5428,-0.5428,-0.527,-0.523,-0.5408,-0.5428,-0.5428,-0.5428,-0.5265,-0.5208,-0.5308,-0.538,-0.5557,-0.5881,-0.6854,-0.8107,-0.9584,-1.0279,-1.0527,-1.0241,-0.9886,-0.974,-0.986,-0.9866,-0.9806,-0.9686,-0.9683,-0.9683,-0.9683,-0.9803,-0.9893,-0.9957,-1.0144,-1.0288,0.1804,0.1804,0.1852,0.0,0.0,0.0,0.0,0.0,0.0,0.0,0.0,0.0,0.0,0.0,0.0,0.0,0.0,0.0,0.0,0.0,0.0,0.0,0.0,0.0,0.0,0.0,0.0,0.0,0.0,0.0,0.0,-0.7289,-0.7506,-0.8046,-0.8049,-0.8265,-0.8808,-0.8808,-0.8808,-0.8808,-0.8808,-0.8808,-0.8804,-0.8265,-0.794,-0.767,-0.7184,-0.6527,-0.5871,-0.6367,-0.6421,-0.6249,-0.6745,-0.7227,-0.7596,-0.7393,-0.7768,-0.8299,-0.7937,-0.8265,-0.8874,-0.9275,-0.9679,-1.0007,-1.0007,-0.8621,-0.7055,-0.7055,-0.874,-1.0037,-0.7637,-0.6208,-0.5428,-0.5428,-0.5428,-0.5428,-0.5428,-0.5428,-0.5428,-0.5428,-0.5428,-0.5428,-0.5428,-0.5428,-0.5428,-0.5428,-0.5428,-0.5428,-0.5428,-0.6338,-0.6859,-0.6274,-0.7767,-0.9323,-1.0495,-1.0624,-1.0624,-1.0624,-1.0184,-1.002,-1.0154,-1.0164,-1.0097,-0.996,-0.996,-0.996,-0.996,-1.0097,-1.0194,-1.0261,-1.0464,-1.0624,0.1779,0.1781,0.1931,0.0,0.0,0.0,0.0,0.0,0.0,0.0,0.0,0.0,0.0,0.0,0.0,0.0,0.0,0.0,0.0,0.0,0.0,0.0,0.0,0.0,0.0,0.0,0.0,0.0,0.0,0.0,0.0,-0.8804,-0.8804,-0.8755,-0.8808,-0.8808,-0.8804,-0.8808,-0.8808,-0.8808,-0.8808,-0.8808,-0.8808,-0.8808,-0.8371,-0.7723,-0.767,-0.7292,-0.6588,-0.6588,-0.702,-0.7723,-0.7723,-0.856,-0.9714,-0.9061,-0.9211,-0.9714,-0.9005,-0.8808,-0.8808,-0.8808,-0.8808,-0.8808,-0.8808,-0.9623,-1.0604,-1.0604,-1.0604,-1.0604,-1.0604,-0.8011,-0.542,-0.5427,-0.5427,-0.5428,-0.5428,-0.5428,-0.5428,-0.5428,-0.5428,-0.5428,-0.5428,-0.5428,-0.5428,-0.5428,-0.5427,-0.5493,-0.5491,-0.8541,-0.997,-0.8221,-0.9582,-1.0624,-1.0624,-1.0624,-1.0624,-1.0624,-1.0624,-1.0624,-1.0624,-1.0624,-1.0624,-1.0624,-1.0624,-1.0624,-1.0624,-1.0624,-1.0624,-1.0624,-1.0624,-1.0624,0.0649,0.1144,0.0,0.0,0.0,0.0,0.0,0.0,0.0,0.0,0.0,0.0,0.0,0.0,0.0,0.0,0.0,0.0,0.0,0.0,0.0,0.0,0.0,0.0,0.0,0.0,0.0,0.0,0.0,0.0,0.0,-0.8046,-0.778,-0.7292,-0.8265,-0.8537,-0.8046,-0.8537,-0.8808,-0.8808,-0.8808,-0.8808,-0.8804,-0.8265,-0.7883,-0.767,-0.7128,-0.6802,-0.6642,-0.7182,-0.783,-0.848,-0.848,-0.8742,-0.9057,-0.8857,-0.891,-0.9061,-0.8857,-0.8808,-0.8808,-0.8808,-0.8808,-0.8808,-0.8808,-0.9051,-0.9325,-0.9325,-0.9325,-0.9325,-0.9325,-0.858,-0.801,-0.8831,-0.7183,-0.5428,-0.5428,-0.5428,-0.5428,-0.5428,-0.5428,-0.5428,-0.5428,-0.5428,-0.5428,-0.5428,-0.7507,-0.9853,-1.2145,-1.3356,-1.2911,-1.0151,-1.0298,-1.0624,-1.0624,-1.0624,-1.0624,-1.0624,-1.0624,-1.0624,-1.0624,-1.0624,-1.0624,-1.0624,-1.0624,-1.0624,-1.0624,-1.0624,-1.0624,-1.0624,-1.0624,-1.0624,0.0823,0.1317,0.0,0.0,0.0,0.0,0.0,0.0,0.0,0.0,0.0,0.0,0.0,0.0,0.0,0.0,0.0,0.0,0.0,0.0,0.0,0.0,0.0,0.0,0.0,0.0,0.0,0.0,0.0,0.0,0.0,-0.7399,-0.7074,-0.6588,-0.7723,-0.8156,-0.7723,-0.8427,-0.8808,-0.8808,-0.8808,-0.8808,-0.8804,-0.8321,-0.8156,-0.8103,-0.767,-0.7453,-0.7506,-0.794,-0.8374,-0.8808,-0.8808,-0.8959,-0.9162,-0.8906,-0.8959,-0.9159,-0.8906,-0.8808,-0.8808,-0.8808,-0.8808,-0.8808,-0.8808,-0.8808,-0.8808,-0.8808,-0.8808,-0.8808,-0.8808,-0.9155,-0.9683,-1.0456,-0.8997,-0.7442,-0.7442,-0.6406,-0.5818,-0.7183,-0.6338,-0.5428,-0.5428,-0.5428,-0.5883,-0.7249,-0.9256,-1.1776,-1.4986,-1.4259,-1.2749,-1.0807,-1.0624,-1.0624,-1.0624,-1.0624,-1.0624,-1.0624,-1.0624,-1.0624,-1.0624,-1.0624,-1.0624,-1.0624,-1.0624,-1.0624,-1.0624,-1.0624,-1.0624,-1.0624,-1.0624,-1.0624,0.1804,0.0,0.0,0.0,0.0,0.0,0.0,0.0,0.0,0.0,0.0,0.0,0.0,0.0,0.0,0.0,0.0,0.0,0.0,0.0,0.0,0.0,0.0,0.0,0.0,0.0,0.0,0.0,0.0,0.0,0.0,-0.691,-0.648,-0.6423,-0.7235,-0.767,-0.7616,-0.8374,-0.8808,-0.8808,-0.8808,-0.8808,-0.8808,-0.8808,-0.8808,-0.8808,-0.8808,-0.8808,-0.8808,-0.8808,-0.8808,-0.8808,-0.8808,-0.9159,-0.961,-0.9008,-0.9159,-0.9614,-0.9008,-0.8808,-0.8808,-0.8808,-0.8808,-0.8808,-0.8808,-0.8808,-0.8808,-0.8808,-0.8808,-0.8808,-0.8808,-0.9599,-1.0463,-1.0463,-1.0547,-1.0624,-1.0624,-0.8091,-0.6793,-0.9974,-0.8027,-0.5883,-0.5883,-0.5883,-0.6922,-1.0104,-1.0624,-1.1655,-1.4565,-1.2381,-1.0624,-1.0624,-1.0624,-1.0624,-1.0624,-1.0624,-1.0624,-1.0624,-1.0624,-1.0624,-1.0624,-1.0624,-1.0624,-1.0624,-1.0624,-1.0624,-1.0624,-1.0624,-1.0624,-1.0624,-1.0624,-1.0624,0.0,0.2002,0.0,0.0,0.0,0.0,0.0,0.0,0.0,0.0,0.0,0.0,0.0,0.0,0.0,0.0,0.0,0.0,0.0,0.0,0.0,0.0,0.0,0.0,0.0,0.0,0.0,0.0,0.0,0.0,-0.6858,-0.6145,-0.5492,-0.4954,-0.6745,-0.7399,-0.6856,-0.8156,-0.8808,0.0,-0.8808,-0.8808,-0.8808,-0.8808,-0.8808,-0.8808,-0.8808,-0.8808,-0.8808,-0.8808,-0.8808,-0.8808,-0.8808,-0.891,-0.9008,-0.8857,-0.8906,-0.9008,-0.8857,-0.8808,-0.8808,-0.8808,-0.8808,-0.8808,-0.8808,-0.8808,-0.8808,-0.8808,-0.8808,-0.8808,-0.8808,-0.8995,-0.9182,-0.9182,-0.989,-1.0624,-1.0624,-1.0037,-0.9713,-1.0428,-0.9974,-0.9454,-0.9454,-0.9454,-0.9713,-1.0495,-1.0624,-1.0867,-1.1534,-1.1048,-1.0624,-1.0624,-1.0624,-1.0624,-1.0624,-1.0624,-1.0624,-1.0624,-1.0624,-1.0624,-1.0624,-1.0624,-1.0624,-1.0624,-1.0624,-1.0624,-1.0624,-1.0624,-1.0624,-1.0624,-1.0624,-1.0624,0.0,0.0,0.0,0.0,0.0,0.0,0.0,0.0,0.0,0.0,0.0,0.0,0.0,0.0,0.0,0.0,0.0,0.0,0.0,0.0,0.0,0.0,0.0,0.0,0.0,0.0,0.0,0.0,0.0,-0.6093,-0.6093,-0.5382,-0.484,-0.4519,-0.6258,-0.6966,-0.6588,-0.8046,-0.8808,-0.8808,-0.8808,-0.8808,-0.8808,-0.8808,-0.8808,-0.8808,-0.8808,-0.8808,-0.8808,-0.8808,-0.8808,-0.8808,-0.8808,-0.8808,-0.8808,-0.8808,-0.8808,-0.8808,-0.8808,-0.8808,-0.8808,-0.8808,-0.8808,-0.8808,-0.8808,-0.8808,-0.8808,-0.8808,-0.8808,-0.8808,-0.8808,-0.8808,-0.8948,-0.9512,-1.0114,-1.0624,-1.0624,-1.0624,-1.0624,-1.0624,-1.0624,-1.0624,-1.0624,-1.0624,-1.0624,-1.0624,-1.0624,-1.0624,-1.0624,-1.0624,-1.0624,-1.0624,-1.0624,-1.0624,-1.0624,-1.0624,-1.0624,-1.0624,-1.0624,-1.0624,-1.0624,-1.0624,-1.0624,-1.0624,-1.0624,-1.0624,-1.0624,-1.0624,-1.0624,-1.0624,-1.0624,-1.0624,0.0,0.0,0.0,0.0,0.0,0.0,0.0,0.0,0.0,0.0,0.0,0.0,0.0,0.0,0.0,0.0,0.0,0.0,0.0,0.0,0.0,0.0,0.0,0.0,0.0,0.0,0.0,0.0,0.0,-0.5485,-0.5485,-0.484,-0.457,-0.4679,-0.5934,-0.6642,-0.6804,-0.8103,-0.8808,-0.8808,-0.8808,-0.8808,-0.8808,-0.8808,-0.8808,-0.8808,-0.8808,-0.8808,-0.8808,-0.8808,-0.8808,-0.8808,-0.8808,-0.8808,-0.8808,-0.8808,-0.8808,-0.8808,-0.8808,-0.8808,-0.8808,-0.8808,-0.8808,-0.8808,-0.8808,-0.8808,-0.8808,-0.8808,-0.8808,-0.8808,-0.8808,-0.8958,-0.9355,-1.0331,-1.0624,-1.0624,-1.0624,-1.0624,-1.0624,-1.0624,-1.0624,-1.0624,-1.0624,-1.0624,-1.0624,-1.0624,-1.0624,-1.0624,-1.0624,-1.0624,-1.0624,-1.0624,-1.0624,-1.0624,-1.0624,-1.0624,-1.0624,-1.0624,-1.0624,-1.0624,-1.0624,-1.0624,-1.0624,-1.0624,-1.0624,-1.0624,-1.0624,-1.0624,-1.0624,-1.0624,-1.0624,-1.0624,0.0,0.0,0.0,0.0,0.0,0.0,0.0,0.0,0.0,0.0,0.0,0.0,0.0,0.0,0.0,0.0,0.0,0.0,0.0,0.0,0.0,0.0,0.0,0.0,0.0,0.0,0.0,0.0,-0.5485,-0.5485,-0.5485,-0.484,-0.4787,-0.5326,-0.6147,-0.6912,-0.756,-0.8371,-0.8808,-0.8808,-0.8808,-0.8808,-0.8808,-0.8808,-0.8808,-0.8808,-0.8808,-0.8808,-0.8808,-0.8808,-0.8808,-0.8808,-0.8808,-0.8808,-0.8808,-0.8808,-0.8808,-0.8808,-0.8808,-0.8808,-0.8808,-0.8808,-0.8808,-0.8808,-0.8808,-0.8808,-0.8808,-0.8808,-0.8808,-0.8808,-0.8808,-0.9563,-1.043,-1.0588,-1.0624,-1.0624,-1.0624,-1.0624,-1.0624,-1.0624,-1.0624,-1.0624,-1.0624,-1.0624,-1.0624,-1.0624,-1.0624,-1.0624,-1.0624,-1.0624,-1.0624,-1.0624,-1.0624,-1.0624,-1.0624,-1.0624,-1.0624,-1.0624,-1.0624,-1.0624,-1.0624,-1.0624,-1.0624,-1.0624,-1.0624,-1.0624,-1.0624,-1.0624,-1.0624,-1.0624,-1.0624,-1.0624,0.3193,0.0,0.0,0.0,0.0,0.0,0.0,0.0,0.0,0.0,0.0,0.0,0.0,0.0,0.0,0.0,0.0,0.0,0.0,0.0,0.0,0.0,0.0,0.0,0.0,0.0,0.0,0.0,-0.4811,-0.48,-0.4942,-0.5003,-0.5218,-0.5485,-0.6632,-0.7399,-0.7723,-0.8427,-0.8808,-0.8808,-0.8808,-0.8808,-0.8808,-0.8808,-0.8808,-0.8808,-0.8808,-0.8808,-0.8808,-0.8808,-0.8808,-0.8808,-0.8808,-0.8808,-0.8808,-0.8808,-0.8808,-0.8808,-0.8808,-0.8808,-0.8808,-0.8808,-0.9829,-1.1099,-1.1099,-1.0028,-0.9113,-1.0639,-1.1099,-1.074,-0.9215,-0.9679,-1.0624,-1.0624,-1.0624,-1.0624,-1.0624,-1.0624,-1.0624,-1.0624,-1.0624,-1.0624,-1.0624,-1.0624,-1.0624,-1.0624,-1.0624,-1.0624,-1.0624,-1.0624,-1.0624,-1.0624,-1.0624,-1.0624,-1.0624,-1.0624,-1.0624,-1.0624,-1.0624,-1.0624,-1.0624,-1.0624,-1.0624,-1.0624,-1.0624,-1.0624,-1.0624,-1.0624,-1.0624,-1.0624,-1.0624,-1.0624,0.0,0.0,0.0,0.0,0.0,0.0,0.0,0.0,0.0,0.0,0.0,0.0,0.0,0.0,0.0,0.0,0.0,0.0,0.0,0.0,0.0,0.0,0.0,0.0,0.0,0.0,0.0,0.0,-0.4251,-0.4288,-0.4609,-0.5131,-0.5582,-0.5956,-0.709,-0.778,-0.7993,-0.8533,-0.8808,-0.8808,-0.8808,-0.8808,-0.8808,-0.8808,-0.8808,-0.8808,-0.8808,-0.8808,-0.8808,-0.8808,-0.8808,-0.8808,-0.8808,-0.8808,-0.8857,-0.9159,-0.911,-0.8808,-0.8808,-0.8808,-0.891,-0.9621,-1.074,-1.1859,-1.1859,-1.0893,-1.0285,-1.2318,-1.2417,-1.1401,-0.9316,-0.9679,-1.0624,-1.0624,-1.0624,-1.0624,-1.0624,-1.0624,-1.0624,-1.0624,-1.0624,-1.0624,-1.0624,-1.0624,-1.0624,-1.0624,-1.0624,-1.0624,-1.0624,-1.0624,-1.0624,-1.0624,-1.0624,-1.0624,-1.0624,-1.0624,-1.0624,-1.0624,-1.0624,-1.0624,-1.0624,-1.0624,-1.0624,-1.0624,-1.0624,-1.0624,-1.0624,-1.0624,-1.0624,-1.0624,-1.0624,-1.0624,0.0,0.0,0.0,0.0,0.0,0.0,0.0,0.0,0.0,0.0,0.0,0.0,0.0,0.0,0.0,0.0,0.0,0.0,0.0,0.0,0.0,0.0,0.0,0.0,0.0,0.0,0.0,0.0,-0.4036,-0.4282,-0.4836,-0.5146,-0.5913,-0.7155,-0.7541,-0.8049,-0.8755,-0.8755,-0.8808,-0.8808,-0.8808,-0.8808,-0.8808,-0.8808,-0.8808,-0.8808,-0.8808,-0.8808,-0.8808,-0.8808,-0.8808,-0.8808,-0.8808,-0.8808,-0.8959,-1.0218,-0.9913,-0.8808,-0.8808,-0.8808,-0.9215,-1.1859,-1.0994,-0.9012,-0.9012,-1.074,-1.273,-1.2881,-1.0994,-0.8962,-0.8857,-0.9679,-1.0624,-1.0624,-1.0624,-1.0624,-1.0624,-1.0624,-1.0624,-1.0624,-1.0624,-1.0624,-1.0624,-1.0624,-1.0624,-1.0624,-1.0624,-1.0624,-1.0624,-1.0624,-1.0624,-1.0624,-1.0624,-1.0624,-1.0624,-1.0624,-1.0624,-1.0624,-1.0624,-1.0624,-1.0624,-1.0624,-1.0624,-1.0624,-1.0624,-1.0624,-1.0624,-1.0624,-1.0624,-1.0624,-1.0624,-1.0624,0.0,0.0,0.0,0.0,0.0,0.0,0.0,0.0,0.0,0.0,0.0,0.0,0.0,0.0,0.0,0.0,0.0,0.0,0.0,0.0,0.0,0.0,0.0,0.0,0.0,0.0,0.0,0.0,0.0,-0.4728,-0.5427,-0.5992,-0.6479,-0.6976,-0.7527,-0.827,-0.9163,-0.9364,-0.9662,-1.0064,-0.9666,-0.9465,-0.9413,-0.9008,-0.9061,-0.9465,-0.9465,-0.9211,-0.8857,-0.926,-0.9211,-0.8808,-0.8808,-0.8808,-0.8857,-0.9361,-1.0332,-1.1451,-1.1451,-1.1451,-1.1606,-1.2573,-1.2215,-1.1451,-1.1451,-1.2112,-1.2881,-1.2881,-1.0897,-0.8808,-0.8808,-0.9122,-0.9626,-1.0443,-1.0624,-1.0624,-1.0624,-1.0624,-1.0624,-1.0624,-1.0624,-1.0624,-1.0624,-1.0624,-1.1292,-1.3352,-1.3653,-1.3653,-1.3653,-1.3653,-1.2866,-1.0804,-1.0624,-1.0624,-1.0624,-1.0624,-1.0624,-1.0624,-1.0624,-1.0624,-1.0624,-1.0624,-1.0624,-1.0624,-1.0624,-1.0624,-1.0624,-1.0624,-1.0624,-1.0624,-1.0624,-1.0624,0.1747,0.0,0.0,0.0,0.0,0.0,0.0,0.0,0.0,0.0,0.0,0.0,0.0,0.0,0.0,0.0,0.0,0.0,0.0,0.0,0.0,0.0,0.0,0.0,0.0,0.0,0.0,0.0,0.0,0.0,-0.5878,-0.6426,-0.6845,-0.7176,-0.7955,-0.8737,-0.9381,-0.9903,-1.0265,-1.0466,-1.0012,-0.9662,-0.9462,-0.926,-0.9361,-0.9814,-1.0265,-1.0115,-0.9514,-0.9965,-0.9814,-0.926,-0.8906,-0.8808,-0.891,-0.9825,-1.1351,-1.2881,-1.2881,-1.2881,-1.2881,-1.2881,-1.2881,-1.2881,-1.2881,-1.2881,-1.2881,-1.2881,-1.0897,-0.8808,-0.8808,-0.9098,-0.9593,-1.0436,-1.0624,-1.0624,-1.0624,-1.0624,-1.0624,-1.0624,-1.0624,-1.0624,-1.0624,-1.1476,-1.2927,-1.5104,-1.541,-1.541,-1.541,-1.541,-1.42,-1.093,-1.0624,-1.0624,-1.0624,-1.0624,-1.0624,-1.0624,-1.0624,-1.0624,-1.0624,-1.1655,-1.2205,-1.2205,-1.2205,-1.1655,-1.0624,-1.0624,-1.0624,-1.0624,-1.0624,-1.0624,0.0,0.0,0.0,0.0,0.0,0.0,0.0,0.0,0.0,0.0,0.0,0.0,0.0,0.0,0.0,0.0,0.0,0.0,0.0,0.0,0.0,0.0,0.0,0.0,0.0,0.0,0.0,0.0,-0.5346,-0.561,-0.6181,-0.6461,-0.6994,-0.7848,-0.8851,-0.9351,-0.94,-1.032,-1.045,-0.985,-0.981,-0.9462,-0.8857,-0.951,-0.9865,-0.9913,-1.1212,-1.1462,-1.0864,-1.0864,-1.0568,-1.0115,-0.9211,-0.891,-0.9267,-1.1914,-1.2881,-1.2881,-1.2881,-1.2881,-1.2881,-1.2881,-1.2881,-1.2881,-1.2881,-1.2881,-1.2881,-1.2881,-1.0897,-0.8808,-0.8808,-0.9656,-1.0581,-1.0737,-1.0744,-1.0744,-1.0744,-1.0744,-1.0684,-1.0621,-1.0624,-1.0624,-1.0747,-1.3352,-1.541,-1.541,-1.541,-1.5357,-1.5289,-1.523,-1.4076,-1.0926,-1.0624,-1.0624,-1.0624,-1.0624,-1.0624,-1.0624,-1.0684,-1.0744,-1.0744,-1.3717,-1.541,-1.541,-1.541,-1.3837,-1.0624,-1.0624,-1.0624,-1.0624,-1.0624,-1.0624,0.1217,0.0,0.0,0.0,0.0,0.0,0.0,0.0,0.0,0.0,0.0,0.0,0.0,0.0,0.0,0.0,0.0,0.0,0.0,0.0,0.0,0.0,0.0,0.0,0.0,0.0,0.0,0.0,-0.6528,-0.6622,-0.6768,-0.6842,-0.7009,-0.7228,-0.7736,-0.8432,-0.9331,-0.9656,-1.0144,-1.0822,-1.0643,-1.0415,-1.0265,-1.0415,-1.0767,-1.1266,-1.1665,-1.1981,-1.2255,-1.1724,-1.1162,-1.0618,-1.0368,-1.088,-1.1859,-1.2622,-1.2881,-1.2881,-1.2881,-1.2881,-1.2881,-1.2881,-1.2881,-1.2881,-1.2881,-1.2881,-1.2881,-1.2881,-1.0897,-0.8808,-0.8808,-0.9048,-1.0108,-1.3333,-1.408,-1.408,-1.408,-1.408,-1.3352,-1.1048,-1.0624,-1.1355,-1.3653,-1.4805,-1.541,-1.541,-1.541,-1.456,-1.2201,-1.1962,-1.1597,-1.0681,-1.0624,-1.0624,-1.0624,-1.0624,-1.0624,-1.0624,-1.2805,-1.408,-1.408,-1.4928,-1.541,-1.541,-1.541,-1.3837,-1.0624,-1.0624,-1.0624,-1.0624,-1.0624,-1.0624,0.0959,0.0,0.0,0.0,0.0,0.0,0.0,-0.3278,0.0,0.0,0.0,0.0,0.0,0.0,0.0,0.0,0.0,0.0,0.0,0.0,0.0,0.0,0.0,0.0,0.0,-0.75,-0.7653,-0.7139,-0.7265,-0.7262,-0.7021,-0.6979,-0.6979,-0.6979,-0.782,-0.86,-0.929,-1.0115,-1.0772,-1.119,-1.1189,-1.1061,-1.0817,-1.1065,-1.1421,-1.1828,-1.2138,-1.2501,-1.2876,-1.2452,-1.2039,-1.1688,-1.1688,-1.2157,-1.2881,-1.2881,-1.2881,-1.2881,-1.2881,-1.2881,-1.2881,-1.2881,-1.2881,-1.2881,-1.2881,-1.2881,-1.2881,-1.2881,-1.1755,-1.049,-1.049,-1.049,-1.1156,-1.3727,-1.4893,-1.541,-1.541,-1.541,-1.4442,-1.123,-1.0624,-1.117,-1.3049,-1.4501,-1.4928,-1.3593,-1.3412,-1.2744,-1.0867,-1.0624,-1.0624,-1.0624,-1.0624,-1.0624,-1.0624,-1.0624,-1.117,-1.2504,-1.4382,-1.541,-1.541,-1.541,-1.541,-1.541,-1.541,-1.4501,-1.2626,-1.2626,-1.19,-1.0624,-1.0624,-1.0624,0.0,0.0,0.0,0.0,0.0,0.0,-0.3007,-0.3359,-0.3682,0.0,0.0,0.0,0.0,0.0,0.0,0.0,0.0,0.0,0.0,0.0,0.0,0.0,0.0,0.0,-0.7399,-0.7825,-0.7875,-0.7299,-0.758,-0.754,-0.7021,-0.6979,-0.7021,-0.7108,-0.8427,-0.9188,-0.9317,-1.1029,-1.1602,-1.106,-1.145,-1.1361,-1.0856,-1.1554,-1.189,-1.1959,-1.2622,-1.2881,-1.2881,-1.2881,-1.2881,-1.2881,-1.2881,-1.2881,-1.2881,-1.2881,-1.2881,-1.2881,-1.2881,-1.2881,-1.2881,-1.2881,-1.2881,-1.2881,-1.2881,-1.2881,-1.2881,-1.2881,-1.2881,-1.2881,-1.2881,-1.2881,-1.2881,-1.2881,-1.4175,-1.541,-1.541,-1.541,-1.4565,-1.1717,-1.0867,-1.0624,-1.0624,-1.3291,-1.4319,-1.1111,-1.0624,-1.0624,-1.0624,-1.0624,-1.0624,-1.0624,-1.0624,-1.0624,-1.0624,-1.0926,-1.2324,-1.523,-1.541,-1.541,-1.541,-1.541,-1.541,-1.541,-1.541,-1.541,-1.541,-1.541,-1.3957,-1.1108,-1.1108,-1.093,0.0,0.0,0.0,0.0,0.0,0.0,-0.309,-0.3682,-0.4155,0.0,0.0,0.0,0.0,0.0,0.0,0.0,0.0,0.0,0.0,0.0,0.0,0.0,0.0,0.0,-0.7589,-0.8351,-0.8445,-0.7589,-0.7123,-0.6899,-0.7007,-0.6979,-0.7234,-0.7701,-0.8014,-0.8581,-0.947,-0.9632,-0.9856,-1.0165,-1.0602,-1.095,-1.1155,-1.1804,-1.2339,-1.2671,-1.2832,-1.2881,-1.2881,-1.2881,-1.2881,-1.2881,-1.2881,-1.2881,-1.2881,-1.2881,-1.2881,-1.2881,-1.2881,-1.2881,-1.2881,-1.2881,-1.2881,-1.2881,-1.2881,-1.2881,-1.2881,-1.2881,-1.2881,-1.2881,-1.2881,-1.2881,-1.2881,-1.2881,-1.4175,-1.541,-1.541,-1.541,-1.523,-1.4565,-1.2385,-1.0624,-1.0624,-1.3291,-1.4319,-1.1111,-1.0624,-1.0624,-1.0624,-1.0624,-1.0624,-1.0624,-1.0624,-1.0624,-1.0624,-1.2988,-1.4742,-1.5352,-1.541,-1.541,-1.541,-1.541,-1.541,-1.541,-1.541,-1.541,-1.541,-1.541,-1.5104,-1.4442,-1.4442,-1.3109,0.0,0.0,0.0,-0.255,0.0,0.0,0.0,-0.3741,-0.4111,-0.3944,0.0,0.0,0.0,0.0,0.0,0.0,0.0,0.0,0.0,0.0,0.0,0.0,0.0,0.0,-0.7047,-0.7671,-0.7829,-0.732,-0.6729,-0.65,-0.679,-0.7037,-0.7399,-0.787,-0.8439,-0.8958,-0.9478,-0.9825,-1.014,-1.0401,-1.0863,-1.1212,-1.1419,-1.1981,-1.2349,-1.2568,-1.2788,-1.306,-1.3329,-1.3329,-1.3329,-1.3329,-1.3017,-1.2881,-1.2881,-1.2881,-1.2881,-1.2881,-1.2881,-1.2881,-1.2881,-1.2881,-1.2881,-1.2881,-1.2881,-1.2881,-1.2881,-1.2881,-1.2881,-1.2881,-1.2881,-1.2881,-1.2881,-1.2881,-1.353,-1.438,-1.5229,-1.541,-1.541,-1.541,-1.4076,-1.2504,-1.0867,-1.1962,-1.2447,-1.0867,-1.0624,-1.0624,-1.0624,-1.0624,-1.0624,-1.0624,-1.0624,-1.0624,-1.0624,-1.3537,-1.541,-1.541,-1.541,-1.541,-1.541,-1.541,-1.541,-1.541,-1.541,-1.541,-1.541,-1.541,-1.541,-1.541,-1.541,-1.3657,0.0,0.0,0.0,0.0,0.0,-0.3763,0.0,0.0,0.0,-0.3922,0.0,0.0,0.0,0.0,0.0,0.0,0.0,0.0,0.0,0.0,0.0,0.0,0.0,0.0,0.0,-0.6648,-0.6794,-0.6876,-0.6332,-0.6199,-0.6567,-0.7118,-0.7583,-0.8024,-0.8999,-0.9562,-0.9637,-1.0414,-1.0786,-1.0796,-1.119,-1.14,-1.1493,-1.1811,-1.2106,-1.2375,-1.2616,-1.318,-1.3868,-1.3962,-1.3956,-1.3915,-1.3286,-1.3017,-1.2881,-1.2881,-1.2881,-1.2881,-1.2881,-1.2881,-1.2881,-1.2881,-1.2881,-1.2881,-1.2881,-1.2881,-1.2881,-1.2881,-1.2881,-1.2881,-1.2881,-1.2881,-1.2881,-1.2881,-1.2881,-1.3345,-1.5044,-1.541,-1.541,-1.541,-1.541,-1.4565,-1.1958,-1.1534,-1.1292,-1.0684,-1.0624,-1.0624,-1.0624,-1.0624,-1.0624,-1.0624,-1.0624,-1.0867,-1.1472,-1.3897,-1.541,-1.541,-1.541,-1.541,-1.541,-1.541,-1.541,-1.541,-1.541,-1.541,-1.541,-1.541,-1.541,-1.5415,-1.4742,-1.3109,0.0,0.0,0.0,0.0,-0.4316,0.0,0.0,0.0,-0.4264,-0.397,0.0,0.0,0.0,0.0,0.0,0.0,0.0,0.0,0.0,0.0,0.0,0.0,0.0,0.0,0.0,-0.5961,-0.5816,-0.6342,-0.5781,-0.5769,-0.6546,-0.7118,-0.7776,-0.8586,-0.9199,-0.9721,-1.0201,-1.0327,-1.0352,-1.0356,-1.0405,-1.062,-1.0986,-1.1035,-1.1767,-1.2981,-1.2352,-1.2833,-1.4097,-1.4474,-1.4612,-1.452,-1.3915,-1.3372,-1.2881,-1.2881,-1.2881,-1.2881,-1.2881,-1.2881,-1.2881,-1.2881,-1.2881,-1.2881,-1.2881,-1.2881,-1.2881,-1.2881,-1.2881,-1.2881,-1.2881,-1.2881,-1.2881,-1.2881,-1.2881,-1.3345,-1.5044,-1.541,-1.541,-1.541,-1.541,-1.5289,-1.4928,-1.4864,-1.3897,-1.1048,-1.0624,-1.0624,-1.0624,-1.0624,-1.0624,-1.0624,-1.0624,-1.1779,-1.4624,-1.5167,-1.541,-1.541,-1.541,-1.541,-1.541,-1.541,-1.541,-1.541,-1.541,-1.541,-1.541,-1.541,-1.541,-1.5347,-1.2443,-1.0926,0.0,0.0,0.0,0.0,0.0,0.0,-0.4449,0.0,-0.4349,0.0,0.0,0.0,0.0,0.0,0.0,0.0,0.0,0.0,0.0,0.0,0.0,0.0,0.0,0.0,0.0,0.0,0.0,0.0,-0.508,-0.5348,-0.6165,-0.7117,-0.7978,-0.8733,-0.9552,-1.0079,-1.0283,-1.0283,-1.0283,-1.0283,-1.0283,-1.0376,-1.0557,-1.0889,-1.1358,-1.1989,-1.3107,-1.3906,-1.4468,-1.4612,-1.5107,-1.5656,-1.4692,-1.3742,-1.2881,-1.2881,-1.2881,-1.2881,-1.2881,-1.2881,-1.2881,-1.2881,-1.2881,-1.2881,-1.2881,-1.2881,-1.2881,-1.2881,-1.2881,-1.2881,-1.2881,-1.2881,-1.2881,-1.2881,-1.2881,-1.3345,-1.5044,-1.541,-1.541,-1.541,-1.541,-1.541,-1.541,-1.541,-1.4928,-1.3597,-1.1779,-1.0624,-1.0624,-1.0624,-1.0624,-1.0624,-1.2262,-1.3957,-1.5294,-1.541,-1.541,-1.541,-1.541,-1.541,-1.541,-1.541,-1.541,-1.541,-1.541,-1.541,-1.541,-1.541,-1.4442,-1.2565,-1.1233,-1.1597,-0.4817,0.0,0.0,0.0,0.0,0.0,0.0,0.0,0.0,0.0,0.0,0.0,0.0,0.0,0.0,0.0,0.0,0.0,0.0,0.0,0.0,0.0,0.0,0.0,0.0,0.0,0.0,0.0,0.0,-0.4965,-0.5856,-0.6901,-0.79,-0.8786,-0.9668,-1.0161,-1.0283,-1.0283,-1.0283,-1.0283,-1.0433,-1.05,-1.052,-1.094,-1.1358,-1.1809,-1.3564,-1.4676,-1.5197,-1.5197,-1.57,-1.6337,-1.4795,-1.3658,-1.2881,-1.2881,-1.2881,-1.2881,-1.2881,-1.2881,-1.2881,-1.2881,-1.2881,-1.2881,-1.2881,-1.2881,-1.2881,-1.2881,-1.2881,-1.2881,-1.2881,-1.2881,-1.2881,-1.2881,-1.2881,-1.3218,-1.4453,-1.5083,-1.541,-1.541,-1.541,-1.541,-1.541,-1.541,-1.541,-1.541,-1.3412,-1.19,-1.19,-1.19,-1.19,-1.19,-1.4021,-1.541,-1.541,-1.541,-1.541,-1.541,-1.541,-1.541,-1.541,-1.541,-1.541,-1.541,-1.541,-1.541,-1.541,-1.4501,-1.287,-1.0624,-1.1052,-1.2266,0.0,0.0,0.0,-0.5709,0.0,0.0,0.0,0.0,-0.5325,0.0,0.0,0.0,0.0,0.0,0.0,0.0,0.0,0.0,0.0,0.0,0.0,0.0,0.0,0.0,0.0,0.0,0.0,0.0,0.0,0.0,-0.5834,-0.6448,-0.7371,-0.8768,-0.9341,-0.9858,-1.0317,-1.0283,-1.0283,-1.0322,-1.0759,-1.0981,-1.0976,-1.1185,-1.2011,-1.3247,-1.3386,-1.4594,-1.6429,-1.6429,-1.6479,-1.6244,-1.3889,-1.2929,-1.2881,-1.2881,-1.2881,-1.2881,-1.2881,-1.2881,-1.2881,-1.2881,-1.2881,-1.2881,-1.2881,-1.2881,-1.2881,-1.2881,-1.2881,-1.2881,-1.2881,-1.2881,-1.2881,-1.2881,-1.2881,-1.2895,-1.2949,-1.4248,-1.541,-1.541,-1.541,-1.541,-1.541,-1.541,-1.541,-1.541,-1.5289,-1.523,-1.523,-1.523,-1.523,-1.523,-1.5352,-1.541,-1.541,-1.541,-1.541,-1.541,-1.541,-1.541,-1.541,-1.541,-1.541,-1.541,-1.541,-1.541,-1.541,-1.2262,-1.0681,-1.0621,-1.2216,-1.2151,0.0,0.0,-0.8066,-0.6863,0.0,0.0,0.0,0.0,0.0,0.0,0.0,0.0,0.0,0.0,0.0,0.0,0.0,0.0,0.0,0.0,0.0,0.0,0.0,0.0,0.0,0.0,0.0,0.0,-0.3612,0.0,0.0,-0.6181,-0.728,-0.8508,-0.9235,-0.9839,-1.0317,-1.0283,-1.0467,-1.0764,-1.09,-1.1201,-1.1547,-1.1777,-1.2154,-1.2595,-1.3058,-1.4504,-1.6429,-1.5656,-1.5293,-1.5158,-1.352,-1.2881,-1.2881,-1.2881,-1.2881,-1.2881,-1.2881,-1.2881,-1.2881,-1.2881,-1.2881,-1.2881,-1.2881,-1.2881,-1.2881,-1.2881,-1.2881,-1.2881,-1.2881,-1.2881,-1.2881,-1.2881,-1.2881,-1.2881,-1.2881,-1.4214,-1.541,-1.541,-1.541,-1.541,-1.541,-1.541,-1.541,-1.541,-1.541,-1.541,-1.541,-1.541,-1.541,-1.541,-1.541,-1.541,-1.541,-1.541,-1.541,-1.541,-1.541,-1.541,-1.541,-1.541,-1.541,-1.541,-1.541,-1.541,-1.541,-1.4319,-1.3777,-1.3773,-1.4323,-1.4323,-0.875,-0.9083,0.0,-0.7868,-0.7814,0.0,-0.6707,0.0,0.0,0.0,0.0,0.0,0.0,0.0,0.0,0.0,0.0,0.0,0.0,0.0,0.0,0.0,0.0,0.0,0.0,0.0,-0.3133,-0.3234,-0.3305,0.0,0.0,0.0,-0.6868,-0.8125,-0.897,-0.9614,-1.0049,-1.0387,-1.0682,-1.1014,-1.1351,-1.1726,-1.2066,-1.2407,-1.2543,-1.2591,-1.3278,-1.4275,-1.5327,-1.4923,-1.4637,-1.4427,-1.3795,-1.3296,-1.2881,-1.2881,-1.2881,-1.2881,-1.2881,-1.2881,-1.2881,-1.2881,-1.2881,-1.2881,-1.2881,-1.2881,-1.2881,-1.2881,-1.2881,-1.2881,-1.2881,-1.2881,-1.2881,-1.2881,-1.2881,-1.2881,-1.2881,-1.4214,-1.541,-1.541,-1.541,-1.541,-1.541,-1.541,-1.541,-1.541,-1.541,-1.541,-1.541,-1.541,-1.541,-1.541,-1.541,-1.541,-1.541,-1.541,-1.541,-1.541,-1.541,-1.541,-1.541,-1.541,-1.541,-1.541,-1.541,-1.4864,-1.3717,-1.4864,-1.541,-1.541,-1.541,-1.541]},{"header":{"parameterUnit":"m.s-1","parameterCategory":1,"la1":30.6,"la2":29.2853,"lo1":-89.7004,"lo2":-87.6739,"dy":0.0162,"dx":0.0183,"nx":112,"ny":82,"refTime":"2024-09-17T12:00:00:Z","depth":0,"parameterNumber":3,"parameterNumberName":"V-component_of_WINDS"},"data":[0.0,0.0,0.0,0.0,0.0,0.0,0.0,0.0,0.0,0.0,0.0,0.0,0.0,0.0,0.0,0.0,0.0,0.0,0.0,0.0,0.0,0.0,0.0,0.0,0.0,0.0,0.0,0.0,0.0,0.0,0.0,0.0,0.0,0.0,0.0,0.0,0.0,0.0,0.0,0.0,0.0,0.0,0.0,0.0,0.0,0.0,0.0,0.0,0.0,0.0,0.0,0.0,0.0,0.0,0.0,0.0,0.0,0.0,0.0,0.0,0.0,0.0,0.0,0.0,0.0,0.0,0.0,0.0,0.0,0.0,0.0,0.0,0.0,0.0,0.0,0.0,0.0,0.0,0.0,0.0,0.0,0.0,0.0,0.0,0.0,0.0,0.0,0.0,0.0,0.0,-0.4281,-0.4531,-0.5121,-0.5325,-0.4929,-0.4369,-0.3009,-0.0648,0.0,0.0,0.0,0.0,0.0,0.0,0.0,0.0,0.0,0.0,0.0,0.0,0.0,0.0,0.0,0.0,0.0,0.0,0.0,0.0,0.0,0.0,0.0,0.0,0.0,0.0,0.0,0.0,0.0,0.0,0.0,0.0,0.0,0.0,0.0,0.0,0.0,0.0,0.0,0.0,0.0,0.0,0.0,0.0,0.0,0.0,0.0,0.0,0.0,0.0,0.0,0.0,0.0,0.0,0.0,0.0,0.0,0.0,0.0,0.0,0.0,0.0,0.0,0.0,0.0,0.0,0.0,0.0,0.0,0.0,0.0,0.0,0.0,0.0,0.0,0.0,0.0,0.0,0.0,0.0,0.0,0.0,0.0,0.0,0.0,0.0,0.0,0.0,0.0,0.0,0.0,0.0,0.0,0.0,0.0,0.0,0.0,0.0,0.0,0.0,0.0,0.0,0.0,0.0,-0.4568,-0.5554,-0.5563,-0.5212,-0.4468,-0.4273,-0.2982,-0.0176,0.0,0.0,0.0,0.0,0.0,0.0,0.0,0.0,0.0,0.0,0.0,0.0,0.0,0.0,0.0,0.0,0.0,0.0,0.0,0.0,0.0,0.0,0.0,0.0,0.0,0.0,0.0,0.0,0.0,0.0,0.0,0.0,0.0,0.0,0.0,0.0,0.0,0.0,0.0,0.0,0.0,0.0,0.0,0.0,0.0,0.0,0.0,0.0,0.0,0.0,0.0,0.0,0.0,0.0,0.0,0.0,0.0,0.0,0.0,0.0,0.0,0.0,0.0,0.0,0.0,0.0,0.0,0.0,0.0,0.0,0.0,0.0,0.0,0.0,0.0,0.0,0.0,0.0,0.0,0.0,0.0,0.0,0.0,0.0,0.0,0.0,0.0,0.0,0.0,0.0,0.0,0.0,0.0,0.0,0.0,0.0,0.0,0.0,0.0,0.0,0.0,0.0,0.0,-0.381,-0.459,-0.5765,-0.528,-0.4732,-0.4434,-0.3278,-0.1745,0.0191,0.1323,0.0,0.0,0.0,0.0,0.0,0.0,0.0,0.0,0.0,0.0,0.0,0.0,0.0,0.0,0.0,0.0,0.0,0.0,0.0,0.0,0.0,0.0,0.0,0.0,0.0,0.0,0.0,0.0,0.0,0.0,0.0,0.0,0.0,0.0,0.0,0.0,0.0,0.0,0.0,0.0,0.0,0.0,0.0,0.0,0.0,0.0,0.0,0.0,0.0,0.0,0.0,0.0,0.0,0.0,0.0,0.0,0.0,0.0,0.0,0.0,0.0,0.0,0.0,0.0,0.0,0.0,0.0,0.0,0.0,0.0,0.0,0.0,0.0,0.0,0.0,0.0,0.0,0.0,0.0,0.0,0.0,0.0,0.0,0.0,0.0,0.0,0.0,0.0,0.0,0.0,0.0,0.0,0.0,0.0,0.0,0.0,0.0,0.0,0.0,0.0,0.0,0.0,-0.4057,-0.4588,-0.5518,-0.4712,-0.415,-0.4256,-0.2241,-0.0502,0.0614,0.1969,0.0,0.0,0.0,0.0,0.0,0.0,0.0,0.0,0.0,0.0,0.0,0.0,0.0,0.0,0.0,0.0,0.0,0.0,0.0,0.0,0.0,0.0,0.0,0.0,0.0,0.0,0.0,0.0,0.0,0.0,0.0,0.0,0.0,0.0,0.0,0.0,0.0,0.0,0.0,0.0,0.0,0.0,0.0,0.0,0.0,0.0,0.0,0.0,0.0,0.0,0.0,0.0,0.0,0.0,0.0,0.0,0.0,0.0,0.0,0.0,0.0,0.0,0.0,0.0,0.0,0.0,0.0,0.0,0.0,0.0,0.0,0.0,0.0,0.0,0.0,0.0,0.0,0.0,0.0,0.0,0.0,0.0,0.0,0.0,0.0,0.0,0.0,0.0,0.0,0.0,0.0,0.0,0.0,0.0,0.0,0.0,0.0,0.0,0.0,0.0,0.0,0.0,-0.407,-0.4691,-0.478,-0.4049,-0.3567,-0.3566,-0.1599,0.009,0.1171,0.2387,0.0,0.0,0.0,0.0,0.0,0.0,0.0,0.0,0.0,0.0,0.0,0.0,0.0,0.0,0.0,0.0,0.0,0.0,0.0,0.0,0.0,0.0,0.0,0.0,0.0,0.0,0.0,0.0,0.0,0.0,0.0,0.0,0.0,0.0,0.0,0.0,0.0,0.0,0.0,0.0,0.0,0.0,0.0,0.0,0.0,0.0,0.0,0.0,0.0,0.0,0.0,0.0,0.0,0.0,0.0,0.0,0.0,0.0,0.0,0.0,0.0,0.0,0.0,0.0,0.0,0.0,0.0,0.0,0.0,0.0,0.0,0.0,0.0,0.0,0.0,0.0,0.0,0.0,0.0,0.0,0.0,0.0,0.0,0.0,0.0,0.0,0.0,0.0,0.0,0.0,0.0,0.0,0.0,0.0,0.0,0.0,0.0,0.0,0.0,0.0,0.0,0.0,-0.4535,-0.4854,0.0,-0.424,-0.3688,-0.3523,-0.1583,0.0402,0.2179,0.0,0.0,0.0,0.0,0.0,0.0,0.0,0.0,0.0,0.0,0.0,0.0,0.0,0.0,0.0,0.0,0.0,0.0,0.0,0.0,0.0,0.0,0.0,0.0,0.0,0.0,0.0,0.0,0.0,0.0,0.0,0.0,0.0,0.0,0.0,0.0,0.0,0.0,0.0,0.0,0.0,0.0,0.0,0.0,0.0,0.0,0.0,0.0,0.0,0.0,0.0,0.0,0.0,0.0,0.0,0.0,0.0,0.0,0.0,0.0,0.0,0.0,0.0,0.0,0.0,0.0,0.0,0.0,0.0,0.0,0.0,0.0,0.0,0.0,0.0,0.0,0.0,0.0,0.0,0.0,0.0,0.0,0.0,0.0,0.0,0.0,0.0,0.0,0.0,0.0,0.0,0.0,0.0,0.0,0.0,0.0,0.0,0.0,0.0,0.0,0.0,0.0,-0.4679,-0.4959,-0.5066,0.0,-0.4252,-0.3626,-0.3269,-0.1467,0.056,0.2647,0.0,0.0,0.0,0.0,0.0,0.0,0.0,0.0,0.0,0.0,0.0,0.0,0.0,0.0,0.0,0.0,0.0,0.0,0.0,0.0,0.0,0.0,0.0,0.0,0.0,0.0,0.0,0.0,0.0,0.0,0.0,0.0,0.0,0.0,0.0,0.0,0.0,0.0,0.0,0.0,0.0,0.0,0.0,0.0,0.0,0.0,0.0,0.0,0.0,0.0,0.0,0.0,0.0,0.0,0.0,0.0,0.0,0.0,0.0,0.0,0.0,0.0,0.0,0.0,0.0,0.0,0.0,0.0,0.0,0.0,0.0,0.0,0.0,0.0,0.0,0.0,0.0,0.0,0.0,0.0,0.0,0.0,0.0,0.0,0.0,0.0,0.0,0.0,0.0,0.0,0.0,0.0,0.0,0.0,0.0,0.0,0.0,0.0,0.0,0.0,0.0,0.0,-0.4881,-0.5302,-0.5303,-0.4768,-0.3993,-0.3293,-0.2742,-0.1165,0.0552,0.0,0.0,0.0,0.0,0.0,0.0,0.0,0.0,0.0,0.0,0.0,0.0,0.0,0.0,0.0,0.0,0.0,0.0,0.0,0.0,0.0,0.0,0.0,0.0,0.0,0.0,0.0,0.0,0.0,0.0,0.0,0.0,0.0,0.0,0.0,0.0,0.0,0.0,0.0,0.0,0.0,0.0,0.0,0.0,0.0,0.0,0.0,0.0,0.0,0.0,0.0,0.0,0.0,0.0,0.0,0.0,0.0,0.0,0.0,0.0,0.0,0.0,0.0,0.0,0.0,0.0,0.0,0.0,0.0,0.0,0.0,0.0,0.0,0.0,0.0,0.0,0.0,0.0,0.0,0.0,0.0,0.0,0.0,0.0,0.0,0.0,0.0,0.0,0.0,0.0,0.0,0.0,0.0,0.0,0.0,0.0,0.0,0.0,0.0,0.0,0.0,0.0,0.0,-0.6393,-0.6392,-0.6065,-0.5529,-0.4634,-0.3725,-0.2914,-0.1646,-0.0274,0.1202,0.0,0.0,0.0,0.0,0.0,0.0,0.0,0.0,0.0,0.0,0.0,0.0,0.0,0.0,0.0,0.0,0.0,0.0,0.0,0.0,0.0,0.0,0.0,0.0,0.0,0.0,0.0,0.0,0.0,0.0,0.0,0.0,0.0,0.0,0.0,0.0,0.0,0.0,0.0,0.0,0.0,0.0,0.0,0.0,0.0,0.0,0.0,0.0,0.0,0.0,0.0,0.0,0.0,0.0,0.0,0.0,0.0,0.0,0.0,0.0,0.0,0.0,0.0,0.0,0.0,0.0,0.0,0.0,0.0,0.0,0.0,0.0,0.0,0.0,0.0,0.0,0.0,0.0,0.0,0.0,0.0,0.0,0.0,0.0,0.0,0.0,0.0,0.0,0.0,0.0,0.0,0.0,0.0,0.0,0.0,0.0,0.0,0.0,0.0,0.0,0.0,0.0,-0.65,-0.6651,-0.6494,-0.6006,-0.5153,-0.4215,-0.3219,-0.2222,-0.1046,0.0346,0.0,0.0,0.0,0.0,0.0,0.0,0.0,0.0,0.0,0.0,0.0,0.0,0.0,0.0,0.0,0.0,0.0,0.0,0.0,0.0,0.0,0.0,0.0,0.0,0.0,0.0,0.0,0.0,0.0,0.0,0.0,0.0,0.0,0.0,0.0,0.0,0.0,0.0,0.0,0.0,0.0,0.0,0.0,0.0,0.0,0.0,0.0,0.0,0.0,0.0,0.0,0.0,0.0,0.0,0.0,0.0,0.0,0.0,0.0,0.0,0.0,0.0,0.0,0.0,0.0,0.0,0.0,0.0,0.0,0.0,0.0,0.0,0.0,0.0,0.0,0.0,0.0,0.0,0.0,0.0,0.0,0.0,0.0,0.0,0.0,0.0,0.0,0.0,0.0,0.0,0.0,0.0,0.0,0.0,0.0,0.0,0.0,0.0,0.0,0.0,0.0,0.0,-0.5821,-0.6426,-0.6704,-0.6304,-0.5608,-0.4741,-0.3655,-0.2825,-0.1724,-0.0262,0.0,0.0,0.0,0.0,0.0,0.0,0.0,0.0,0.0,0.0,0.0,0.0,0.0,0.0,0.0,0.0,0.0,0.0,0.0,0.0,0.0,0.0,0.0,0.0,0.0,0.0,0.0,0.0,0.0,0.0,0.0,0.0,0.0,0.0,0.0,0.0,0.0,0.0,0.0,0.0,0.0,0.0,0.0,0.0,0.0,0.0,0.0,0.0,0.0,0.0,0.0,0.0,0.0,0.0,0.0,0.0,0.0,0.0,0.0,0.0,0.0525,0.0,0.0,0.0,0.0,0.0,0.0,0.0,0.0,0.0,0.0,0.0,0.0,0.0,0.0,0.0,0.0,0.0,0.0,0.0,0.0,0.0,0.0,0.0,0.0,0.0,0.0,0.0,0.0,0.0,0.0,0.0,0.0,0.0,0.0,0.0,0.0,0.0,0.0,0.0,0.0,0.0,-0.6677,-0.7085,-0.7204,-0.6786,-0.6095,-0.5228,-0.4207,-0.3287,-0.2196,-0.0825,-0.0151,0.0,0.0,0.0,0.0,0.0,0.0,0.0,0.0,0.0,0.0,0.0,0.0,0.0,0.0,0.0,0.0,0.0,0.0,0.0,0.0,0.0,0.0,0.0,0.0,0.0,0.0,0.0,0.0,0.0,0.0,0.0,0.0,0.0,0.0,0.0,0.0,0.0,0.0,0.0,0.0,0.0,0.0,0.0,0.0,0.0,0.0,0.0,0.0,0.0,0.0,0.0,0.0,0.0,0.0,0.0,0.0,0.0,0.0,0.0,0.0,-0.064,0.0,0.0,0.0,0.0,0.0,0.0,0.0,0.0,0.0,0.0,0.0,0.0,0.0,0.0,0.0,0.0,0.0,0.0,0.0,0.0,0.0,0.0,0.0,0.0,0.0,0.0,0.0,0.0,0.0,0.0,0.0,0.0,0.0,0.0,0.0,0.0,0.0,0.0,0.0,0.0,-0.6449,-0.7167,-0.7487,-0.7091,-0.6528,-0.5785,-0.476,-0.3775,-0.2782,-0.1822,-0.0657,0.0,0.0,0.0,0.0,0.0,0.0,0.0,0.0,0.0,0.0,0.0,0.0,0.0,0.0,0.0,0.0,0.0,0.0,0.0,0.0,0.0,0.0,0.0,0.0,0.0,0.0,0.0,0.0,0.0,0.0,0.0,0.0,0.0,0.0,0.0,0.0,0.0,0.0,0.0,0.0,0.0,0.0,0.0,0.0,0.0,0.0,0.0,0.0,0.0,0.0,0.0,0.0,0.0,-0.2889,-0.2227,-0.273,-0.3173,-0.3906,-0.4742,-0.281,-0.1767,-0.1495,0.0,0.0,0.0,0.0,0.0,0.0,0.0,0.0,0.0,0.0,0.0,0.0,0.0,0.0,0.0,0.0,0.0,0.0,0.0,0.0,0.0,0.0,0.0,0.0,0.0,-0.4911,-0.5618,0.0,0.0,0.0,0.0,0.0,0.0,0.0,0.0,0.0,0.0,0.0,0.0,-0.6162,-0.7226,-0.7855,-0.7569,-0.7146,-0.6451,-0.5395,-0.4301,-0.3382,-0.2683,-0.108,-0.0179,0.0,0.0,0.0,0.0,0.0,0.0,0.0,0.0,0.0,0.0,0.0,0.0,0.0,0.0,0.0,0.0,0.0,0.0,0.0,0.0,0.0,0.0,0.0,0.0,0.0,0.0,0.0,0.0,0.0,0.0,0.0,0.0,-0.1449,-0.1438,0.0,0.0,0.0,0.0,0.0,0.0,0.0,0.0,0.0,0.0,0.0,0.0,0.0,-0.3843,-0.504,-0.505,-0.44,-0.3037,-0.2726,-0.2635,-0.2711,-0.2758,-0.2892,-0.3035,-0.2725,0.0,-0.0316,-0.1371,0.0,0.0,0.0,0.0,0.0,0.0,0.0,0.0,0.0,0.0,0.0,0.0,0.0,0.0,0.0,0.0,0.0,0.0,0.0,0.0,0.0,0.0,-0.5401,-0.68,-0.7243,-0.7695,0.0,-0.7856,-0.6477,-0.6051,-0.6396,0.0,0.0,0.0,0.0,0.0,0.0,0.0,-0.7142,-0.8101,-0.8704,-0.8848,-0.8338,-0.7482,-0.6253,-0.505,-0.3808,-0.2523,-0.1396,-0.0934,-0.1296,-0.1046,0.0,0.0,0.0,0.0,0.0,0.0,0.0,0.0,0.0,0.0,0.0,0.0,0.0,0.0,0.0,0.0,0.0,0.0,0.0,0.0,0.0,0.0,0.0,0.0,0.0,0.0,0.0,0.0,0.0,-0.0455,-0.1037,-0.1727,-0.0596,0.0541,0.0,0.0,0.0,0.0,0.0,0.0,0.0,0.0,0.0,-0.4465,-0.4512,-0.476,-0.5309,-0.4336,-0.3462,-0.2718,-0.3063,-0.3186,-0.3186,-0.3186,-0.3918,-0.5028,-0.3764,-0.2746,-0.1959,-0.1139,-0.1398,-0.2196,0.0,0.0,0.0,0.0,-0.0,-0.0878,-0.1939,-0.2968,0.0,-0.4988,0.0,0.0,0.0,0.0,0.0,0.0,0.0,0.0,0.0,0.0,0.0,-1.036,-1.0772,-1.0686,-1.0321,-0.9817,-0.9045,0.0,-0.7828,-0.7598,-0.6176,0.0,0.0,0.0,0.0,-0.6571,-0.7998,-0.8573,-0.8926,-0.9086,-0.8491,-0.7602,-0.6408,-0.5181,-0.3895,-0.2492,-0.1771,-0.1342,-0.1163,-0.1206,-0.1112,0.0,0.0,0.0,0.0,0.0,0.0,0.0,0.0,0.0,0.0,0.0,0.0,0.0,0.0,0.0,0.0,0.0,0.0,0.0,0.0,0.0,0.0,0.0,0.0,0.0,0.0,0.0,0.0,0.0,-0.0448,-0.1648,0.0066,0.147,0.0,0.0,0.0,0.0,0.0,0.0,-0.3927,-0.3951,-0.4379,-0.5282,-0.571,-0.6118,-0.6588,-0.4726,-0.351,-0.2953,-0.3364,-0.3884,-0.4489,-0.4489,-0.5389,-0.6894,-0.5219,-0.4142,-0.3411,-0.1006,-0.0801,-0.1887,-0.0535,-0.0923,-0.227,-0.227,-0.2556,-0.2946,-0.2946,-0.2946,-0.323,-0.5129,0.0,-0.6636,-0.6986,0.0,0.0,0.0,0.0,-0.8352,-0.8352,-0.9696,-1.1394,-1.2867,-1.3198,-1.2781,-1.1245,-1.1332,-1.1123,0.0,-0.9068,-0.8752,-0.6798,0.0,0.0,0.0,0.0,-0.7451,-0.8792,-0.9199,-0.9431,-0.9543,-0.8978,-0.809,-0.689,-0.5641,-0.434,-0.2916,-0.2192,-0.1598,-0.116,-0.1408,-0.1394,-0.1018,0.0,0.0,0.0,0.0,0.0,0.0,0.0,0.0,0.0,0.0,0.0,0.0,0.0,0.0,0.0,0.0,0.0,0.0,0.0,0.0,0.0,0.0,0.0,0.0,0.0,0.0,0.0,0.0,0.0,-0.1648,-0.0692,0.0,0.0,0.0,0.0,-0.1714,-0.3822,-0.5156,-0.519,-0.5225,-0.5248,-0.5309,-0.6777,-0.8372,-1.0017,-0.7891,-0.5702,-0.3536,-0.3566,-0.4748,-0.6849,-0.6849,-0.6891,-0.6979,-0.6894,-0.5604,-0.3398,-0.0976,-0.0044,-0.0131,-0.0036,-0.1454,-0.349,-0.349,-0.351,-0.3534,-0.3534,-0.3534,-0.3919,-0.6169,-0.6222,-0.5386,-0.5424,-0.7585,0.0,0.0,-1.0002,-1.0156,-1.0156,-1.1611,-1.3088,-1.317,-1.3198,-1.2979,-1.2196,-1.2065,-1.1619,0.0,-0.9836,-0.9349,-0.7708,0.0,-0.7349,-0.7084,-0.7714,-0.8551,-0.9527,-1.0276,-1.0731,-1.0791,-1.0442,-0.9616,-0.8214,-0.6881,-0.5513,-0.4105,-0.2618,-0.1775,-0.1765,-0.1784,-0.1889,-0.2114,-0.2153,0.0,0.0,0.0,0.0,0.0,0.0,0.0,0.0,0.0,0.0,0.0,0.0,0.0,0.0,0.0,0.0,0.0,0.0,0.0,0.0,0.0,0.0,0.0,0.0,0.0,0.0,0.0,0.0,-0.4251,-0.3228,0.0,-0.1185,-0.0124,-0.0288,-0.2242,-0.4202,-0.5312,-0.5312,-0.5992,-0.7032,-0.8477,-0.9076,-0.9668,-1.0273,-0.9509,-0.8016,-0.5779,-0.5779,-0.6207,-0.6979,-0.6979,-0.6979,-0.6979,-0.6979,-0.655,-0.573,-0.4873,-0.3621,-0.231,-0.2337,-0.2838,-0.358,-0.358,-0.4532,-0.5779,-0.5779,-0.5779,-0.5907,-0.6722,-0.674,-0.6403,-0.6403,-0.8207,-1.0283,-1.0283,-1.0283,-1.0283,-1.0283,-1.1726,-1.3198,-1.3198,-1.3198,-1.3129,-1.2847,-1.2824,-1.2534,-1.1688,-1.123,-1.079,-1.0123,-1.0014,-1.0076,-1.0228,-1.0494,-1.1006,-1.1894,-1.1732,-1.1589,-1.1772,-1.0699,-0.9673,-0.8904,-0.7461,-0.5983,-0.4562,-0.3573,-0.274,-0.2092,-0.2267,-0.2361,-0.2322,-0.2327,-0.2237,0.0,0.0,0.0,0.0,0.0,0.0,0.0,0.0,0.0,0.0,0.0,0.0,0.0,0.0,0.0,0.0,0.0,0.0,0.0,0.0,0.0,0.0,0.0,0.0,0.0,0.0,-0.9869,-0.6618,-0.5705,-0.4549,-0.2598,-0.1296,-0.1592,-0.3959,-0.5219,-0.5868,-0.5868,-0.7292,-0.8772,-1.0239,-1.0948,-1.1282,-1.1282,-1.0616,-0.9584,-0.8121,-0.7349,-0.6979,-0.6979,-0.6979,-0.6979,-0.6979,-0.6979,-0.6979,-0.6979,-0.6979,-0.6118,-0.4661,-0.3884,-0.358,-0.3711,-0.4445,-0.569,-0.7101,-0.7837,-0.7634,-0.6979,-0.6979,-0.7295,-0.7801,-0.8725,-1.0004,-1.1162,-1.1162,-1.1753,-1.2383,-1.2383,-1.3343,-1.4186,-1.3762,-1.3425,-1.3192,-1.316,-1.3179,-1.3085,-1.2718,-1.2222,-1.1833,-1.1699,-1.1682,-1.1804,-1.222,-1.2368,-1.2653,-1.3233,-1.2866,-1.2571,-1.2636,-1.1452,-1.0405,-0.98,-0.8214,-0.6649,-0.5303,-0.4399,-0.3456,-0.2408,-0.2555,-0.2567,-0.2346,-0.258,-0.2677,-0.264,0.0,0.0,0.0,0.0,0.0,0.0,0.0,0.0,0.0,0.0,0.0,0.0,0.0,0.0,0.0,0.0,0.0,0.0,0.0,0.0,0.0,0.0,0.0,-1.4494,-1.3889,-1.2132,-0.8655,-0.7983,-0.6312,-0.2517,-0.4211,-0.5968,-0.7017,-0.7101,-0.7101,-0.7101,-0.9137,-1.0322,-1.0395,-1.2204,-1.3163,-1.3123,-1.1319,-1.0395,-1.0356,-0.8162,-0.7101,-0.7101,-0.7182,-0.7179,-0.7175,-0.714,-0.7063,-0.6979,-0.6979,-0.7021,-0.6888,-0.4615,-0.3622,-0.375,-0.6079,-0.6963,-0.7367,-0.9621,-0.8965,-0.7198,-0.7198,-0.7953,-0.942,-1.2112,-1.2881,-1.2929,-1.2973,-1.4703,-1.6515,-1.6515,-1.6558,-1.6286,-1.4971,-1.3947,-1.3251,-1.3151,-1.3201,-1.3232,-1.3172,-1.2782,-1.2418,-1.232,-1.2279,-1.2438,-1.2823,-1.3182,0.0,-1.3375,-1.3657,-1.3708,-1.3398,-1.2773,-1.1963,-1.094,-0.9245,-0.7645,-0.6331,-0.5144,-0.3971,-0.2829,-0.272,-0.254,-0.2254,-0.2965,-0.3472,-0.3722,0.0,0.0,0.0,0.0,0.0,0.0,0.0,0.0,0.0,0.0,0.0,0.0,0.0,0.0,0.0,0.0,0.0,0.0,0.0,0.0,0.0,0.0,-1.6236,-1.4332,-1.4181,-1.3554,-1.1587,-1.0561,-1.0034,-1.0068,-1.0634,-1.0577,-0.9459,-0.9381,-0.9381,-0.9381,-0.9957,-1.0948,-1.2348,-1.2937,-1.2532,-1.1094,-1.1982,-1.2383,-1.2383,-1.0374,-0.9381,-0.946,-1.0855,-1.1511,-1.1406,-1.0012,-0.8488,-0.6979,-0.6979,-0.796,-0.9173,-0.6945,-0.397,-0.1344,-0.4133,-0.6527,-0.8654,-1.1295,-1.1779,-1.1295,-1.1295,-1.1499,-1.1909,-1.2676,-1.2881,-1.3248,-1.5022,-1.5976,-1.6515,-1.6515,-1.7666,-1.872,-1.8364,-1.6761,-1.5072,-1.4151,-1.4136,-1.4287,-1.4254,-1.4073,-1.4017,-1.4251,-1.4313,-1.4462,-1.4912,-1.5061,0.0,-1.5117,-1.497,-1.4847,-1.4748,-1.4157,-1.3341,-1.234,-1.1351,-0.9834,-0.7588,-0.7022,-0.6054,-0.4358,-0.4521,-0.4276,-0.3528,-0.4039,-0.4356,0.0,0.0,0.0,0.0,0.0,0.0,0.0,0.0,0.0,0.0,0.0,0.0,0.0,0.0,0.0,0.0,0.0,0.0,0.0,0.0,0.0,0.0,-1.2945,-1.6557,-1.566,-1.5522,-1.5245,-1.4486,-1.3697,-1.3698,-1.5008,-1.5125,-1.4674,-1.3542,-1.3439,-1.3213,-1.2643,-1.2614,-1.319,-1.4538,-1.3607,-1.3458,-1.4231,-1.5365,-1.5937,-1.5901,-1.479,-1.3784,-1.3007,-1.5744,-1.701,0.0,-1.5816,-1.4164,-1.2271,-1.1359,-1.1726,0.0,0.0,0.0,0.0,0.0,-1.0582,-1.2247,-1.3867,-1.4433,-1.4433,-1.4433,-1.4433,-1.4433,-1.4433,-1.4433,-1.4703,-1.6113,-1.6515,-1.6515,-1.6515,-1.7429,-1.8574,-1.9486,-1.8636,-1.7153,-1.5511,-1.5301,-1.5375,-1.5118,-1.5134,0.0,-1.5685,-1.5406,-1.5262,-1.5733,-1.5799,-1.5799,-1.5799,-1.5621,-1.5553,-1.5704,-1.5121,-1.4482,-1.389,-1.2745,0.0,0.0,0.0,-0.7681,-0.5847,-0.5638,0.0,0.0,0.0,0.0,0.0,0.0,0.0,0.0,-0.55,-0.5832,0.0,0.0,0.0,0.0,0.0,0.0,0.0,0.0,0.0,0.0,0.0,0.0,0.0,0.0,0.0,0.0,-1.3984,-1.6314,-1.7625,-1.7314,-1.6948,-1.6918,-1.6802,-1.7047,-1.789,-1.8039,-1.8076,-1.8076,-1.8076,-1.7566,-1.6381,0.0,0.0,0.0,0.0,-1.5714,-1.9937,-1.998,-1.998,-1.998,-1.998,-1.8992,-1.7287,-2.0878,-2.2525,-2.2525,-2.2608,-2.1703,-2.0047,-1.8152,-1.7302,-1.6755,-1.2607,-1.3269,-1.6515,-1.6515,-1.6515,-1.6515,-1.6515,0.0,0.0,-1.6515,-1.6674,-1.6873,-1.6873,-1.6873,-1.6873,-1.6873,-1.6873,-1.6909,-1.7107,-1.7136,-1.7646,-1.9543,-1.9846,-1.9148,-1.7098,-1.6606,-1.6444,-1.5965,-1.5985,-1.6205,-1.6642,-1.5836,-1.5322,-1.5733,-1.5799,-1.5799,-1.5799,-1.5885,-1.6039,-1.632,0.0,0.0,-1.547,-1.3882,-1.2654,-1.2104,-1.0589,-0.9004,-0.7428,-0.6623,-0.6216,-0.6182,-0.6414,-0.6905,-0.7629,-0.7881,-0.814,-0.8411,-0.6971,-0.7035,0.0,0.0,0.0,0.0,0.0,0.0,0.0,0.0,0.0,0.0,0.0,0.0,0.0,0.0,0.0,-1.0076,-1.4264,-1.7481,-1.7746,-1.7914,-1.7736,-1.6986,-1.7983,-1.8808,-1.8986,-1.95,-1.9824,-1.9824,-1.9824,-1.9705,-1.944,-1.8915,-1.989,-2.262,-1.9904,-1.9473,-2.1781,-2.1789,-2.1789,-2.1789,0.0,0.0,-2.1232,-2.3032,-2.3834,-2.3867,-2.4461,-2.4199,-2.3298,-2.2882,-2.2114,-2.0791,-1.6843,-1.5782,-1.6515,-1.6515,-1.6515,-1.6515,-1.6515,-1.6515,-1.6515,-1.6515,-1.7666,-1.9088,-1.9088,-1.9088,0.0,-1.9088,-1.9088,-1.9412,-2.0815,-2.1178,-2.1295,-2.1697,-2.0731,-1.9535,-1.9008,-1.7879,-1.7081,-1.7389,-1.6671,-1.6174,-1.6612,-1.6129,-1.5704,-1.5799,-1.5799,-1.5799,-1.5799,-1.6266,-1.6633,-1.6693,-1.706,-1.7082,-1.647,-1.6084,-1.5087,-1.3226,-1.1409,-1.0152,-0.9602,-0.9115,-0.8759,-0.8537,-0.8597,-0.8578,-0.8473,-0.8526,-0.8822,-0.9337,-0.8539,-0.8529,0.0,0.0,0.0,0.0,0.0,0.0,0.0,0.0,0.0,0.0,0.0,-0.8261,-0.8261,0.0,-1.2843,-1.2843,-1.5637,-1.7811,-1.7811,-1.8179,-1.8359,-1.813,-1.8803,-1.9434,-1.9776,-2.0188,-2.0449,-2.0449,-2.2037,-2.2995,-2.2995,-2.2678,-2.3189,-2.471,-2.3279,-2.2921,-2.3785,-2.3441,-2.3432,-2.3794,-2.3794,-2.3794,-2.3813,-2.4467,-2.4752,-2.4766,-2.5139,-2.5084,-2.4752,-2.4752,-2.4384,-2.3607,-2.1654,-2.0293,-1.9413,-1.9413,-1.8853,-1.8099,-1.8099,-1.8099,-1.8099,-1.8099,-1.881,-1.9682,-1.9682,-1.9682,-1.9682,-1.9682,-2.0345,-2.1189,-2.2077,-2.2782,-2.3251,-2.3251,-2.2346,-2.1226,-2.0414,-1.9677,-1.9136,-1.9074,-1.8306,-1.7838,-1.8277,-1.7823,-1.7081,-1.6187,-1.606,-1.6108,-1.6274,-1.6581,-1.6858,-1.7027,-1.7352,-1.7519,-1.7453,-1.7387,-1.6504,-1.4527,-1.3496,-1.2436,-1.1297,-1.0928,-1.0634,-1.0413,-1.023,-1.0218,-1.0392,-1.0648,-1.09,-1.12,-1.154,-1.1495,0.0,0.0,0.0,0.0,0.0,0.0,0.0,0.0,-0.8461,-0.9659,-1.0522,-1.1057,-1.1057,-1.3865,-1.6108,-1.5848,-1.7093,-1.8086,-1.8086,-1.8302,-1.872,-1.9456,-1.9401,-1.9578,-2.0291,-2.0466,-2.0808,-2.1458,-2.4109,-2.5703,-2.5703,-2.5703,-2.5601,-2.5376,-2.5377,-2.5377,-2.5377,-2.4784,-2.4784,-2.5377,-2.5322,-2.5293,-2.5303,-2.5346,-2.5377,-2.5377,-2.5377,-2.5377,-2.5377,-2.5377,-2.5386,-2.538,-2.538,-2.4385,-2.2954,-2.2895,-2.1905,-2.0547,-2.028,-2.0216,-2.0216,-2.0216,-2.0216,-2.0216,-2.0216,-2.0216,-2.0261,-2.0489,-2.1581,-2.2712,-2.2854,-2.3648,-2.4382,-2.4257,-2.3728,-2.2929,-2.1699,-2.1342,-2.1105,-2.0671,-2.0052,-1.9716,-2.0158,-1.9697,-1.8703,-1.707,-1.6702,-1.6697,-1.6989,-1.6954,-1.7027,-1.7343,-1.7446,-1.7721,-1.831,-1.8185,-1.7477,-1.606,-1.5775,-1.4886,-1.3191,-1.2872,-1.2615,-1.2382,-1.211,-1.2209,-1.2676,-1.3056,-1.3254,-1.3318,-1.4544,-1.4448,-0.1248,-0.3985,-0.7124,-0.7845,-0.9442,-1.0017,0.0,0.0,-0.9706,-0.9873,-1.2684,-1.5136,-1.5136,-1.6483,-1.7175,-1.5975,-1.768,-1.912,-1.912,-1.8406,-1.8538,-2.0254,-1.9777,-1.963,-2.048,-2.043,-2.1567,-2.4549,-2.5347,-2.5703,-2.5703,-2.5703,-2.5693,-2.5659,-2.5659,-2.5659,-2.5659,-2.5572,-2.5572,-2.5648,-2.541,-2.5293,-2.5313,-2.5547,-2.5659,-2.5659,-2.5659,-2.5659,-2.5659,-2.5659,-2.5658,-2.5659,-2.5659,-2.552,-2.5292,-2.5051,-2.4429,-2.3534,-2.2393,-2.2011,-2.2011,-2.2011,-2.2011,-2.2011,-2.2011,-2.2011,-2.2254,-2.3379,-2.3849,-2.4136,-2.4782,-2.5069,-2.5034,-2.4429,-2.3877,-2.3376,-2.3024,-2.2121,-2.1497,-2.1891,-2.1053,-2.0441,-2.0989,-2.0561,-1.9812,-1.8851,-1.8139,-1.7719,-1.7773,-1.7467,-1.7343,-1.7634,-1.7911,-1.8322,-1.8869,-1.8575,-1.8261,-1.8071,-1.7331,-1.6645,-1.6054,-1.5827,-1.5543,-1.5151,-1.5124,-1.5003,-1.4755,-1.4818,-1.4905,-1.5058,-1.6077,-1.6014,-0.3604,-0.5366,-0.7963,0.0,-1.2735,-1.3434,-1.2239,-1.2677,-1.3573,-1.4346,-1.5814,-1.6969,-1.6969,-1.7886,-1.8498,0.0,-1.8664,-1.9434,-1.9823,-1.9614,-1.9715,-2.0514,-2.0177,-2.0029,-2.0388,-2.2118,-2.3784,-2.5187,-2.5396,-2.5471,-2.5471,-2.5471,-2.5471,-2.5471,-2.5471,-2.5543,-2.5703,-2.5703,-2.5703,-2.5703,-2.5593,-2.5525,-2.5539,-2.5648,-2.5607,-2.5471,-2.5471,-2.5471,-2.5471,-2.5471,-2.5562,-2.5705,-2.5705,-2.5705,-2.5691,-2.5564,-2.5237,-2.4757,-2.4225,-2.4059,-2.3971,-2.3543,-2.3694,-2.4059,-2.4059,-2.4059,-2.4156,-2.4695,-2.4954,-2.5135,-2.5444,-2.539,-2.5166,-2.4896,-2.4554,-2.4256,-2.4009,-2.3345,-2.2901,-2.3183,-2.2643,-2.228,-2.2747,-2.2619,-2.2329,-2.19,-2.0461,-1.9474,-1.9681,-1.9146,-1.8657,-1.8375,-1.8681,-1.8993,-1.921,-1.9292,-1.9095,-1.8544,-1.8247,-1.7714,-1.6876,-1.6777,-1.6597,-1.6306,-1.6351,-1.6268,-1.6087,-1.6568,-1.6822,-1.6898,-1.7904,-1.8214,-0.664,-0.7016,0.0,-1.2244,-1.421,-1.5045,-1.4745,-1.5274,-1.6183,-1.7526,-1.801,-1.8214,-1.8214,-1.8806,-1.9356,-1.9549,-1.9576,-2.0089,-2.1578,-2.191,-2.1644,-2.0642,-2.0388,-2.0321,-2.0379,-2.3351,-2.5293,-2.5293,-2.5293,-2.5293,-2.5293,-2.5293,-2.5293,-2.5293,-2.5293,-2.5391,-2.5593,-2.5586,-2.5631,-2.5703,-2.5703,-2.5703,-2.5703,-2.5621,-2.5478,-2.5293,-2.5293,-2.5293,-2.5293,-2.5293,-2.541,-2.5586,-2.5586,-2.5586,-2.5586,-2.5586,-2.5509,-2.541,-2.541,-2.541,-2.5313,-2.47,-2.4864,-2.5293,-2.5293,-2.5356,-2.541,-2.541,-2.5556,-2.5701,-2.5682,-2.5488,-2.5302,-2.5286,-2.5167,-2.5015,-2.4822,-2.4476,-2.4214,-2.4317,-2.4105,-2.3979,-2.4286,-2.4342,-2.4309,-2.4272,-2.2813,-2.1644,-2.1484,-2.085,-2.0228,-1.9752,-1.9817,-1.9873,-1.9888,-1.9989,-1.977,-1.9087,-1.9173,-1.8857,-1.7983,-1.7964,-1.7862,-1.7692,-1.7733,-1.7736,-1.7678,-1.8276,-1.8563,-1.8612,-1.9351,-1.992,-1.0466,0.0,-0.7927,-1.0927,-1.2813,-1.3612,-1.2223,-1.394,-1.6183,-1.7526,-1.857,-1.9249,-1.9249,-1.9274,-1.9509,-2.0162,-2.0269,-2.1498,-2.5045,-2.5536,-2.424,-2.0732,-2.03,-2.0379,0.0,-2.3456,-2.5293,-2.5293,-2.5293,-2.5293,-2.5293,-2.5293,-2.5293,-2.5293,-2.5293,-2.5303,-2.5313,-2.5313,-2.5441,-2.5703,-2.5703,-2.5703,-2.5693,-2.5428,-2.5313,-2.5293,-2.5293,-2.5293,-2.5293,-2.5293,-2.5293,-2.5313,-2.5313,-2.5313,-2.5313,-2.5313,-2.5468,-2.5693,-2.5693,-2.5693,-2.5637,-2.536,-2.5283,-2.5293,-2.5293,-2.5478,-2.5693,-2.5693,-2.5693,-2.5693,-2.5625,-2.5595,-2.5571,-2.5511,-2.5493,-2.5479,-2.5469,-2.5313,-2.5162,-2.5167,-2.5147,-2.5158,-2.5158,-2.5156,-2.5157,-2.5157,-2.4943,-2.426,-2.2836,-2.2235,-2.1954,-2.2008,-2.1423,-2.1072,-2.1145,-2.0566,-2.0183,-2.0144,-2.0279,-2.0285,-2.0113,-2.0113,-2.004,-1.9905,-1.9894,-1.9904,-1.99,-1.9933,-2.0019,-2.0123,-2.0164,-2.0701,-0.984,0.0,-1.0887,-1.2476,-1.4579,-1.6211,-1.586,-1.6991,-1.8248,-1.8708,-1.9063,-1.9434,-1.9888,-1.9593,-1.9522,-2.0189,-2.2319,-2.4309,-2.5527,-2.5703,-2.4407,-2.0911,-2.2341,0.0,0.0,0.0,0.0,-2.5293,-2.485,-2.4708,-2.502,-2.5032,-2.5118,-2.5293,-2.5293,-2.5293,-2.5293,-2.5293,-2.5348,-2.5444,-2.5607,-2.5613,-2.5428,-2.5348,-2.5293,-2.5293,-2.5293,-2.5293,-2.5293,-2.5293,-2.5293,-2.5293,-2.5293,-2.5293,-2.5293,-2.5293,-2.5364,-2.5465,-2.5636,-2.5703,-2.5693,-2.5588,-2.5571,-2.5571,-2.5571,-2.5633,-2.5703,-2.5703,-2.5703,-2.5693,-2.5674,-2.5674,-2.5664,-2.5637,-2.5634,-2.5634,-2.5634,-2.5576,-2.5527,-2.5527,-2.5532,-2.5532,-2.5532,-2.5525,-2.5525,-2.5473,-2.5139,-2.4534,-2.3506,-2.3336,-2.3131,-2.2618,-2.2431,-2.2371,-2.2388,-2.1659,-2.1198,-2.1198,-2.0693,-2.0375,-2.0327,-2.0327,-2.0315,-2.027,-2.0308,-2.0312,-2.0274,-2.0316,-2.0332,-2.0352,-2.0933,-2.1375,-1.1513,-1.3052,-1.4467,-1.6269,-1.8562,-2.0259,-1.9834,-1.968,-1.9667,-1.9667,-1.9667,-1.9788,-2.0216,-1.9951,-1.982,-2.0332,-2.2359,-2.4274,-2.5398,-2.5564,-2.4739,-2.2546,-2.4072,-2.5293,0.0,0.0,0.0,-2.5126,-2.4708,-2.4547,-2.4785,-2.4875,-2.501,-2.5183,-2.5264,-2.5293,-2.5293,-2.5293,-2.5293,-2.5303,-2.5472,-2.5471,-2.5293,-2.5293,-2.5293,-2.5293,-2.5293,-2.5293,-2.5293,-2.5293,-2.5293,-2.5293,-2.5293,-2.5293,-2.5293,-2.5293,-2.5293,-2.5339,-2.5613,-2.5703,-2.5703,-2.5703,-2.5703,-2.5703,-2.5703,-2.5703,-2.5703,-2.5703,-2.5681,-2.5668,-2.5692,-2.5684,-2.5674,-2.5693,-2.5703,-2.5703,-2.5703,-2.5703,-2.5703,-2.5703,-2.5703,-2.5703,-2.5703,-2.5701,-2.5677,-2.5608,-2.5345,-2.4948,-2.4415,-2.4458,-2.435,-2.3854,-2.3604,-2.347,-2.3503,-2.2725,-2.2225,-2.2196,-2.1669,-2.1384,-2.1404,-2.1101,-2.0945,-2.0945,-2.0976,-2.083,-2.0465,-2.1121,-2.1246,-2.0925,-2.1772,-2.2319,-1.5178,-1.6808,-1.852,-2.1835,-2.4098,-2.5124,-2.3662,-2.1775,-2.0323,-2.0323,-2.0171,-2.0055,-2.0055,0.0,-2.011,-2.03,-2.0625,-2.1879,-2.4878,-2.5293,-2.5293,0.0,0.0,0.0,0.0,0.0,0.0,-2.4837,0.0,-2.4804,-2.4626,-2.4854,-2.4989,-2.4989,-2.5183,-2.5293,-2.5293,-2.5293,-2.5293,-2.5293,-2.5293,-2.5293,-2.5293,-2.5293,-2.5293,-2.5293,-2.5293,-2.5293,-2.5293,-2.5293,-2.5293,-2.5293,-2.5293,-2.5293,-2.5293,-2.5293,-2.5293,-2.5339,-2.5613,-2.5703,-2.5703,-2.5703,-2.5703,-2.5703,-2.5703,-2.5703,-2.5703,-2.5703,-2.5649,-2.5624,-2.5685,-2.5654,-2.5615,-2.5684,-2.5703,-2.5703,-2.5703,-2.5703,-2.5703,-2.5703,-2.5703,-2.5703,-2.5703,-2.5703,-2.5666,-2.5608,-2.5601,-2.5577,-2.5509,-2.5503,-2.5529,-2.559,-2.486,-2.4403,-2.4461,-2.373,-2.3232,-2.3174,-2.3115,-2.3135,-2.3192,-2.2401,-2.1962,-2.1963,-2.1963,-2.1552,-2.0732,-2.232,-2.2671,-2.1876,-2.268,-2.3467,-1.3938,-1.9127,-2.3767,-2.4657,-2.5269,-2.5549,-2.5146,-2.2709,-2.0518,-2.0518,-1.8463,-1.6655,-1.6655,-1.6655,0.0,-1.6718,-2.0883,0.0,-2.5188,-2.5293,0.0,-2.5293,0.0,-2.5293,-2.5293,-2.5293,0.0,0.0,-2.479,-2.47,-2.4755,-2.4814,-2.4855,-2.4855,-2.5149,-2.5293,-2.5293,-2.5293,-2.5293,-2.5293,-2.5293,-2.5293,-2.5293,-2.5293,-2.5293,-2.5293,-2.5293,-2.5293,-2.5293,-2.5293,-2.5293,-2.5293,-2.5293,-2.5293,-2.5293,-2.5293,-2.5293,-2.5339,-2.5613,-2.5703,-2.5703,-2.5703,-2.5703,-2.5703,-2.5703,-2.5703,-2.5703,-2.5703,-2.5649,-2.562,-2.5683,-2.5648,-2.5615,-2.5684,-2.5703,-2.5703,-2.5703,-2.5703,-2.5703,-2.5703,-2.5703,-2.5703,-2.5703,-2.5666,-2.5617,-2.5601,-2.5563,-2.5522,-2.5499,-2.5537,-2.5576,-2.5601,-2.5452,-2.5348,-2.5371,-2.459,-2.4092,-2.4072,-2.3457,-2.3113,-2.3122,-2.2907,-2.2768,-2.2724,-2.2724,-2.2607,-2.2389,-2.2823,-2.2886,-2.2633,-2.3439,-2.3928,-1.8431,-2.2487,-2.5703,-2.5703,-2.5703,-2.5703,-2.5703,-2.4219,-2.2412,-2.0908,-1.6631,-1.3164,-1.3164,-1.3164,0.0,0.0,0.0,0.0,-2.5293,-2.5293,-2.5293,0.0,-2.5293,0.0,-2.5293,-2.5293,-2.5244,0.0,-2.4917,-2.4776,-2.4804,-2.4855,-2.49,-2.49,-2.516,-2.5264,-2.5172,-2.5264,-2.5293,-2.5293,-2.5293,-2.5293,-2.5293,-2.5293,-2.5293,-2.5283,0.0,-2.4823,-2.4823,-2.4823,-2.5003,-2.5293,-2.5293,-2.5293,-2.5293,-2.5293,-2.537,-2.5493,-2.5652,-2.5703,-2.5703,-2.5703,-2.5703,-2.5703,-2.5703,-2.5703,-2.5703,-2.5703,-2.5654,-2.5609,-2.5648,-2.5624,-2.5622,-2.5681,-2.5703,-2.5703,-2.5703,-2.5703,-2.5703,-2.5703,-2.5703,-2.5689,-2.5664,-2.5619,-2.5582,-2.5524,-2.5486,-2.5446,-2.5415,-2.5502,-2.5557,-2.5564,-2.5622,-2.5664,-2.5664,-2.5234,-2.4971,-2.4971,-2.4481,-2.4214,-2.4237,-2.3824,-2.3581,-2.3572,-2.3543,-2.3352,-2.2997,-2.3707,-2.3839,-2.3448,-2.4255,-2.463,-2.4867,-2.5703,-2.5703,-2.5703,-2.5703,-2.5576,-2.5127,-2.4668,-2.3359,-1.9941,0.0,-1.0303,-1.0303,-1.0674,-1.3086,-1.9548,0.0,-2.4793,-2.5235,-2.5293,-2.5293,-2.5293,-2.5293,-2.5293,-2.5293,-2.5293,-2.5293,-2.5293,-2.5141,-2.4971,-2.4828,-2.4933,-2.5001,-2.5001,-2.5152,-2.5152,-2.4989,-2.515,-2.5263,-2.5293,-2.5202,-2.515,-2.515,-2.515,-2.515,-2.5117,-2.4476,0.0,-2.4218,-2.4312,-2.4723,-2.5293,-2.5293,-2.5293,-2.5293,-2.5293,-2.5466,-2.5693,-2.5697,-2.5703,-2.5703,-2.5703,-2.5703,-2.5703,-2.5703,-2.5703,-2.5703,-2.5703,-2.5664,-2.5608,-2.5611,-2.5601,-2.5621,-2.5683,-2.5703,-2.5703,-2.5703,-2.5703,-2.5703,-2.5703,-2.5703,-2.568,-2.5621,-2.561,-2.5563,-2.5428,-2.5409,-2.538,-2.5303,-2.5409,-2.5492,-2.549,-2.5551,-2.5591,-2.5593,-2.5643,-2.5672,-2.5672,-2.5632,-2.5615,-2.5675,-2.4842,-2.4397,-2.4457,-2.4389,-2.4005,-2.3314,-2.4706,-2.4995,-2.4284,-2.4966,-2.5293,-2.5476,-2.5703,-2.5703,-2.5703,-2.5703,-2.4961,-2.2129,-1.9258,0.0,0.0,-1.1133,-1.0303,-1.0303,-1.2607,-1.5852,-1.9938,0.0,0.0,0.0,0.0,-2.5293,0.0,0.0,0.0,0.0,0.0,0.0,0.0,0.0,-2.5172,-2.4984,-2.4986,-2.5001,-2.5001,-2.4926,-2.49,-2.4927,-2.49,-2.5031,-2.5293,-2.4687,-2.4392,-2.4392,-2.4392,-2.4392,-2.4374,-2.4256,0.0,-2.4256,-2.485,-2.5182,-2.5293,-2.5293,-2.5293,-2.5293,-2.5293,-2.547,-2.5702,-2.5703,-2.5703,-2.5703,-2.5703,-2.5703,-2.5703,-2.5703,-2.5703,-2.5703,-2.5703,-2.5693,-2.5683,-2.5675,-2.5636,-2.5621,-2.5683,-2.5703,-2.5703,-2.5703,-2.5703,-2.5703,-2.5703,-2.5703,-2.5703,-2.5684,-2.5641,-2.5572,-2.5495,-2.5438,-2.538,-2.5303,-2.537,-2.5418,-2.5417,-2.548,-2.5524,-2.5521,-2.5529,-2.5529,-2.5529,-2.5579,-2.558,-2.5542,-2.5422,-2.5307,-2.5207,-2.5197,-2.5101,-2.4899,-2.5178,-2.5235,-2.5101,-2.5226,-2.5293,-2.5417,-2.5703,-2.5703,-2.5703,-2.5703,-2.4805,-2.1377,0.0,0.0,0.0,-1.0303,-1.0303,-1.0303,-1.1641,0.0,0.0,0.0,0.0,0.0,0.0,0.0,0.0,0.0,0.0,0.0,0.0,0.0,0.0,0.0,-2.5264,-2.5163,-2.5055,-2.5001,-2.5001,-2.4776,-2.4676,-2.4737,-2.4566,-2.4575,-2.4723,-2.4366,-2.4199,-2.4199,-2.4199,-2.4199,-2.4199,-2.4199,0.0,-2.4795,-2.515,-2.5293,-2.5293,-2.5293,-2.5293,-2.5293,-2.5293,-2.5385,-2.5508,-2.5648,-2.5703,-2.5703,-2.5703,-2.5703,-2.5703,-2.5703,-2.5703,-2.5703,-2.5703,-2.5698,-2.5673,-2.5527,-2.5566,-2.566,-2.5691,-2.5703,-2.5689,-2.5663,-2.5644,-2.5634,-2.5602,-2.5601,-2.5577,-2.5552,-2.5519,-2.5476,-2.5409,-2.537,-2.5332,-2.5293,-2.5322,-2.5341,-2.5341,-2.5409,-2.5446,-2.5449,-2.5476,-2.5495,-2.5495,-2.5527,-2.5552,-2.5552,-2.5524,-2.5479,-2.5452,-2.5378,-2.5322,-2.5293,-2.5293,-2.5293,-2.5293,-2.5293,-2.5293,-2.5127,-2.5703,-2.5703,-2.5703,-2.5703,-2.4805,-2.1377,-1.7251,0.0,0.0,-1.0303,-1.0303,-1.0303,0.0,-1.1299,0.0,-1.5869,0.0,0.0,0.0,0.0,0.0,0.0,0.0,0.0,0.0,0.0,0.0,0.0,0.0,-2.5293,-2.5111,-2.4986,-2.4962,-2.4657,-2.4495,-2.4504,-2.4312,-2.4199,-2.4199,-2.4199,-2.4199,-2.4199,-2.4199,-2.4284,-2.4434,-2.4434,0.0,0.0,-2.5293,-2.5293,-2.5293,-2.5293,-2.5293,-2.5293,-2.5293,-2.5293,-2.5331,-2.5543,-2.5648,-2.5703,-2.5703,-2.5703,-2.5703,-2.5703,-2.566,-2.5617,-2.5646,-2.564,-2.5572,-2.5341,-2.5479,-2.5658,-2.5658,-2.566,-2.564,-2.5594,-2.5582,-2.5552,-2.5509,-2.5504,-2.5479,-2.5428,-2.5418,-2.5399,-2.5322,-2.5312,-2.5312,-2.5293,-2.5293,-2.5293,-2.5293,-2.5341,-2.538,-2.538,-2.5428,-2.5466,-2.5466,-2.5476,-2.5503,-2.5546,-2.5473,-2.5444,-2.5485,-2.5375,-2.5303,-2.5293,-2.5293,-2.5293,-2.5293,-2.5293,-2.5293,-2.4814,-2.5703,-2.5703,-2.5703,-2.5703,-2.4805,-2.1377,0.0,-1.0662,-1.0361,-1.0303,-1.0303,-1.0303,-1.0303,-1.0918,-1.2822,0.0,-1.6738,0.0,0.0,0.0,0.0,0.0,0.0,0.0,0.0,0.0,0.0,0.0,0.0,-2.5293,-2.5111,-2.4937,-2.4823,-2.4607,-2.4428,-2.4247,-2.4209,-2.4199,-2.4199,-2.4199,-2.4199,-2.4199,-2.4199,-2.4566,-2.5202,-2.5202,0.0,0.0,-2.5293,-2.5293,-2.5293,-2.5293,-2.5293,-2.5293,-2.5293,-2.5293,-2.5303,-2.5331,-2.5503,-2.5703,-2.5703,-2.5703,-2.5703,-2.5703,-2.5535,-2.5359,-2.5474,-2.5428,-2.5322,-2.5303,-2.5409,-2.5516,-2.5517,-2.5517,-2.5522,-2.5508,-2.5509,-2.5515,-2.5495,-2.5505,-2.5505,-2.5486,-2.5495,-2.5476,-2.5399,-2.539,-2.537,-2.5303,-2.5293,-2.5293,-2.5293,-2.5303,-2.5303,-2.5303,-2.5303,-2.5312,-2.5312,-2.538,-2.5405,-2.5414,-2.5468,-2.547,-2.5408,-2.5399,-2.5361,-2.5293,-2.5293,-2.5293,-2.5293,-2.5293,-2.5293,-2.2256,-2.4131,-2.5703,-2.5703,-2.415,-2.1191,-1.5664,0.0,-1.0303,-1.0303,-1.0303,-1.0303,-1.0303,-1.0303,-1.0869,-1.2617,0.0,0.0,-1.8506,0.0,0.0,0.0,0.0,0.0,0.0,0.0,0.0,0.0,0.0,0.0,-2.5293,-2.5111,-2.4946,-2.4795,-2.4607,-2.4401,-2.4199,-2.4199,-2.4199,-2.4199,-2.4199,-2.4339,-2.4568,-2.4776,-2.5015,-2.5293,-2.5293,0.0,0.0,-2.5293,-2.5293,-2.5293,-2.5293,-2.5293,-2.5293,-2.5293,-2.5293,-2.5293,-2.5293,-2.5371,-2.5493,-2.5647,-2.5703,-2.5672,-2.5513,-2.5376,-2.5303,-2.5361,-2.5332,-2.5293,-2.5293,-2.5332,-2.5399,-2.5477,-2.5501,-2.5492,-2.5453,-2.5436,-2.5428,-2.539,-2.538,-2.538,-2.538,-2.538,-2.537,-2.5332,-2.5332,-2.5322,-2.5293,-2.5293,-2.5293,-2.5293,-2.5293,-2.5293,-2.5293,-2.5293,-2.5293,-2.5293,-2.5361,-2.5399,-2.5404,-2.5427,-2.5432,-2.5399,-2.5361,-2.5322,-2.5293,-2.5293,-2.5293,-2.5293,-2.5293,-2.5293,-2.0322,-2.2363,-2.4189,-2.4189,-2.2383,-1.8789,0.0,-1.0303,-1.0303,-1.0303,-1.0303,-1.0303,-1.0303,-1.0303,-1.0811,-1.2383,0.0,-1.4004,-1.7168,0.0,0.0,0.0,0.0,0.0,0.0,0.0,0.0,0.0,0.0,0.0,0.0,-2.5182,-2.4993,-2.4804,-2.4654,-2.4461,-2.4199,-2.4199,-2.4199,-2.4199,-2.4199,-2.4393,-2.4746,-2.5049,-2.5214,-2.5293,-2.5293,0.0,0.0,-2.5293,-2.5293,-2.5293,-2.5293,-2.5293,-2.5293,-2.5293,-2.5293,-2.5313,-2.5391,-2.5417,-2.5447,-2.5636,-2.5647,-2.5648,-2.6025,-2.5774,-2.5361,-2.5332,-2.5312,-2.5293,-2.5293,-2.5293,-2.5312,-2.5418,-2.5438,-2.5428,-2.538,-2.537,-2.5361,-2.5303,-2.5293,-2.5293,-2.5293,-2.5293,-2.5293,-2.5293,-2.5293,-2.5293,-2.5293,-2.5293,-2.5293,-2.5293,-2.5293,-2.5293,-2.5293,-2.5293,-2.5293,-2.5293,-2.5332,-2.537,-2.537,-2.537,-2.537,-2.537,-2.5312,-2.5293,-2.5293,-2.5293,-2.5293,-2.5293,-2.5293,-2.5293,-1.9658,-2.0635,-2.0654,-2.0654,-2.0635,-1.8789,-1.1865,-1.0303,-1.0303,-1.0303,-1.0303,-1.0303,-1.0303,-1.0303,-1.0684,-1.1816,-1.251,0.0,-1.6348,0.0,0.0,0.0,0.0,0.0,0.0,0.0,0.0,0.0,0.0,0.0,0.0,-2.5332,-2.5138,-2.4818,-2.4804,-2.4607,-2.419,-2.4199,-2.4199,-2.4199,-2.4199,-2.4339,-2.461,-2.4804,-2.5053,0.0,0.0,0.0,0.0,-2.5293,-2.5293,-2.5293,-2.5293,-2.5293,-2.5293,-2.5293,-2.5293,-2.5339,-2.5603,-2.5703,-2.5703,-2.5703,-2.5517,-2.5649,-2.7514,-2.6868,-2.5486,-2.5418,-2.5341,-2.5293,-2.5293,-2.5293,-2.5293,-2.5293,-2.5293,-2.5293,-2.5293,-2.5293,-2.5293,-2.5293,-2.5293,-2.5293,-2.5293,-2.5293,-2.5293,-2.5293,-2.5293,-2.5293,-2.5293,-2.5293,-2.5293,-2.5293,-2.5293,-2.5293,-2.5293,-2.5293,-2.5293,-2.5293,-2.5293,-2.5293,-2.5293,-2.5293,-2.5293,-2.5293,-2.5293,-2.5293,-2.5293,-2.5293,-2.5293,-2.5293,-2.5293,-2.5293,-1.6748,-1.8789,-2.0596,-2.0596,-2.0596,-1.9404,-1.4834,-1.1937,-1.0246,-1.0291,-1.0303,-1.0303,-1.0303,-1.0303,-1.1182,-1.3887,-1.3984,0.0,0.0,0.0,0.0,0.0,0.0,0.0,0.0,0.0,0.0,0.0,0.0,0.0,0.0,-2.5109,-2.5005,-2.4804,-2.4804,-2.4617,-2.419,-2.4199,-2.4199,-2.4199,-2.4348,-2.4528,-2.4746,-2.4907,-2.5088,0.0,0.0,0.0,0.0,-2.5293,-2.5293,-2.5293,-2.5293,-2.5293,-2.5293,-2.5293,-2.5361,-2.5455,-2.5642,-2.5697,-2.5673,-2.5586,-2.5543,-2.5736,-2.6968,-2.6959,-2.6486,-2.6284,-2.5784,-2.5293,-2.5293,-2.5293,-2.5293,-2.5293,-2.5293,-2.5293,-2.5293,-2.5293,-2.5293,-2.5293,-2.5293,-2.5293,-2.5293,-2.5293,-2.5293,-2.5293,-2.5293,-2.5293,-2.5293,-2.5293,-2.5293,-2.5293,-2.5293,-2.5293,-2.5293,-2.5293,-2.5293,-2.5293,-2.5293,-2.5293,-2.5293,-2.5293,-2.5293,-2.5293,-2.5293,-2.5293,-2.5293,-2.5293,-2.5293,-2.5293,-2.5293,-2.5293,-1.3477,-1.5059,-1.6709,-1.6709,-1.6709,-1.6152,-1.3975,-1.1802,-1.0251,-1.0286,-1.0298,-1.0303,-1.0303,-1.0303,-1.1004,-1.3132,-1.3547,-1.4412,0.0,0.0,0.0,0.0,0.0,0.0,0.0,0.0,0.0,0.0,0.0,0.0,0.0,-2.4949,-2.485,-2.47,-2.4685,-2.4519,-2.419,-2.4199,-2.4247,-2.4312,-2.4436,-2.4629,-2.4887,-2.4962,-2.5067,0.0,0.0,0.0,0.0,-2.5183,-2.5234,-2.5293,-2.5293,-2.5293,-2.5293,-2.5293,-2.538,-2.5523,-2.5619,-2.5648,-2.5611,-2.5534,-2.6082,-2.6879,-2.7486,-2.7518,-2.7246,-2.6746,-2.6217,-2.5707,-2.5389,-2.5293,-2.5293,-2.5293,-2.5293,-2.5293,-2.5293,-2.5293,-2.5293,-2.5293,-2.5293,-2.5293,-2.5293,-2.5293,-2.5293,-2.5293,-2.5293,-2.5293,-2.5293,-2.5293,-2.5293,-2.5293,-2.5293,-2.5293,-2.5293,-2.5293,-2.5293,-2.5293,-2.5293,-2.5303,-2.5332,-2.5303,-2.5303,-2.5332,-2.5303,-2.5293,-2.5293,-2.5293,-2.5264,-2.5183,-2.5254,-2.5264,0.0,-1.0303,-1.0303,-1.0303,-1.0303,-1.0303,-1.0292,-1.0292,0.0,-1.0299,-1.0298,-1.0322,-1.0399,-1.0351,-1.0371,-1.0617,-1.1969,0.0,0.0,0.0,0.0,0.0,0.0,0.0,0.0,0.0,0.0,0.0,0.0,0.0,0.0,-2.4846,-2.4685,-2.4487,-2.4478,-2.4393,-2.4199,-2.4199,-2.4303,-2.4495,-2.4502,-2.4678,-2.5001,-2.5013,-2.5013,0.0,0.0,0.0,0.0,-2.5022,-2.5131,-2.5293,-2.5293,-2.5293,-2.5293,-2.5293,-2.538,-2.5505,-2.556,-2.5543,-2.5505,-2.5543,-2.6994,-2.8729,-2.8754,-2.8393,-2.7783,-2.6887,-2.6618,-2.6398,-2.5504,-2.5351,-2.5399,-2.5312,-2.5351,-2.538,-2.5303,-2.5293,-2.5293,-2.5293,-2.5293,-2.5293,-2.5293,-2.5293,-2.5293,-2.5293,-2.5293,-2.5293,-2.5293,-2.5293,-2.5293,-2.5293,-2.5293,-2.5293,-2.5293,-2.5293,-2.5293,-2.5293,-2.5293,-2.5322,-2.539,-2.5322,-2.5322,-2.537,-2.5302,-2.5264,-2.5264,-2.5264,-2.5172,-2.4998,-2.5182,-2.5152,-1.0303,0.0,-1.0303,-1.0303,-1.0303,-1.027,0.0,-1.0151,-1.0183,-1.0278,0.0,-1.0494,-1.1361,-1.0809,-1.1084,-1.37,-1.4501,-1.5609,0.0,0.0,0.0,0.0,0.0,0.0,0.0,0.0,0.0,0.0,0.0,0.0,0.0,-2.4591,-2.4478,-2.4275,-2.4275,-2.4247,-2.4199,-2.4199,-2.4303,-2.4512,-2.4664,-2.4823,-2.501,-2.5163,-2.5152,0.0,0.0,0.0,-2.5001,-2.5172,-2.5264,-2.5293,-2.5293,-2.5293,-2.5293,-2.5293,-2.5341,-2.5438,-2.5446,-2.5473,-2.5576,-2.5981,-2.7325,-2.8744,-2.855,-2.8531,-2.8363,-2.7348,-2.684,-2.6342,-2.5272,-2.5793,-2.6379,-2.5505,-2.5813,-2.6111,-2.5437,-2.5293,-2.5293,-2.5293,-2.5293,-2.5293,-2.5293,-2.5293,-2.5293,-2.5293,-2.5293,-2.5293,-2.5293,-2.5293,-2.5293,-2.5293,-2.5293,-2.5293,-2.5293,-2.5293,-2.5293,-2.5293,-2.5293,-2.5303,-2.5312,-2.5303,-2.5243,-2.5096,-2.4975,-2.4919,-2.4919,-2.4919,-2.4883,-2.4855,-2.4892,-2.4883,-1.0211,-1.0245,-1.0303,-1.0303,-1.0303,-1.0259,-1.0132,0.0,0.0,0.0,0.0,-1.0508,-1.1532,-1.1206,-1.1654,-1.4321,-1.5095,0.0,0.0,0.0,0.0,0.0,0.0,0.0,0.0,0.0,0.0,0.0,0.0,0.0,0.0,-2.4552,-2.441,-2.4218,-2.4199,-2.4199,-2.4199,-2.4199,-2.4303,-2.4512,-2.4607,-2.4756,-2.4917,-2.5024,-2.4965,0.0,0.0,0.0,-2.493,-2.5086,-2.5214,-2.5293,-2.5293,-2.5293,-2.5293,-2.5293,-2.5332,-2.5399,-2.5403,-2.5615,-2.6044,-2.7099,-2.7942,-2.8569,-2.883,-2.9051,-2.9007,-2.7951,-2.7297,-2.6645,-2.5404,-2.6421,-2.762,-2.7004,-2.6736,-2.6476,-2.6005,-2.5572,-2.5293,-2.5293,-2.562,-2.5774,-2.537,-2.563,-2.5765,-2.536,-2.5293,-2.5293,-2.5293,-2.5293,-2.5293,-2.5293,-2.5293,-2.5293,-2.5293,-2.5293,-2.5293,-2.5293,-2.5293,-2.5273,-2.5206,-2.518,-2.5086,-2.4917,-2.4837,-2.4751,-2.4654,-2.4751,-2.476,-2.467,-2.476,-2.4746,-1.0104,-1.0181,-1.0386,-1.0921,-1.0658,-1.024,-1.0135,0.0,0.0,0.0,0.0,0.0,0.0,0.0,0.0,0.0,0.0,0.0,0.0,0.0,0.0,0.0,0.0,0.0,0.0,0.0,0.0,0.0,0.0,0.0,0.0,-2.4639,-2.4444,-2.4256,-2.4247,-2.4228,-2.4199,-2.4199,-2.4303,-2.4495,-2.4495,-2.4617,-2.4804,-2.4804,-2.4685,-2.4502,0.0,0.0,-2.4809,-2.4981,-2.5152,-2.5293,-2.5293,-2.5293,-2.5293,-2.5293,-2.5332,-2.538,-2.535,-2.5765,-2.6536,-2.8027,-2.8368,-2.8345,-2.9177,-2.9504,-2.9427,-2.856,-2.795,-2.7176,-2.5545,-2.7046,-2.8956,-2.8956,-2.8053,-2.7082,-2.6746,-2.5947,-2.538,-2.5649,-2.6197,-2.6409,-2.5803,-2.6207,-2.6351,-2.5601,-2.5495,-2.5495,-2.5495,-2.5601,-2.5697,-2.5697,-2.5697,-2.5677,-2.5638,-2.5522,-2.5435,-2.5414,-2.531,-2.5189,-2.5063,-2.4971,-2.4868,-2.476,-2.4731,-2.4623,-2.4444,-2.4632,-2.4623,-2.447,-2.4623,-2.4617,-1.0104,-1.0117,-1.0833,-1.3716,-1.2268,-1.0131,-1.0102,0.0,0.0,0.0,0.0,0.0,0.0,0.0,0.0,0.0,0.0,0.0,0.0,0.0,0.0,0.0,0.0,0.0,0.0,0.0,0.0,0.0,0.0,0.0,-2.4804,-2.4775,-2.4654,-2.4461,-2.4444,-2.4375,-2.4199,-2.4199,-2.4303,-2.4495,-2.4495,-2.4617,-2.4804,-2.4804,-2.4685,-2.4519,0.0,-2.4894,-2.4823,-2.5138,-2.5274,-2.5293,-2.5293,-2.5293,-2.5293,-2.5293,-2.5303,-2.5293,-2.5118,-2.5602,-2.6401,-2.6998,-2.7605,-2.825,-2.8883,-2.908,-2.9088,-2.8925,-2.8802,-2.8046,-2.5134,-2.7247,-3.0138,-3.0138,-2.9965,-2.9283,-2.735,-2.6072,-2.5745,-2.7207,-2.7015,-2.6794,-2.74,-2.6996,-2.6553,-2.6419,-2.6399,-2.6399,-2.6399,-2.7044,-2.7496,-2.7496,-2.7496,-2.7412,-2.7179,-2.6543,-2.6069,-2.5901,-2.5358,-2.4981,-2.4842,-2.466,-2.4575,-2.4552,-2.4375,-2.4275,-2.4247,-2.4275,-2.4275,-2.4247,-2.4275,-2.4275,-1.0104,-1.145,-1.3228,-1.4805,-1.2632,-1.0344,-1.1291,0.0,0.0,0.0,0.0,0.0,0.0,0.0,0.0,0.0,0.0,0.0,0.0,0.0,0.0,0.0,0.0,0.0,0.0,0.0,0.0,0.0,0.0,0.0,-2.4907,-2.4917,-2.478,-2.4512,-2.4495,-2.4401,-2.4199,-2.4199,-2.4247,-2.433,-2.433,-2.4393,-2.4487,-2.4487,-2.4428,-2.4357,0.0,-2.4761,-2.4818,-2.5039,-2.5194,-2.5293,-2.5293,-2.5293,-2.5293,-2.5293,-2.5234,-2.5227,-2.5862,-2.6146,-2.6384,-2.7182,-2.7957,-2.8642,-2.8911,-2.9357,-2.9661,-2.9128,-2.8994,-2.8645,-2.719,-2.8219,-2.9765,-3.0286,-3.0398,-3.011,-2.9052,-2.7717,-2.6851,-2.7323,-2.7592,-2.7678,-2.7448,-2.7592,-2.7534,-2.6919,-2.6822,-2.6938,-2.7255,-2.765,-2.79,-2.79,-2.7764,-2.7631,-2.7512,-2.7063,-2.6374,-2.5412,-2.4954,-2.4693,-2.4639,-2.4444,-2.433,-2.433,-2.4247,-2.4199,-2.4199,-2.463,-2.4841,-2.485,-2.5291,-2.5502,-1.0104,-1.2007,-1.4007,-1.4007,-1.2339,-1.1262,-1.3392,0.0,0.0,0.0,0.0,0.0,0.0,0.0,0.0,0.0,0.0,0.0,0.0,0.0,0.0,0.0,0.0,0.0,0.0,0.0,0.0,0.0,0.0,0.0,-2.4962,-2.4949,-2.4813,-2.4512,-2.4495,-2.4401,-2.4199,-2.4199,-2.4199,-2.4199,-2.4199,-2.4199,-2.4199,-2.4199,-2.4228,-2.4284,-2.4478,-2.4685,-2.4855,-2.5018,-2.5163,-2.5303,-2.5253,-2.5213,-2.518,-2.518,-2.5084,-2.5095,-2.609,-2.6167,-2.6017,-2.7214,-2.7987,-2.8498,-2.8883,-2.9495,-2.9977,-2.9466,-2.9325,-2.9325,-2.9325,-2.9325,-2.9504,-3.0238,-3.0398,-3.0398,-3.0398,-2.939,-2.8352,-2.7889,-2.8177,-2.8361,-2.7879,-2.8514,-2.8792,-2.7927,-2.7456,-2.7419,-2.8005,-2.8323,-2.8466,-2.8391,-2.8211,-2.7951,-2.7623,-2.7601,-2.6929,-2.5314,-2.508,-2.4985,-2.4985,-2.4828,-2.4759,-2.4759,-2.4759,-2.4759,-2.4759,-2.5373,-2.5667,-2.5685,-2.6309,-2.6603,-1.0104,-1.0277,-1.0469,-1.0469,-1.1502,0.0,-1.6606,-1.4935,0.0,0.0,0.0,0.0,0.0,0.0,0.0,0.0,0.0,0.0,0.0,0.0,0.0,0.0,0.0,0.0,0.0,0.0,0.0,0.0,0.0,0.0,-2.4823,-2.4809,-2.4731,-2.4512,-2.4495,-2.4401,-2.4199,-2.4199,-2.4199,-2.4199,-2.4199,-2.4199,-2.4199,-2.4199,-2.4303,-2.4495,-2.4685,-2.486,-2.4998,-2.5203,-2.5293,-2.5274,-2.5099,-2.4956,-2.4847,-2.4847,-2.4832,-2.4813,-2.4779,-2.4748,-2.4927,-2.6268,-2.6734,-2.7062,-2.8544,-2.9044,-2.9272,-3.0076,-3.0308,-3.0308,-3.0308,-3.0308,-3.0321,-3.0376,-3.0398,-3.0398,-3.0398,-3.0302,-3.0206,-3.0158,-2.8967,-2.8429,-2.9898,-3.0215,-3.0244,-3.0167,-2.8832,-2.8034,-2.8573,-2.9562,-3.0129,-2.988,-2.9832,-2.9294,-2.7982,-2.8498,-2.818,-2.6562,-2.6471,-2.645,-2.645,-2.6429,-2.6438,-2.6438,-2.6438,-2.6438,-2.6438,-2.6493,-2.6511,-2.6521,-2.6576,-2.6603,-1.0104,-1.0104,-1.0104,-1.0104,0.0,0.0,0.0,0.0,0.0,0.0,0.0,0.0,0.0,0.0,0.0,0.0,0.0,0.0,0.0,0.0,0.0,0.0,0.0,0.0,0.0,0.0,0.0,0.0,0.0,0.0,0.0,-2.4804,-2.4716,-2.4512,-2.4495,-2.4401,-2.4199,-2.4199,-2.4199,-2.4199,-2.4199,-2.4199,-2.419,-2.433,-2.4436,-2.4512,-2.4716,-2.4873,-2.4998,-2.499,-2.5037,-2.5098,-2.493,-2.4842,-2.4804,-2.4804,-2.4716,-2.4607,-2.461,-2.4487,-2.4607,-2.6112,-2.7291,-2.8218,-2.881,-2.9416,-2.9937,-3.0299,-2.9977,-2.9651,-3.0251,-3.0398,-3.0398,-3.0398,-3.0398,-3.0398,-3.0398,-3.0398,-3.0398,-3.0398,-2.989,-2.966,-3.0283,-3.0398,-3.0398,-3.0398,-2.9862,-2.9535,-2.9725,-3.0129,-3.0355,-3.0254,-2.9988,-2.9482,-2.8644,-2.8828,-2.8728,-2.8136,-2.7163,-2.6759,-2.709,-2.7108,-2.6943,-2.6612,-2.6603,-2.6603,-2.6603,-2.6934,-2.7181,-2.7356,-2.787,-2.8077,-1.0104,-1.0104,-1.0373,0.0,0.0,0.0,0.0,0.0,0.0,0.0,0.0,0.0,0.0,0.0,0.0,0.0,0.0,0.0,0.0,0.0,0.0,0.0,0.0,0.0,0.0,0.0,0.0,0.0,0.0,0.0,0.0,-2.4607,-2.4552,-2.4401,-2.441,-2.4348,-2.4199,-2.4199,-2.4199,-2.4199,-2.4199,-2.4199,-2.419,-2.4348,-2.4436,-2.4512,-2.4648,-2.479,-2.4933,-2.4842,-2.4828,-2.4831,-2.4741,-2.4595,-2.4463,-2.4566,-2.445,-2.4275,-2.4426,-2.4348,-2.4382,-2.5484,-2.6594,-2.7493,-2.7493,-2.8643,-2.9962,-2.9962,-2.9504,-2.915,-2.9799,-3.0178,-3.0398,-3.0398,-3.0398,-3.0398,-3.0398,-3.0398,-3.0398,-3.0398,-3.0398,-3.0398,-3.0398,-3.0398,-3.0398,-3.0398,-3.0398,-3.0398,-3.0398,-3.0142,-3.0007,-3.0165,-2.9765,-2.9346,-2.903,-2.8994,-2.8994,-2.8994,-2.798,-2.753,-2.7897,-2.7925,-2.7741,-2.7365,-2.7365,-2.7365,-2.7365,-2.7741,-2.8007,-2.8191,-2.875,-2.8994,-1.0088,-1.0098,-1.0954,0.0,0.0,0.0,0.0,0.0,0.0,0.0,0.0,0.0,0.0,0.0,0.0,0.0,0.0,0.0,0.0,0.0,0.0,0.0,0.0,0.0,0.0,0.0,0.0,0.0,0.0,0.0,0.0,-2.419,-2.419,-2.4218,-2.4199,-2.4199,-2.419,-2.4199,-2.4199,-2.4199,-2.4199,-2.4199,-2.4199,-2.4199,-2.4312,-2.4495,-2.4512,-2.4617,-2.4804,-2.4804,-2.4685,-2.4495,-2.4495,-2.4174,-2.3744,-2.4074,-2.3996,-2.3744,-2.4084,-2.4199,-2.4199,-2.4199,-2.4199,-2.4199,-2.4199,-2.6438,-2.8938,-2.8938,-2.8938,-2.8938,-2.8938,-2.9639,-3.035,-3.0388,-3.0388,-3.0398,-3.0398,-3.0398,-3.0398,-3.0398,-3.0398,-3.0398,-3.0398,-3.0398,-3.0398,-3.0398,-3.0388,-3.0376,-3.0367,-2.9542,-2.9163,-2.9643,-2.9272,-2.8994,-2.8994,-2.8994,-2.8994,-2.8994,-2.8994,-2.8994,-2.8994,-2.8994,-2.8994,-2.8994,-2.8994,-2.8994,-2.8994,-2.8994,-2.8994,-2.8994,-2.8994,-2.8994,-0.9578,-1.0239,0.0,0.0,0.0,0.0,0.0,0.0,0.0,0.0,0.0,0.0,0.0,0.0,0.0,0.0,0.0,0.0,0.0,0.0,0.0,0.0,0.0,0.0,0.0,0.0,0.0,0.0,0.0,0.0,0.0,-2.4401,-2.4487,-2.4617,-2.4348,-2.4275,-2.4401,-2.4275,-2.4199,-2.4199,-2.4199,-2.4199,-2.419,-2.4348,-2.4444,-2.4512,-2.4654,-2.4736,-2.479,-2.4639,-2.4461,-2.4284,-2.4284,-2.4181,-2.4065,-2.417,-2.4151,-2.4074,-2.417,-2.4199,-2.4199,-2.4199,-2.4199,-2.4199,-2.4199,-2.4869,-2.5621,-2.5621,-2.5621,-2.5621,-2.5621,-2.5829,-2.6614,-2.8885,-2.9921,-3.0398,-3.0398,-3.0398,-3.0398,-3.0398,-3.0398,-3.0398,-3.0398,-3.0398,-3.0398,-3.0398,-2.9832,-2.9027,-2.7933,-2.7537,-2.7846,-2.9069,-2.908,-2.8994,-2.8994,-2.8994,-2.8994,-2.8994,-2.8994,-2.8994,-2.8994,-2.8994,-2.8994,-2.8994,-2.8994,-2.8994,-2.8994,-2.8994,-2.8994,-2.8994,-2.8994,-2.8994,-0.9652,-1.073,0.0,0.0,0.0,0.0,0.0,0.0,0.0,0.0,0.0,0.0,0.0,0.0,0.0,0.0,0.0,0.0,0.0,0.0,0.0,0.0,0.0,0.0,0.0,0.0,0.0,0.0,0.0,0.0,0.0,-2.4584,-2.467,-2.4804,-2.4495,-2.4375,-2.4495,-2.4303,-2.4199,-2.4199,-2.4199,-2.4199,-2.419,-2.4339,-2.4375,-2.4393,-2.4512,-2.4568,-2.4552,-2.4436,-2.4321,-2.4199,-2.4199,-2.4122,-2.4025,-2.4142,-2.4122,-2.4016,-2.4142,-2.4199,-2.4199,-2.4199,-2.4199,-2.4199,-2.4199,-2.4199,-2.4199,-2.4199,-2.4199,-2.4199,-2.4199,-2.5153,-2.6603,-2.8535,-2.9427,-2.9848,-2.9848,-3.0137,-3.0286,-2.9921,-3.0142,-3.0398,-3.0398,-3.0398,-3.0264,-2.9905,-2.9357,-2.8429,-2.6898,-2.7246,-2.7974,-2.8905,-2.8994,-2.8994,-2.8994,-2.8994,-2.8994,-2.8994,-2.8994,-2.8994,-2.8994,-2.8994,-2.8994,-2.8994,-2.8994,-2.8994,-2.8994,-2.8994,-2.8994,-2.8994,-2.8994,-2.8994,-1.0104,0.0,0.0,0.0,0.0,0.0,0.0,0.0,0.0,0.0,0.0,0.0,0.0,0.0,0.0,0.0,0.0,0.0,0.0,0.0,0.0,0.0,0.0,0.0,0.0,0.0,0.0,0.0,0.0,0.0,0.0,-2.4706,-2.4832,-2.4837,-2.4623,-2.4512,-2.4528,-2.4321,-2.4199,-2.4199,-2.4199,-2.4199,-2.4199,-2.4199,-2.4199,-2.4199,-2.4199,-2.4199,-2.4199,-2.4199,-2.4199,-2.4199,-2.4199,-2.4016,-2.3786,-2.4094,-2.4016,-2.3795,-2.4094,-2.4199,-2.4199,-2.4199,-2.4199,-2.4199,-2.4199,-2.4199,-2.4199,-2.4199,-2.4199,-2.4199,-2.4199,-2.6374,-2.8553,-2.8553,-2.8783,-2.8994,-2.8994,-2.9678,-3.0022,-2.9172,-2.9696,-3.0264,-3.0264,-3.0264,-2.9983,-2.9138,-2.8994,-2.8489,-2.7106,-2.8139,-2.8994,-2.8994,-2.8994,-2.8994,-2.8994,-2.8994,-2.8994,-2.8994,-2.8994,-2.8994,-2.8994,-2.8994,-2.8994,-2.8994,-2.8994,-2.8994,-2.8994,-2.8994,-2.8994,-2.8994,-2.8994,-2.8994,0.0,-1.107,0.0,0.0,0.0,0.0,0.0,0.0,0.0,0.0,0.0,0.0,0.0,0.0,0.0,0.0,0.0,0.0,0.0,0.0,0.0,0.0,0.0,0.0,0.0,0.0,0.0,0.0,0.0,0.0,-2.4731,-2.4877,-2.503,-2.5191,-2.4741,-2.4584,-2.4721,-2.4375,-2.4199,0.0,-2.4199,-2.4199,-2.4199,-2.4199,-2.4199,-2.4199,-2.4199,-2.4199,-2.4199,-2.4199,-2.4199,-2.4199,-2.4199,-2.4151,-2.4094,-2.417,-2.4142,-2.4094,-2.417,-2.4199,-2.4199,-2.4199,-2.4199,-2.4199,-2.4199,-2.4199,-2.4199,-2.4199,-2.4199,-2.4199,-2.4199,-2.4713,-2.5227,-2.5227,-2.7172,-2.8994,-2.8994,-2.915,-2.924,-2.9044,-2.9172,-2.9314,-2.9314,-2.9314,-2.924,-2.903,-2.8994,-2.8872,-2.8549,-2.8782,-2.8994,-2.8994,-2.8994,-2.8994,-2.8994,-2.8994,-2.8994,-2.8994,-2.8994,-2.8994,-2.8994,-2.8994,-2.8994,-2.8994,-2.8994,-2.8994,-2.8994,-2.8994,-2.8994,-2.8994,-2.8994,-2.8994,0.0,0.0,0.0,0.0,0.0,0.0,0.0,0.0,0.0,0.0,0.0,0.0,0.0,0.0,0.0,0.0,0.0,0.0,0.0,0.0,0.0,0.0,0.0,0.0,0.0,0.0,0.0,0.0,0.0,-2.49,-2.49,-2.5053,-2.5194,-2.5303,-2.4869,-2.47,-2.4804,-2.4401,-2.4199,-2.4199,-2.4199,-2.4199,-2.4199,-2.4199,-2.4199,-2.4199,-2.4199,-2.4199,-2.4199,-2.4199,-2.4199,-2.4199,-2.4199,-2.4199,-2.4199,-2.4199,-2.4199,-2.4199,-2.4199,-2.4199,-2.4199,-2.4199,-2.4199,-2.4199,-2.4199,-2.4199,-2.4199,-2.4199,-2.4199,-2.4199,-2.4199,-2.4199,-2.4584,-2.6135,-2.7787,-2.8994,-2.8994,-2.8994,-2.8994,-2.8994,-2.8994,-2.8994,-2.8994,-2.8994,-2.8994,-2.8994,-2.8994,-2.8994,-2.8994,-2.8994,-2.8994,-2.8994,-2.8994,-2.8994,-2.8994,-2.8994,-2.8994,-2.8994,-2.8994,-2.8994,-2.8994,-2.8994,-2.8994,-2.8994,-2.8994,-2.8994,-2.8994,-2.8994,-2.8994,-2.8994,-2.8994,-2.8994,0.0,0.0,0.0,0.0,0.0,0.0,0.0,0.0,0.0,0.0,0.0,0.0,0.0,0.0,0.0,0.0,0.0,0.0,0.0,0.0,0.0,0.0,0.0,0.0,0.0,0.0,0.0,0.0,0.0,-2.5001,-2.5001,-2.5194,-2.5274,-2.5244,-2.4958,-2.479,-2.4746,-2.4393,-2.4199,-2.4199,-2.4199,-2.4199,-2.4199,-2.4199,-2.4199,-2.4199,-2.4199,-2.4199,-2.4199,-2.4199,-2.4199,-2.4199,-2.4199,-2.4199,-2.4199,-2.4199,-2.4199,-2.4199,-2.4199,-2.4199,-2.4199,-2.4199,-2.4199,-2.4199,-2.4199,-2.4199,-2.4199,-2.4199,-2.4199,-2.4199,-2.4199,-2.4612,-2.5704,-2.8383,-2.8994,-2.8994,-2.8994,-2.8994,-2.8994,-2.8994,-2.8994,-2.8994,-2.8994,-2.8994,-2.8994,-2.8994,-2.8994,-2.8994,-2.8994,-2.8994,-2.8994,-2.8994,-2.8994,-2.8994,-2.8994,-2.8994,-2.8994,-2.8994,-2.8994,-2.8994,-2.8994,-2.8994,-2.8994,-2.8994,-2.8994,-2.8994,-2.8994,-2.8994,-2.8994,-2.8994,-2.8994,-2.8994,0.0,0.0,0.0,0.0,0.0,0.0,0.0,0.0,0.0,0.0,0.0,0.0,0.0,0.0,0.0,0.0,0.0,0.0,0.0,0.0,0.0,0.0,0.0,0.0,0.0,0.0,0.0,0.0,-2.5001,-2.5001,-2.5001,-2.5194,-2.5214,-2.5055,-2.4887,-2.4716,-2.4536,-2.4312,-2.4199,-2.4199,-2.4199,-2.4199,-2.4199,-2.4199,-2.4199,-2.4199,-2.4199,-2.4199,-2.4199,-2.4199,-2.4199,-2.4199,-2.4199,-2.4199,-2.4199,-2.4199,-2.4199,-2.4199,-2.4199,-2.4199,-2.4199,-2.4199,-2.4199,-2.4199,-2.4199,-2.4199,-2.4199,-2.4199,-2.4199,-2.4199,-2.4199,-2.6273,-2.8462,-2.8893,-2.8994,-2.8994,-2.8994,-2.8994,-2.8994,-2.8994,-2.8994,-2.8994,-2.8994,-2.8994,-2.8994,-2.8994,-2.8994,-2.8994,-2.8994,-2.8994,-2.8994,-2.8994,-2.8994,-2.8994,-2.8994,-2.8994,-2.8994,-2.8994,-2.8994,-2.8994,-2.8994,-2.8994,-2.8994,-2.8994,-2.8994,-2.8994,-2.8994,-2.8994,-2.8994,-2.8994,-2.8994,-2.8994,-0.7757,0.0,0.0,0.0,0.0,0.0,0.0,0.0,0.0,0.0,0.0,0.0,0.0,0.0,0.0,0.0,0.0,0.0,0.0,0.0,0.0,0.0,0.0,0.0,0.0,0.0,0.0,0.0,-2.4752,-2.4694,-2.5134,-2.5152,-2.5088,-2.5001,-2.4752,-2.4584,-2.4495,-2.4303,-2.4199,-2.4199,-2.4199,-2.4199,-2.4199,-2.4199,-2.4199,-2.4199,-2.4199,-2.4199,-2.4199,-2.4199,-2.4199,-2.4199,-2.4199,-2.4199,-2.4199,-2.4199,-2.4199,-2.4199,-2.4199,-2.4199,-2.4199,-2.4199,-2.3728,-2.314,-2.314,-2.3624,-2.4054,-2.3344,-2.314,-2.3298,-2.4005,-2.6594,-2.8994,-2.8994,-2.8994,-2.8994,-2.8994,-2.8994,-2.8994,-2.8994,-2.8994,-2.8994,-2.8994,-2.8994,-2.8994,-2.8994,-2.8994,-2.8994,-2.8994,-2.8994,-2.8994,-2.8994,-2.8994,-2.8994,-2.8994,-2.8994,-2.8994,-2.8994,-2.8994,-2.8994,-2.8994,-2.8994,-2.8994,-2.8994,-2.8994,-2.8994,-2.8994,-2.8994,-2.8994,-2.8994,-2.8994,-2.8994,0.0,0.0,0.0,0.0,0.0,0.0,0.0,0.0,0.0,0.0,0.0,0.0,0.0,0.0,0.0,0.0,0.0,0.0,0.0,0.0,0.0,0.0,0.0,0.0,0.0,0.0,0.0,0.0,-2.411,-2.4015,-2.4571,-2.4667,-2.4669,-2.4572,-2.4523,-2.4487,-2.4418,-2.4266,-2.4199,-2.4199,-2.4199,-2.4199,-2.4199,-2.4199,-2.4199,-2.4199,-2.4199,-2.4199,-2.4199,-2.4199,-2.4199,-2.4199,-2.4199,-2.4199,-2.417,-2.4016,-2.4045,-2.4199,-2.4199,-2.4199,-2.4151,-2.3813,-2.3298,-2.2782,-2.2782,-2.3227,-2.3513,-2.257,-2.2516,-2.2993,-2.3955,-2.6594,-2.8994,-2.8994,-2.8994,-2.8994,-2.8994,-2.8994,-2.8994,-2.8994,-2.8994,-2.8994,-2.8994,-2.8994,-2.8994,-2.8994,-2.8994,-2.8994,-2.8994,-2.8994,-2.8994,-2.8994,-2.8994,-2.8994,-2.8994,-2.8994,-2.8994,-2.8994,-2.8994,-2.8994,-2.8994,-2.8994,-2.8994,-2.8994,-2.8994,-2.8994,-2.8994,-2.8994,-2.8994,-2.8994,-2.8994,-2.8994,0.0,0.0,0.0,0.0,0.0,0.0,0.0,0.0,0.0,0.0,0.0,0.0,0.0,0.0,0.0,0.0,0.0,0.0,0.0,0.0,0.0,0.0,0.0,0.0,0.0,0.0,0.0,0.0,-2.2889,-2.2824,-2.2753,-2.3456,-2.3717,-2.3403,-2.4102,-2.441,-2.4218,-2.4218,-2.4199,-2.4199,-2.4199,-2.4199,-2.4199,-2.4199,-2.4199,-2.4199,-2.4199,-2.4199,-2.4199,-2.4199,-2.4199,-2.4199,-2.4199,-2.4199,-2.4122,-2.35,-2.364,-2.4199,-2.4199,-2.4199,-2.4005,-2.2782,-2.3179,-2.4103,-2.4103,-2.3298,-2.2386,-2.231,-2.3179,-2.4132,-2.417,-2.6594,-2.8994,-2.8994,-2.8994,-2.8994,-2.8994,-2.8994,-2.8994,-2.8994,-2.8994,-2.8994,-2.8994,-2.8994,-2.8994,-2.8994,-2.8994,-2.8994,-2.8994,-2.8994,-2.8994,-2.8994,-2.8994,-2.8994,-2.8994,-2.8994,-2.8994,-2.8994,-2.8994,-2.8994,-2.8994,-2.8994,-2.8994,-2.8994,-2.8994,-2.8994,-2.8994,-2.8994,-2.8994,-2.8994,-2.8994,-2.8994,0.0,0.0,0.0,0.0,0.0,0.0,0.0,0.0,0.0,0.0,0.0,0.0,0.0,0.0,0.0,0.0,0.0,0.0,0.0,0.0,0.0,0.0,0.0,0.0,0.0,0.0,0.0,0.0,0.0,-2.2008,-2.2389,-2.2558,-2.2595,-2.2467,-2.266,-2.2877,-2.3113,-2.3622,-2.3765,-2.3566,-2.3774,-2.3876,-2.3896,-2.4094,-2.4074,-2.3876,-2.3876,-2.3996,-2.417,-2.3967,-2.3996,-2.4199,-2.4199,-2.4199,-2.417,-2.3917,-2.3482,-2.2968,-2.2968,-2.2968,-2.2901,-2.2451,-2.2615,-2.2968,-2.2968,-2.2659,-2.231,-2.231,-2.3236,-2.4199,-2.4199,-2.5061,-2.6447,-2.8498,-2.8994,-2.8994,-2.8994,-2.8994,-2.8994,-2.8994,-2.8994,-2.8994,-2.8994,-2.8994,-2.8667,-2.7681,-2.7533,-2.7533,-2.7533,-2.7533,-2.7909,-2.8896,-2.8994,-2.8994,-2.8994,-2.8994,-2.8994,-2.8994,-2.8994,-2.8994,-2.8994,-2.8994,-2.8994,-2.8994,-2.8994,-2.8994,-2.8994,-2.8994,-2.8994,-2.8994,-2.8994,-2.8994,-0.5583,0.0,0.0,0.0,0.0,0.0,0.0,0.0,0.0,0.0,0.0,0.0,0.0,0.0,0.0,0.0,0.0,0.0,0.0,0.0,0.0,0.0,0.0,0.0,0.0,0.0,0.0,0.0,0.0,0.0,-2.1375,-2.1522,-2.171,-2.1922,-2.2005,-2.2179,-2.2508,-2.3189,-2.3468,-2.3369,-2.3588,-2.3765,-2.3867,-2.3967,-2.3917,-2.3692,-2.3468,-2.3544,-2.3846,-2.3619,-2.3692,-2.3967,-2.4142,-2.4199,-2.4151,-2.3719,-2.3017,-2.231,-2.231,-2.231,-2.231,-2.231,-2.231,-2.231,-2.231,-2.231,-2.231,-2.231,-2.3236,-2.4199,-2.4199,-2.4997,-2.6355,-2.848,-2.8994,-2.8994,-2.8994,-2.8994,-2.8994,-2.8994,-2.8994,-2.8994,-2.8994,-2.8583,-2.7881,-2.6832,-2.6691,-2.6691,-2.6691,-2.6691,-2.7277,-2.8848,-2.8994,-2.8994,-2.8994,-2.8994,-2.8994,-2.8994,-2.8994,-2.8994,-2.8994,-2.8489,-2.8237,-2.8237,-2.8237,-2.8489,-2.8994,-2.8994,-2.8994,-2.8994,-2.8994,-2.8994,0.0,0.0,0.0,0.0,0.0,0.0,0.0,0.0,0.0,0.0,0.0,0.0,0.0,0.0,0.0,0.0,0.0,0.0,0.0,0.0,0.0,0.0,0.0,0.0,0.0,0.0,0.0,0.0,-1.9778,-1.9726,-1.9605,-2.0336,-2.1056,-2.1711,-2.2186,-2.2436,-2.2416,-2.291,-2.3333,-2.3635,-2.3683,-2.3867,-2.417,-2.3837,-2.3671,-2.364,-2.2988,-2.2864,-2.3165,-2.3165,-2.3323,-2.3544,-2.3996,-2.4151,-2.3985,-2.2764,-2.231,-2.231,-2.231,-2.231,-2.231,-2.231,-2.231,-2.231,-2.231,-2.231,-2.231,-2.231,-2.3236,-2.4199,-2.4199,-2.653,-2.8874,-2.891,-2.8929,-2.8929,-2.8929,-2.8929,-2.8961,-2.8984,-2.8994,-2.8994,-2.8938,-2.7681,-2.6691,-2.6691,-2.6691,-2.6733,-2.675,-2.6783,-2.733,-2.8839,-2.8994,-2.8994,-2.8994,-2.8994,-2.8994,-2.8994,-2.8961,-2.8929,-2.8929,-2.7512,-2.6691,-2.6691,-2.6691,-2.7452,-2.8994,-2.8994,-2.8994,-2.8994,-2.8994,-2.8994,-0.5981,0.0,0.0,0.0,0.0,0.0,0.0,0.0,0.0,0.0,0.0,0.0,0.0,0.0,0.0,0.0,0.0,0.0,0.0,0.0,0.0,0.0,0.0,0.0,0.0,0.0,0.0,0.0,-1.9369,-1.9368,-1.938,-1.9592,-1.9792,-1.9993,-2.0691,-2.0871,-2.0474,-2.1944,-2.2518,-2.2189,-2.2955,-2.3392,-2.3468,-2.3392,-2.3221,-2.2972,-2.2772,-2.2652,-2.2571,-2.2764,-2.3012,-2.33,-2.3423,-2.32,-2.2782,-2.2424,-2.231,-2.231,-2.231,-2.231,-2.231,-2.231,-2.231,-2.231,-2.231,-2.231,-2.231,-2.231,-2.3236,-2.4199,-2.4199,-2.486,-2.5827,-2.7037,-2.7339,-2.7339,-2.7339,-2.7339,-2.7681,-2.8782,-2.8994,-2.8642,-2.7533,-2.6987,-2.6691,-2.6691,-2.6691,-2.7098,-2.8228,-2.8351,-2.8524,-2.8952,-2.8994,-2.8994,-2.8994,-2.8994,-2.8994,-2.8994,-2.7937,-2.7339,-2.7339,-2.693,-2.6691,-2.6691,-2.6691,-2.7452,-2.8994,-2.8994,-2.8994,-2.8994,-2.8994,-2.8994,-0.6324,0.0,0.0,0.0,0.0,0.0,0.0,-0.9726,0.0,0.0,0.0,0.0,0.0,0.0,0.0,0.0,0.0,0.0,0.0,0.0,0.0,0.0,0.0,0.0,0.0,-1.7886,-1.8362,-1.8599,-1.8927,-1.9168,-1.9289,-1.9305,-1.9305,-1.9305,-1.9853,-2.0018,-1.9697,-2.1207,-2.1844,-2.1611,-2.2564,-2.3061,-2.3198,-2.3069,-2.2906,-2.2721,-2.259,-2.2436,-2.2302,-2.2463,-2.2643,-2.2815,-2.2815,-2.2624,-2.231,-2.231,-2.231,-2.231,-2.231,-2.231,-2.231,-2.231,-2.231,-2.231,-2.231,-2.231,-2.231,-2.231,-2.2824,-2.3422,-2.3422,-2.3422,-2.3654,-2.4637,-2.5795,-2.6691,-2.6691,-2.6691,-2.7161,-2.8691,-2.8994,-2.8725,-2.7825,-2.7129,-2.693,-2.7563,-2.7651,-2.7965,-2.8872,-2.8994,-2.8994,-2.8994,-2.8994,-2.8994,-2.8994,-2.8994,-2.8725,-2.8084,-2.7192,-2.6691,-2.6691,-2.6691,-2.6691,-2.6691,-2.6691,-2.7129,-2.8029,-2.8029,-2.8377,-2.8994,-2.8994,-2.8994,0.0,0.0,0.0,0.0,0.0,0.0,-0.9537,-0.9688,-0.9914,0.0,0.0,0.0,0.0,0.0,0.0,0.0,0.0,0.0,0.0,0.0,0.0,0.0,0.0,0.0,-1.6235,-1.6878,-1.7381,-1.762,-1.8413,-1.9019,-1.9289,-1.9305,-1.9289,-1.9268,-1.9497,-1.9593,-1.9532,-2.0525,-2.1148,-2.1359,-2.2114,-2.2663,-2.3018,-2.2675,-2.26,-2.273,-2.2424,-2.231,-2.231,-2.231,-2.231,-2.231,-2.231,-2.231,-2.231,-2.231,-2.231,-2.231,-2.231,-2.231,-2.231,-2.231,-2.231,-2.231,-2.231,-2.231,-2.231,-2.231,-2.231,-2.231,-2.231,-2.231,-2.231,-2.231,-2.4551,-2.6691,-2.6691,-2.6691,-2.7106,-2.8464,-2.8872,-2.8994,-2.8994,-2.771,-2.7215,-2.8758,-2.8994,-2.8994,-2.8994,-2.8994,-2.8994,-2.8994,-2.8994,-2.8994,-2.8994,-2.8839,-2.8175,-2.6783,-2.6691,-2.6691,-2.6691,-2.6691,-2.6691,-2.6691,-2.6691,-2.6691,-2.6691,-2.6691,-2.7391,-2.8749,-2.8749,-2.8848,0.0,0.0,0.0,0.0,0.0,0.0,-0.9037,-0.9654,-1.0349,0.0,0.0,0.0,0.0,0.0,0.0,0.0,0.0,0.0,0.0,0.0,0.0,0.0,0.0,0.0,-1.5138,-1.5623,-1.6137,-1.6556,-1.7629,-1.8575,-1.9253,-1.9305,-1.9221,-1.906,-1.911,-1.8938,-1.8487,-1.9531,-1.9987,-1.9843,-2.0585,-2.1262,-2.1892,-2.1627,-2.181,-2.2396,-2.2338,-2.231,-2.231,-2.231,-2.231,-2.231,-2.231,-2.231,-2.231,-2.231,-2.231,-2.231,-2.231,-2.231,-2.231,-2.231,-2.231,-2.231,-2.231,-2.231,-2.231,-2.231,-2.231,-2.231,-2.231,-2.231,-2.231,-2.231,-2.4551,-2.6691,-2.6691,-2.6691,-2.6783,-2.7106,-2.8148,-2.8994,-2.8994,-2.771,-2.7215,-2.8758,-2.8994,-2.8994,-2.8994,-2.8994,-2.8994,-2.8994,-2.8994,-2.8994,-2.8994,-2.7853,-2.701,-2.6725,-2.6691,-2.6691,-2.6691,-2.6691,-2.6691,-2.6691,-2.6691,-2.6691,-2.6691,-2.6691,-2.6832,-2.7161,-2.7161,-2.7796,0.0,0.0,0.0,-0.8819,0.0,0.0,0.0,-0.962,-0.9988,-0.9581,0.0,0.0,0.0,0.0,0.0,0.0,0.0,0.0,0.0,0.0,0.0,0.0,0.0,0.0,-1.3682,-1.4657,-1.5618,-1.6346,-1.7082,-1.7858,-1.8656,-1.8575,-1.8665,-1.9001,-1.8734,-1.8469,-1.8208,-1.8974,-1.9273,-1.9155,-1.9904,-2.0437,-2.0814,-2.107,-2.1388,-2.1769,-2.215,-2.2172,-2.1966,-2.1966,-2.1966,-2.1966,-2.2209,-2.231,-2.231,-2.231,-2.231,-2.231,-2.231,-2.231,-2.231,-2.231,-2.231,-2.231,-2.231,-2.231,-2.231,-2.231,-2.231,-2.231,-2.231,-2.231,-2.231,-2.231,-2.3435,-2.4907,-2.6378,-2.6691,-2.6691,-2.6691,-2.733,-2.8084,-2.8872,-2.8351,-2.812,-2.8872,-2.8994,-2.8994,-2.8994,-2.8994,-2.8994,-2.8994,-2.8994,-2.8994,-2.8994,-2.7601,-2.6691,-2.6691,-2.6691,-2.6691,-2.6691,-2.6691,-2.6691,-2.6691,-2.6691,-2.6691,-2.6691,-2.6691,-2.6691,-2.6691,-2.6691,-2.7542,0.0,0.0,0.0,0.0,0.0,-0.9999,0.0,0.0,0.0,-0.9527,0.0,0.0,0.0,0.0,0.0,0.0,0.0,0.0,0.0,0.0,0.0,0.0,0.0,0.0,0.0,-1.3783,-1.5083,-1.6199,-1.6388,-1.6917,-1.8041,-1.7841,-1.8084,-1.8904,-1.845,-1.8175,-1.8125,-1.8501,-1.8682,-1.8699,-1.9284,-1.9647,-1.9807,-2.0458,-2.0863,-2.1113,-2.1742,-2.1827,-2.156,-2.1499,-2.1491,-2.1529,-2.2003,-2.2209,-2.231,-2.231,-2.231,-2.231,-2.231,-2.231,-2.231,-2.231,-2.231,-2.231,-2.231,-2.231,-2.231,-2.231,-2.231,-2.231,-2.231,-2.231,-2.231,-2.231,-2.231,-2.3114,-2.6057,-2.6691,-2.6691,-2.6691,-2.6691,-2.7106,-2.8342,-2.8549,-2.8667,-2.8961,-2.8994,-2.8994,-2.8994,-2.8994,-2.8994,-2.8994,-2.8994,-2.8872,-2.8574,-2.7422,-2.6691,-2.6691,-2.6691,-2.6691,-2.6691,-2.6691,-2.6691,-2.6691,-2.6691,-2.6691,-2.6691,-2.6691,-2.6691,-2.67,-2.701,-2.7796,0.0,0.0,0.0,0.0,-1.0421,0.0,0.0,0.0,-1.0358,-0.9644,0.0,0.0,0.0,0.0,0.0,0.0,0.0,0.0,0.0,0.0,0.0,0.0,0.0,0.0,0.0,-1.293,-1.3869,-1.5406,-1.5061,-1.5744,-1.7986,-1.7841,-1.7991,-1.8624,-1.8351,-1.8091,-1.7847,-1.7887,-1.7929,-1.7938,-1.8022,-1.8395,-1.9029,-1.9113,-1.968,-2.0573,-2.0866,-2.1147,-2.1399,-2.1158,-2.1063,-2.1126,-2.1529,-2.1928,-2.231,-2.231,-2.231,-2.231,-2.231,-2.231,-2.231,-2.231,-2.231,-2.231,-2.231,-2.231,-2.231,-2.231,-2.231,-2.231,-2.231,-2.231,-2.231,-2.231,-2.231,-2.3114,-2.6057,-2.6691,-2.6691,-2.6691,-2.6691,-2.675,-2.693,-2.6954,-2.7422,-2.8782,-2.8994,-2.8994,-2.8994,-2.8994,-2.8994,-2.8994,-2.8994,-2.8438,-2.7074,-2.6808,-2.6691,-2.6691,-2.6691,-2.6691,-2.6691,-2.6691,-2.6691,-2.6691,-2.6691,-2.6691,-2.6691,-2.6691,-2.6691,-2.6716,-2.8112,-2.8839,0.0,0.0,0.0,0.0,0.0,0.0,-0.9487,0.0,-0.9769,0.0,0.0,0.0,0.0,0.0,0.0,0.0,0.0,0.0,0.0,0.0,0.0,0.0,0.0,0.0,0.0,0.0,0.0,0.0,-1.3677,-1.44,-1.5751,-1.6467,-1.7108,-1.771,-1.7871,-1.7905,-1.7811,-1.7811,-1.7811,-1.7811,-1.7811,-1.7972,-1.8285,-1.886,-1.9378,-1.9854,-2.0574,-2.101,-2.115,-2.1063,-2.0698,-2.0311,-2.0983,-2.1675,-2.231,-2.231,-2.231,-2.231,-2.231,-2.231,-2.231,-2.231,-2.231,-2.231,-2.231,-2.231,-2.231,-2.231,-2.231,-2.231,-2.231,-2.231,-2.231,-2.231,-2.231,-2.3114,-2.6057,-2.6691,-2.6691,-2.6691,-2.6691,-2.6691,-2.6691,-2.6691,-2.693,-2.7572,-2.8438,-2.8994,-2.8994,-2.8994,-2.8994,-2.8994,-2.8201,-2.7391,-2.6758,-2.6691,-2.6691,-2.6691,-2.6691,-2.6691,-2.6691,-2.6691,-2.6691,-2.6691,-2.6691,-2.6691,-2.6691,-2.6691,-2.7161,-2.8057,-2.87,-2.8524,-0.8919,0.0,0.0,0.0,0.0,0.0,0.0,0.0,0.0,0.0,0.0,0.0,0.0,0.0,0.0,0.0,0.0,0.0,0.0,0.0,0.0,0.0,0.0,0.0,0.0,0.0,0.0,0.0,0.0,-1.3105,-1.4138,-1.5056,-1.6019,-1.706,-1.7352,-1.76,-1.7811,-1.7811,-1.7811,-1.7811,-1.7712,-1.765,-1.7683,-1.8388,-1.8718,-1.8807,-1.9922,-2.048,-2.0632,-2.0632,-2.0277,-1.9818,-2.0934,-2.1751,-2.231,-2.231,-2.231,-2.231,-2.231,-2.231,-2.231,-2.231,-2.231,-2.231,-2.231,-2.231,-2.231,-2.231,-2.231,-2.231,-2.231,-2.231,-2.231,-2.231,-2.231,-2.2894,-2.5033,-2.6124,-2.6691,-2.6691,-2.6691,-2.6691,-2.6691,-2.6691,-2.6691,-2.6691,-2.7651,-2.8377,-2.8377,-2.8377,-2.8377,-2.8377,-2.737,-2.6691,-2.6691,-2.6691,-2.6691,-2.6691,-2.6691,-2.6691,-2.6691,-2.6691,-2.6691,-2.6691,-2.6691,-2.6691,-2.6691,-2.7129,-2.7918,-2.8994,-2.8791,-2.821,0.0,0.0,0.0,-0.8961,0.0,0.0,0.0,0.0,-0.991,0.0,0.0,0.0,0.0,0.0,0.0,0.0,0.0,0.0,0.0,0.0,0.0,0.0,0.0,0.0,0.0,0.0,0.0,0.0,0.0,0.0,-1.4084,-1.3986,-1.4865,-1.7025,-1.6852,-1.7075,-1.778,-1.7811,-1.7811,-1.7789,-1.7471,-1.732,-1.7312,-1.7224,-1.7233,-1.742,-1.8424,-1.9193,-1.9754,-1.9754,-1.9726,-1.9882,-2.1593,-2.2282,-2.231,-2.231,-2.231,-2.231,-2.231,-2.231,-2.231,-2.231,-2.231,-2.231,-2.231,-2.231,-2.231,-2.231,-2.231,-2.231,-2.231,-2.231,-2.231,-2.231,-2.231,-2.2336,-2.2429,-2.4678,-2.6691,-2.6691,-2.6691,-2.6691,-2.6691,-2.6691,-2.6691,-2.6691,-2.675,-2.6783,-2.6783,-2.6783,-2.6783,-2.6783,-2.6725,-2.6691,-2.6691,-2.6691,-2.6691,-2.6691,-2.6691,-2.6691,-2.6691,-2.6691,-2.6691,-2.6691,-2.6691,-2.6691,-2.6691,-2.8201,-2.8952,-2.8984,-2.8264,-2.8281,0.0,0.0,-1.0465,-0.9233,0.0,0.0,0.0,0.0,0.0,0.0,0.0,0.0,0.0,0.0,0.0,0.0,0.0,0.0,0.0,0.0,0.0,0.0,0.0,0.0,0.0,0.0,0.0,0.0,-1.0489,0.0,0.0,-1.3032,-1.4287,-1.5349,-1.624,-1.7041,-1.778,-1.7811,-1.7681,-1.7479,-1.736,-1.7167,-1.696,-1.6741,-1.6652,-1.6714,-1.6789,-1.7911,-1.9754,-2.0311,-2.0573,-2.0673,-2.1848,-2.231,-2.231,-2.231,-2.231,-2.231,-2.231,-2.231,-2.231,-2.231,-2.231,-2.231,-2.231,-2.231,-2.231,-2.231,-2.231,-2.231,-2.231,-2.231,-2.231,-2.231,-2.231,-2.231,-2.231,-2.4619,-2.6691,-2.6691,-2.6691,-2.6691,-2.6691,-2.6691,-2.6691,-2.6691,-2.6691,-2.6691,-2.6691,-2.6691,-2.6691,-2.6691,-2.6691,-2.6691,-2.6691,-2.6691,-2.6691,-2.6691,-2.6691,-2.6691,-2.6691,-2.6691,-2.6691,-2.6691,-2.6691,-2.6691,-2.6691,-2.7215,-2.7482,-2.7473,-2.7224,-2.7224,-1.0428,-1.0825,0.0,-0.9587,-0.9606,0.0,-0.8701,0.0,0.0,0.0,0.0,0.0,0.0,0.0,0.0,0.0,0.0,0.0,0.0,0.0,0.0,0.0,0.0,0.0,0.0,0.0,-0.9229,-0.8945,-0.9666,0.0,0.0,0.0,-1.3335,-1.4073,-1.5536,-1.6652,-1.7405,-1.7546,-1.7517,-1.7288,-1.7068,-1.6825,-1.6607,-1.6316,-1.62,-1.6188,-1.6252,-1.724,-1.8928,-1.9984,-2.0711,-2.1189,-2.1653,-2.202,-2.231,-2.231,-2.231,-2.231,-2.231,-2.231,-2.231,-2.231,-2.231,-2.231,-2.231,-2.231,-2.231,-2.231,-2.231,-2.231,-2.231,-2.231,-2.231,-2.231,-2.231,-2.231,-2.231,-2.4619,-2.6691,-2.6691,-2.6691,-2.6691,-2.6691,-2.6691,-2.6691,-2.6691,-2.6691,-2.6691,-2.6691,-2.6691,-2.6691,-2.6691,-2.6691,-2.6691,-2.6691,-2.6691,-2.6691,-2.6691,-2.6691,-2.6691,-2.6691,-2.6691,-2.6691,-2.6691,-2.6691,-2.6954,-2.7512,-2.6954,-2.6691,-2.6691,-2.6691,-2.6691]}]]